<?xml version='1.0' encoding='UTF-8'?>
<gpx version="1.1" creator="https://www.komoot.de" xmlns="http://www.topografix.com/GPX/1/1" xmlns:xsi="http://www.w3.org/2001/XMLSchema-instance" xsi:schemaLocation="http://www.topografix.com/GPX/1/1 http://www.topografix.com/GPX/1/1/gpx.xsd">
  <metadata>
    <name>Sen2026/2Blauer Radschmetterling-Rezath/Altmühl Quelle</name>
    <author>
      <link href="https://www.komoot.de">
        <text>komoot</text>
        <type>text/html</type>
      </link>
    </author>
  </metadata>
  <wpt lat="49.309347" lon="10.182395">
    <name>Alter Bahnhof Bockenfeld und Bahnradweg</name>
    <sym>Picnic Area</sym>
  </wpt>
  <wpt lat="49.288553" lon="10.267202">
    <name>Wasserturm Schillingsfürst</name>
    <sym>Flag, Blue</sym>
  </wpt>
  <wpt lat="49.358972" lon="10.402406">
    <name>Blick auf Burg Colmberg</name>
    <sym>Flag, Blue</sym>
  </wpt>
  <wpt lat="49.384136" lon="10.370737">
    <name>Historischer Ortskern von Binzwangen</name>
    <sym>Flag, Blue</sym>
  </wpt>
  <wpt lat="49.427789" lon="10.396580">
    <name>Rezatquelle</name>
    <sym>Flag, Blue</sym>
  </wpt>
  <wpt lat="49.427786" lon="10.306503">
    <name>Hirschteich (Altmühlquelle)</name>
    <sym>Flag, Blue</sym>
  </wpt>
  <wpt lat="49.376720" lon="10.184795">
    <name>Altstadt Rothenburg ob der Tauber</name>
    <sym>Flag, Blue</sym>
  </wpt>
  <trk>
    <name>Sen2026/2Blauer Radschmetterling-Rezath/Altmühl Quelle</name>
    <trkseg>
      <trkpt lat="49.379965" lon="10.185441">
        <ele>436.860193</ele>
        <time>2026-04-26T14:19:47.423Z</time>
      </trkpt>
      <trkpt lat="49.379942" lon="10.185334">
        <ele>436.860193</ele>
        <time>2026-04-26T14:19:48.791Z</time>
      </trkpt>
      <trkpt lat="49.379897" lon="10.185137">
        <ele>436.860193</ele>
        <time>2026-04-26T14:19:51.255Z</time>
      </trkpt>
      <trkpt lat="49.379886" lon="10.185097">
        <ele>436.860193</ele>
        <time>2026-04-26T14:19:51.758Z</time>
      </trkpt>
      <trkpt lat="49.379763" lon="10.184610">
        <ele>436.860193</ele>
        <time>2026-04-26T14:19:57.663Z</time>
      </trkpt>
      <trkpt lat="49.379703" lon="10.184505">
        <ele>436.860193</ele>
        <time>2026-04-26T14:19:59.266Z</time>
      </trkpt>
      <trkpt lat="49.379663" lon="10.184553">
        <ele>436.860193</ele>
        <time>2026-04-26T14:20:00.109Z</time>
      </trkpt>
      <trkpt lat="49.378829" lon="10.184974">
        <ele>434.577989</ele>
        <time>2026-04-26T14:20:14.060Z</time>
      </trkpt>
      <trkpt lat="49.378541" lon="10.185064">
        <ele>433.616918</ele>
        <time>2026-04-26T14:20:18.666Z</time>
      </trkpt>
      <trkpt lat="49.378017" lon="10.185023">
        <ele>431.901186</ele>
        <time>2026-04-26T14:20:27.057Z</time>
      </trkpt>
      <trkpt lat="49.377804" lon="10.185002">
        <ele>431.203230</ele>
        <time>2026-04-26T14:20:30.614Z</time>
      </trkpt>
      <trkpt lat="49.377254" lon="10.184931">
        <ele>430.129296</ele>
        <time>2026-04-26T14:20:40.366Z</time>
      </trkpt>
      <trkpt lat="49.376725" lon="10.184788">
        <ele>429.185328</ele>
        <time>2026-04-26T14:20:50.472Z</time>
      </trkpt>
      <trkpt lat="49.376492" lon="10.184839">
        <ele>428.771710</ele>
        <time>2026-04-26T14:20:54.939Z</time>
      </trkpt>
      <trkpt lat="49.376438" lon="10.184838">
        <ele>428.676803</ele>
        <time>2026-04-26T14:20:55.950Z</time>
      </trkpt>
      <trkpt lat="49.376421" lon="10.184877">
        <ele>428.623100</ele>
        <time>2026-04-26T14:20:56.522Z</time>
      </trkpt>
      <trkpt lat="49.376395" lon="10.184946">
        <ele>428.531878</ele>
        <time>2026-04-26T14:20:57.496Z</time>
      </trkpt>
      <trkpt lat="49.376224" lon="10.185595">
        <ele>427.691017</ele>
        <time>2026-04-26T14:21:05.823Z</time>
      </trkpt>
      <trkpt lat="49.376207" lon="10.185665">
        <ele>427.566373</ele>
        <time>2026-04-26T14:21:06.677Z</time>
      </trkpt>
      <trkpt lat="49.376198" lon="10.185711">
        <ele>427.486239</ele>
        <time>2026-04-26T14:21:07.223Z</time>
      </trkpt>
      <trkpt lat="49.376189" lon="10.185753">
        <ele>427.412471</ele>
        <time>2026-04-26T14:21:07.738Z</time>
      </trkpt>
      <trkpt lat="49.376136" lon="10.186096">
        <ele>426.824333</ele>
        <time>2026-04-26T14:21:11.705Z</time>
      </trkpt>
      <trkpt lat="49.376119" lon="10.186214">
        <ele>426.622706</ele>
        <time>2026-04-26T14:21:13.039Z</time>
      </trkpt>
      <trkpt lat="49.376103" lon="10.186329">
        <ele>426.426514</ele>
        <time>2026-04-26T14:21:14.326Z</time>
      </trkpt>
      <trkpt lat="49.376030" lon="10.186864">
        <ele>425.514557</ele>
        <time>2026-04-26T14:21:20.203Z</time>
      </trkpt>
      <trkpt lat="49.375996" lon="10.187116">
        <ele>425.085200</ele>
        <time>2026-04-26T14:21:22.968Z</time>
      </trkpt>
      <trkpt lat="49.375974" lon="10.187276">
        <ele>424.812376</ele>
        <time>2026-04-26T14:21:24.710Z</time>
      </trkpt>
      <trkpt lat="49.375932" lon="10.187589">
        <ele>424.279206</ele>
        <time>2026-04-26T14:21:28.081Z</time>
      </trkpt>
      <trkpt lat="49.375897" lon="10.187855">
        <ele>423.826452</ele>
        <time>2026-04-26T14:21:30.946Z</time>
      </trkpt>
      <trkpt lat="49.375875" lon="10.188023">
        <ele>423.540555</ele>
        <time>2026-04-26T14:21:32.789Z</time>
      </trkpt>
      <trkpt lat="49.375870" lon="10.188058">
        <ele>423.480774</ele>
        <time>2026-04-26T14:21:33.174Z</time>
      </trkpt>
      <trkpt lat="49.375834" lon="10.188329">
        <ele>423.094371</ele>
        <time>2026-04-26T14:21:36.221Z</time>
      </trkpt>
      <trkpt lat="49.375829" lon="10.188367">
        <ele>423.055320</ele>
        <time>2026-04-26T14:21:36.666Z</time>
      </trkpt>
      <trkpt lat="49.375799" lon="10.188567">
        <ele>422.848580</ele>
        <time>2026-04-26T14:21:38.982Z</time>
      </trkpt>
      <trkpt lat="49.375746" lon="10.188555">
        <ele>422.765697</ele>
        <time>2026-04-26T14:21:39.923Z</time>
      </trkpt>
      <trkpt lat="49.375589" lon="10.188559">
        <ele>422.522768</ele>
        <time>2026-04-26T14:21:42.683Z</time>
      </trkpt>
      <trkpt lat="49.375446" lon="10.188631">
        <ele>422.289947</ele>
        <time>2026-04-26T14:21:45.332Z</time>
      </trkpt>
      <trkpt lat="49.375344" lon="10.188609">
        <ele>422.130594</ele>
        <time>2026-04-26T14:21:47.170Z</time>
      </trkpt>
      <trkpt lat="49.375236" lon="10.188512">
        <ele>421.937034</ele>
        <time>2026-04-26T14:21:49.441Z</time>
      </trkpt>
      <trkpt lat="49.375117" lon="10.188351">
        <ele>421.691683</ele>
        <time>2026-04-26T14:21:52.357Z</time>
      </trkpt>
      <trkpt lat="49.374955" lon="10.188059">
        <ele>421.305245</ele>
        <time>2026-04-26T14:21:57.146Z</time>
      </trkpt>
      <trkpt lat="49.374521" lon="10.187525">
        <ele>420.444901</ele>
        <time>2026-04-26T14:22:08.175Z</time>
      </trkpt>
      <trkpt lat="49.374409" lon="10.187300">
        <ele>420.232036</ele>
        <time>2026-04-26T14:22:11.996Z</time>
      </trkpt>
      <trkpt lat="49.374387" lon="10.187073">
        <ele>420.063705</ele>
        <time>2026-04-26T14:22:15.051Z</time>
      </trkpt>
      <trkpt lat="49.374457" lon="10.186768">
        <ele>419.826508</ele>
        <time>2026-04-26T14:22:19.173Z</time>
      </trkpt>
      <trkpt lat="49.374500" lon="10.186721">
        <ele>419.767055</ele>
        <time>2026-04-26T14:22:20.189Z</time>
      </trkpt>
      <trkpt lat="49.374483" lon="10.186671">
        <ele>419.725683</ele>
        <time>2026-04-26T14:22:22.751Z</time>
      </trkpt>
      <trkpt lat="49.374458" lon="10.186611">
        <ele>419.673435</ele>
        <time>2026-04-26T14:22:25.990Z</time>
      </trkpt>
      <trkpt lat="49.374144" lon="10.186908">
        <ele>419.258022</ele>
        <time>2026-04-26T14:22:32.984Z</time>
      </trkpt>
      <trkpt lat="49.374048" lon="10.186944">
        <ele>419.146703</ele>
        <time>2026-04-26T14:22:34.839Z</time>
      </trkpt>
      <trkpt lat="49.373962" lon="10.186914">
        <ele>419.047359</ele>
        <time>2026-04-26T14:22:36.508Z</time>
      </trkpt>
      <trkpt lat="49.372576" lon="10.185114">
        <ele>416.497975</ele>
        <time>2026-04-26T14:23:09.765Z</time>
      </trkpt>
      <trkpt lat="49.372485" lon="10.184542">
        <ele>415.910068</ele>
        <time>2026-04-26T14:23:16.883Z</time>
      </trkpt>
      <trkpt lat="49.372373" lon="10.184052">
        <ele>415.202737</ele>
        <time>2026-04-26T14:23:23.041Z</time>
      </trkpt>
      <trkpt lat="49.372275" lon="10.183764">
        <ele>414.633549</ele>
        <time>2026-04-26T14:23:26.859Z</time>
      </trkpt>
      <trkpt lat="49.372055" lon="10.183321">
        <ele>413.657668</ele>
        <time>2026-04-26T14:23:33.342Z</time>
      </trkpt>
      <trkpt lat="49.371781" lon="10.182927">
        <ele>412.647939</ele>
        <time>2026-04-26T14:23:39.838Z</time>
      </trkpt>
      <trkpt lat="49.371381" lon="10.182553">
        <ele>411.388192</ele>
        <time>2026-04-26T14:23:47.574Z</time>
      </trkpt>
      <trkpt lat="49.371186" lon="10.182437">
        <ele>410.825658</ele>
        <time>2026-04-26T14:23:50.818Z</time>
      </trkpt>
      <trkpt lat="49.370932" lon="10.182300">
        <ele>409.366274</ele>
        <time>2026-04-26T14:23:54.840Z</time>
      </trkpt>
      <trkpt lat="49.370754" lon="10.182154">
        <ele>408.254930</ele>
        <time>2026-04-26T14:23:57.825Z</time>
      </trkpt>
      <trkpt lat="49.370589" lon="10.182154">
        <ele>407.346238</ele>
        <time>2026-04-26T14:24:00.249Z</time>
      </trkpt>
      <trkpt lat="49.370533" lon="10.182165">
        <ele>407.035321</ele>
        <time>2026-04-26T14:24:01.077Z</time>
      </trkpt>
      <trkpt lat="49.370426" lon="10.182156">
        <ele>406.445164</ele>
        <time>2026-04-26T14:24:02.643Z</time>
      </trkpt>
      <trkpt lat="49.369884" lon="10.182151">
        <ele>403.460194</ele>
        <time>2026-04-26T14:24:10.539Z</time>
      </trkpt>
      <trkpt lat="49.369351" lon="10.182603">
        <ele>400.572592</ele>
        <time>2026-04-26T14:24:19.498Z</time>
      </trkpt>
      <trkpt lat="49.368729" lon="10.183069">
        <ele>399.004724</ele>
        <time>2026-04-26T14:24:30.129Z</time>
      </trkpt>
      <trkpt lat="49.368465" lon="10.183269">
        <ele>398.337823</ele>
        <time>2026-04-26T14:24:35.154Z</time>
      </trkpt>
      <trkpt lat="49.368130" lon="10.183573">
        <ele>397.456287</ele>
        <time>2026-04-26T14:24:43.082Z</time>
      </trkpt>
      <trkpt lat="49.367864" lon="10.183890">
        <ele>397.003646</ele>
        <time>2026-04-26T14:24:52.151Z</time>
      </trkpt>
      <trkpt lat="49.367807" lon="10.183970">
        <ele>397.247050</ele>
        <time>2026-04-26T14:24:54.418Z</time>
      </trkpt>
      <trkpt lat="49.366762" lon="10.185572">
        <ele>401.901411</ele>
        <time>2026-04-26T14:25:52.251Z</time>
      </trkpt>
      <trkpt lat="49.366430" lon="10.186007">
        <ele>402.467604</ele>
        <time>2026-04-26T14:26:06.387Z</time>
      </trkpt>
      <trkpt lat="49.365879" lon="10.186592">
        <ele>402.400216</ele>
        <time>2026-04-26T14:26:22.475Z</time>
      </trkpt>
      <trkpt lat="49.365612" lon="10.186536">
        <ele>402.373108</ele>
        <time>2026-04-26T14:26:27.652Z</time>
      </trkpt>
      <trkpt lat="49.365444" lon="10.186623">
        <ele>402.355272</ele>
        <time>2026-04-26T14:26:31.036Z</time>
      </trkpt>
      <trkpt lat="49.365335" lon="10.186683">
        <ele>402.343624</ele>
        <time>2026-04-26T14:26:33.222Z</time>
      </trkpt>
      <trkpt lat="49.365243" lon="10.186742">
        <ele>402.333594</ele>
        <time>2026-04-26T14:26:40.134Z</time>
      </trkpt>
      <trkpt lat="49.365181" lon="10.186882">
        <ele>402.322503</ele>
        <time>2026-04-26T14:26:47.813Z</time>
      </trkpt>
      <trkpt lat="49.365224" lon="10.187602">
        <ele>400.676917</ele>
        <time>2026-04-26T14:27:20.533Z</time>
      </trkpt>
      <trkpt lat="49.365065" lon="10.187838">
        <ele>399.682321</ele>
        <time>2026-04-26T14:27:24.040Z</time>
      </trkpt>
      <trkpt lat="49.364856" lon="10.188038">
        <ele>398.574724</ele>
        <time>2026-04-26T14:27:27.878Z</time>
      </trkpt>
      <trkpt lat="49.364507" lon="10.188271">
        <ele>396.863110</ele>
        <time>2026-04-26T14:27:33.678Z</time>
      </trkpt>
      <trkpt lat="49.364390" lon="10.188405">
        <ele>396.206635</ele>
        <time>2026-04-26T14:27:35.852Z</time>
      </trkpt>
      <trkpt lat="49.364322" lon="10.188531">
        <ele>395.727320</ele>
        <time>2026-04-26T14:27:37.423Z</time>
      </trkpt>
      <trkpt lat="49.364269" lon="10.188742">
        <ele>395.064911</ele>
        <time>2026-04-26T14:27:39.566Z</time>
      </trkpt>
      <trkpt lat="49.364351" lon="10.189340">
        <ele>393.146137</ele>
        <time>2026-04-26T14:27:45.261Z</time>
      </trkpt>
      <trkpt lat="49.364291" lon="10.189380">
        <ele>392.811941</ele>
        <time>2026-04-26T14:27:46.190Z</time>
      </trkpt>
      <trkpt lat="49.364285" lon="10.189360">
        <ele>392.738673</ele>
        <time>2026-04-26T14:27:46.392Z</time>
      </trkpt>
      <trkpt lat="49.364244" lon="10.189210">
        <ele>392.197395</ele>
        <time>2026-04-26T14:27:47.913Z</time>
      </trkpt>
      <trkpt lat="49.364234" lon="10.189174">
        <ele>392.067170</ele>
        <time>2026-04-26T14:27:48.279Z</time>
      </trkpt>
      <trkpt lat="49.364165" lon="10.189293">
        <ele>391.537020</ele>
        <time>2026-04-26T14:27:49.779Z</time>
      </trkpt>
      <trkpt lat="49.363867" lon="10.189829">
        <ele>389.192057</ele>
        <time>2026-04-26T14:27:56.529Z</time>
      </trkpt>
      <trkpt lat="49.363785" lon="10.190041">
        <ele>388.371622</ele>
        <time>2026-04-26T14:27:58.934Z</time>
      </trkpt>
      <trkpt lat="49.363660" lon="10.190375">
        <ele>387.089844</ele>
        <time>2026-04-26T14:28:02.732Z</time>
      </trkpt>
      <trkpt lat="49.363110" lon="10.192398">
        <ele>383.176983</ele>
        <time>2026-04-26T14:28:26.804Z</time>
      </trkpt>
      <trkpt lat="49.363098" lon="10.192436">
        <ele>383.127195</ele>
        <time>2026-04-26T14:28:27.373Z</time>
      </trkpt>
      <trkpt lat="49.362905" lon="10.193133">
        <ele>382.234282</ele>
        <time>2026-04-26T14:28:37.522Z</time>
      </trkpt>
      <trkpt lat="49.362829" lon="10.193446">
        <ele>381.840459</ele>
        <time>2026-04-26T14:28:42.166Z</time>
      </trkpt>
      <trkpt lat="49.362784" lon="10.193644">
        <ele>381.499837</ele>
        <time>2026-04-26T14:28:45.159Z</time>
      </trkpt>
      <trkpt lat="49.362521" lon="10.194789">
        <ele>379.339240</ele>
        <time>2026-04-26T14:29:00.264Z</time>
      </trkpt>
      <trkpt lat="49.362444" lon="10.195137">
        <ele>378.685190</ele>
        <time>2026-04-26T14:29:04.118Z</time>
      </trkpt>
      <trkpt lat="49.362389" lon="10.195360">
        <ele>378.260846</ele>
        <time>2026-04-26T14:29:06.520Z</time>
      </trkpt>
      <trkpt lat="49.361942" lon="10.195582">
        <ele>376.977145</ele>
        <time>2026-04-26T14:29:13.592Z</time>
      </trkpt>
      <trkpt lat="49.361436" lon="10.195795">
        <ele>375.376233</ele>
        <time>2026-04-26T14:29:21.502Z</time>
      </trkpt>
      <trkpt lat="49.361093" lon="10.196026">
        <ele>374.222957</ele>
        <time>2026-04-26T14:29:27.220Z</time>
      </trkpt>
      <trkpt lat="49.360971" lon="10.196032">
        <ele>373.847108</ele>
        <time>2026-04-26T14:29:29.101Z</time>
      </trkpt>
      <trkpt lat="49.360619" lon="10.196313">
        <ele>372.625506</ele>
        <time>2026-04-26T14:29:35.570Z</time>
      </trkpt>
      <trkpt lat="49.360453" lon="10.196539">
        <ele>371.942367</ele>
        <time>2026-04-26T14:29:39.782Z</time>
      </trkpt>
      <trkpt lat="49.360148" lon="10.196689">
        <ele>371.636414</ele>
        <time>2026-04-26T14:29:47.460Z</time>
      </trkpt>
      <trkpt lat="49.360074" lon="10.196721">
        <ele>371.838012</ele>
        <time>2026-04-26T14:29:49.568Z</time>
      </trkpt>
      <trkpt lat="49.359958" lon="10.196780">
        <ele>372.158452</ele>
        <time>2026-04-26T14:29:53.172Z</time>
      </trkpt>
      <trkpt lat="49.359917" lon="10.196798">
        <ele>372.270274</ele>
        <time>2026-04-26T14:29:54.487Z</time>
      </trkpt>
      <trkpt lat="49.359806" lon="10.196857">
        <ele>372.578295</ele>
        <time>2026-04-26T14:29:58.131Z</time>
      </trkpt>
      <trkpt lat="49.359411" lon="10.197205">
        <ele>373.772504</ele>
        <time>2026-04-26T14:30:12.795Z</time>
      </trkpt>
      <trkpt lat="49.359048" lon="10.197636">
        <ele>374.975813</ele>
        <time>2026-04-26T14:30:29.333Z</time>
      </trkpt>
      <trkpt lat="49.358719" lon="10.198190">
        <ele>376.253027</ele>
        <time>2026-04-26T14:30:49.268Z</time>
      </trkpt>
      <trkpt lat="49.358341" lon="10.198923">
        <ele>377.825842</ele>
        <time>2026-04-26T14:31:13.292Z</time>
      </trkpt>
      <trkpt lat="49.358090" lon="10.199307">
        <ele>378.741047</ele>
        <time>2026-04-26T14:31:25.596Z</time>
      </trkpt>
      <trkpt lat="49.357709" lon="10.199597">
        <ele>379.839409</ele>
        <time>2026-04-26T14:31:38.485Z</time>
      </trkpt>
      <trkpt lat="49.356345" lon="10.200313">
        <ele>380.647957</ele>
        <time>2026-04-26T14:32:09.266Z</time>
      </trkpt>
      <trkpt lat="49.356238" lon="10.200371">
        <ele>380.644108</ele>
        <time>2026-04-26T14:32:11.617Z</time>
      </trkpt>
      <trkpt lat="49.355328" lon="10.200825">
        <ele>380.458127</ele>
        <time>2026-04-26T14:32:33.056Z</time>
      </trkpt>
      <trkpt lat="49.355075" lon="10.200942">
        <ele>380.343942</ele>
        <time>2026-04-26T14:32:41.053Z</time>
      </trkpt>
      <trkpt lat="49.354914" lon="10.201007">
        <ele>380.272001</ele>
        <time>2026-04-26T14:32:44.884Z</time>
      </trkpt>
      <trkpt lat="49.354885" lon="10.200928">
        <ele>380.246475</ele>
        <time>2026-04-26T14:32:46.214Z</time>
      </trkpt>
      <trkpt lat="49.354318" lon="10.201230">
        <ele>379.987121</ele>
        <time>2026-04-26T14:32:58.647Z</time>
      </trkpt>
      <trkpt lat="49.353603" lon="10.201586">
        <ele>378.993690</ele>
        <time>2026-04-26T14:33:12.427Z</time>
      </trkpt>
      <trkpt lat="49.353256" lon="10.201761">
        <ele>378.265909</ele>
        <time>2026-04-26T14:33:18.880Z</time>
      </trkpt>
      <trkpt lat="49.352739" lon="10.202028">
        <ele>377.179012</ele>
        <time>2026-04-26T14:33:28.363Z</time>
      </trkpt>
      <trkpt lat="49.352493" lon="10.202176">
        <ele>376.652538</ele>
        <time>2026-04-26T14:33:32.885Z</time>
      </trkpt>
      <trkpt lat="49.352144" lon="10.202395">
        <ele>375.791572</ele>
        <time>2026-04-26T14:33:39.226Z</time>
      </trkpt>
      <trkpt lat="49.351985" lon="10.202477">
        <ele>375.356133</ele>
        <time>2026-04-26T14:33:42.042Z</time>
      </trkpt>
      <trkpt lat="49.351670" lon="10.202579">
        <ele>374.520389</ele>
        <time>2026-04-26T14:33:47.481Z</time>
      </trkpt>
      <trkpt lat="49.351601" lon="10.202602">
        <ele>374.337089</ele>
        <time>2026-04-26T14:33:48.681Z</time>
      </trkpt>
      <trkpt lat="49.351487" lon="10.202639">
        <ele>374.034599</ele>
        <time>2026-04-26T14:33:50.677Z</time>
      </trkpt>
      <trkpt lat="49.351132" lon="10.202782">
        <ele>373.081808</ele>
        <time>2026-04-26T14:33:56.991Z</time>
      </trkpt>
      <trkpt lat="49.350883" lon="10.202893">
        <ele>372.408693</ele>
        <time>2026-04-26T14:34:01.322Z</time>
      </trkpt>
      <trkpt lat="49.350443" lon="10.203008">
        <ele>371.374889</ele>
        <time>2026-04-26T14:34:08.662Z</time>
      </trkpt>
      <trkpt lat="49.350324" lon="10.203007">
        <ele>371.178059</ele>
        <time>2026-04-26T14:34:10.612Z</time>
      </trkpt>
      <trkpt lat="49.350273" lon="10.203006">
        <ele>371.093697</ele>
        <time>2026-04-26T14:34:11.459Z</time>
      </trkpt>
      <trkpt lat="49.350241" lon="10.202686">
        <ele>370.744865</ele>
        <time>2026-04-26T14:34:15.017Z</time>
      </trkpt>
      <trkpt lat="49.350193" lon="10.202333">
        <ele>370.356317</ele>
        <time>2026-04-26T14:34:19.110Z</time>
      </trkpt>
      <trkpt lat="49.350133" lon="10.201757">
        <ele>369.727803</ele>
        <time>2026-04-26T14:34:25.917Z</time>
      </trkpt>
      <trkpt lat="49.350120" lon="10.201638">
        <ele>369.597792</ele>
        <time>2026-04-26T14:34:27.364Z</time>
      </trkpt>
      <trkpt lat="49.350097" lon="10.201387">
        <ele>369.324681</ele>
        <time>2026-04-26T14:34:30.432Z</time>
      </trkpt>
      <trkpt lat="49.350080" lon="10.201202">
        <ele>369.123373</ele>
        <time>2026-04-26T14:34:32.719Z</time>
      </trkpt>
      <trkpt lat="49.350082" lon="10.201023">
        <ele>368.930476</ele>
        <time>2026-04-26T14:34:34.934Z</time>
      </trkpt>
      <trkpt lat="49.350217" lon="10.200512">
        <ele>368.867417</ele>
        <time>2026-04-26T14:34:42.542Z</time>
      </trkpt>
      <trkpt lat="49.350311" lon="10.200227">
        <ele>369.169470</ele>
        <time>2026-04-26T14:34:47.712Z</time>
      </trkpt>
      <trkpt lat="49.350416" lon="10.200032">
        <ele>369.408686</ele>
        <time>2026-04-26T14:34:52.211Z</time>
      </trkpt>
      <trkpt lat="49.350503" lon="10.199934">
        <ele>369.565316</ele>
        <time>2026-04-26T14:34:55.225Z</time>
      </trkpt>
      <trkpt lat="49.350716" lon="10.199783">
        <ele>369.905859</ele>
        <time>2026-04-26T14:35:02.159Z</time>
      </trkpt>
      <trkpt lat="49.350950" lon="10.199612">
        <ele>370.282029</ele>
        <time>2026-04-26T14:35:10.065Z</time>
      </trkpt>
      <trkpt lat="49.351182" lon="10.199377">
        <ele>370.685477</ele>
        <time>2026-04-26T14:35:18.733Z</time>
      </trkpt>
      <trkpt lat="49.351231" lon="10.199281">
        <ele>370.800793</ele>
        <time>2026-04-26T14:35:21.212Z</time>
      </trkpt>
      <trkpt lat="49.351250" lon="10.199053">
        <ele>371.018130</ele>
        <time>2026-04-26T14:35:25.931Z</time>
      </trkpt>
      <trkpt lat="49.351232" lon="10.198875">
        <ele>371.188450</ele>
        <time>2026-04-26T14:35:29.668Z</time>
      </trkpt>
      <trkpt lat="49.350943" lon="10.196974">
        <ele>374.021707</ele>
        <time>2026-04-26T14:36:10.616Z</time>
      </trkpt>
      <trkpt lat="49.350926" lon="10.196849">
        <ele>374.208528</ele>
        <time>2026-04-26T14:36:13.165Z</time>
      </trkpt>
      <trkpt lat="49.350840" lon="10.196579">
        <ele>374.648238</ele>
        <time>2026-04-26T14:36:19.105Z</time>
      </trkpt>
      <trkpt lat="49.350688" lon="10.195596">
        <ele>375.483012</ele>
        <time>2026-04-26T14:36:38.375Z</time>
      </trkpt>
      <trkpt lat="49.350661" lon="10.195293">
        <ele>375.594517</ele>
        <time>2026-04-26T14:36:44.057Z</time>
      </trkpt>
      <trkpt lat="49.350661" lon="10.194752">
        <ele>375.791771</ele>
        <time>2026-04-26T14:36:53.134Z</time>
      </trkpt>
      <trkpt lat="49.350649" lon="10.193598">
        <ele>376.212585</ele>
        <time>2026-04-26T14:37:08.887Z</time>
      </trkpt>
      <trkpt lat="49.350055" lon="10.193972">
        <ele>376.357262</ele>
        <time>2026-04-26T14:37:21.915Z</time>
      </trkpt>
      <trkpt lat="49.349579" lon="10.194214">
        <ele>376.434207</ele>
        <time>2026-04-26T14:37:32.464Z</time>
      </trkpt>
      <trkpt lat="49.349504" lon="10.194234">
        <ele>376.445888</ele>
        <time>2026-04-26T14:37:34.131Z</time>
      </trkpt>
      <trkpt lat="49.349196" lon="10.194253">
        <ele>376.493190</ele>
        <time>2026-04-26T14:37:41.714Z</time>
      </trkpt>
      <trkpt lat="49.347877" lon="10.194222">
        <ele>376.514061</ele>
        <time>2026-04-26T14:38:17.974Z</time>
      </trkpt>
      <trkpt lat="49.347731" lon="10.194268">
        <ele>376.507983</ele>
        <time>2026-04-26T14:38:21.331Z</time>
      </trkpt>
      <trkpt lat="49.346862" lon="10.194698">
        <ele>376.045292</ele>
        <time>2026-04-26T14:38:38.165Z</time>
      </trkpt>
      <trkpt lat="49.346681" lon="10.194749">
        <ele>375.642675</ele>
        <time>2026-04-26T14:38:41.247Z</time>
      </trkpt>
      <trkpt lat="49.346591" lon="10.194774">
        <ele>375.442570</ele>
        <time>2026-04-26T14:38:42.758Z</time>
      </trkpt>
      <trkpt lat="49.346184" lon="10.194791">
        <ele>374.551787</ele>
        <time>2026-04-26T14:38:49.528Z</time>
      </trkpt>
      <trkpt lat="49.344123" lon="10.194611">
        <ele>370.774980</ele>
        <time>2026-04-26T14:39:25.514Z</time>
      </trkpt>
      <trkpt lat="49.343887" lon="10.194546">
        <ele>370.405085</ele>
        <time>2026-04-26T14:39:30.054Z</time>
      </trkpt>
      <trkpt lat="49.343790" lon="10.194474">
        <ele>370.238862</ele>
        <time>2026-04-26T14:39:32.172Z</time>
      </trkpt>
      <trkpt lat="49.343616" lon="10.194465">
        <ele>369.970278</ele>
        <time>2026-04-26T14:39:35.658Z</time>
      </trkpt>
      <trkpt lat="49.343285" lon="10.194523">
        <ele>369.880429</ele>
        <time>2026-04-26T14:39:42.665Z</time>
      </trkpt>
      <trkpt lat="49.343033" lon="10.194512">
        <ele>370.019223</ele>
        <time>2026-04-26T14:39:48.350Z</time>
      </trkpt>
      <trkpt lat="49.340156" lon="10.194254">
        <ele>371.992688</ele>
        <time>2026-04-26T14:41:02.967Z</time>
      </trkpt>
      <trkpt lat="49.339134" lon="10.194130">
        <ele>372.443422</ele>
        <time>2026-04-26T14:41:27.160Z</time>
      </trkpt>
      <trkpt lat="49.338200" lon="10.194073">
        <ele>372.738883</ele>
        <time>2026-04-26T14:41:48.021Z</time>
      </trkpt>
      <trkpt lat="49.336768" lon="10.193905">
        <ele>374.106076</ele>
        <time>2026-04-26T14:42:25.356Z</time>
      </trkpt>
      <trkpt lat="49.336150" lon="10.193864">
        <ele>374.625849</ele>
        <time>2026-04-26T14:42:43.239Z</time>
      </trkpt>
      <trkpt lat="49.335246" lon="10.193690">
        <ele>374.964588</ele>
        <time>2026-04-26T14:43:06.732Z</time>
      </trkpt>
      <trkpt lat="49.333837" lon="10.193532">
        <ele>375.247056</ele>
        <time>2026-04-26T14:43:35.158Z</time>
      </trkpt>
      <trkpt lat="49.331210" lon="10.193076">
        <ele>375.817496</ele>
        <time>2026-04-26T14:44:38.415Z</time>
      </trkpt>
      <trkpt lat="49.330596" lon="10.192970">
        <ele>375.850081</ele>
        <time>2026-04-26T14:44:52.800Z</time>
      </trkpt>
      <trkpt lat="49.330505" lon="10.193015">
        <ele>375.831926</ele>
        <time>2026-04-26T14:44:54.894Z</time>
      </trkpt>
      <trkpt lat="49.330369" lon="10.193059">
        <ele>375.805534</ele>
        <time>2026-04-26T14:44:57.869Z</time>
      </trkpt>
      <trkpt lat="49.329277" lon="10.192966">
        <ele>375.597862</ele>
        <time>2026-04-26T14:45:20.404Z</time>
      </trkpt>
      <trkpt lat="49.329166" lon="10.192960">
        <ele>375.576772</ele>
        <time>2026-04-26T14:45:22.687Z</time>
      </trkpt>
      <trkpt lat="49.328671" lon="10.192924">
        <ele>375.905686</ele>
        <time>2026-04-26T14:45:33.571Z</time>
      </trkpt>
      <trkpt lat="49.325874" lon="10.192691">
        <ele>378.258116</ele>
        <time>2026-04-26T14:46:47.792Z</time>
      </trkpt>
      <trkpt lat="49.325114" lon="10.192566">
        <ele>378.851072</ele>
        <time>2026-04-26T14:47:06.782Z</time>
      </trkpt>
      <trkpt lat="49.324334" lon="10.192337">
        <ele>379.356789</ele>
        <time>2026-04-26T14:47:26.491Z</time>
      </trkpt>
      <trkpt lat="49.323664" lon="10.192045">
        <ele>379.736972</ele>
        <time>2026-04-26T14:47:43.887Z</time>
      </trkpt>
      <trkpt lat="49.319123" lon="10.189641">
        <ele>380.479711</ele>
        <time>2026-04-26T14:49:33.822Z</time>
      </trkpt>
      <trkpt lat="49.318722" lon="10.189336">
        <ele>380.505024</ele>
        <time>2026-04-26T14:49:43.443Z</time>
      </trkpt>
      <trkpt lat="49.318529" lon="10.189134">
        <ele>380.486520</ele>
        <time>2026-04-26T14:49:48.421Z</time>
      </trkpt>
      <trkpt lat="49.318272" lon="10.188845">
        <ele>380.460934</ele>
        <time>2026-04-26T14:49:55.170Z</time>
      </trkpt>
      <trkpt lat="49.318178" lon="10.188618">
        <ele>380.446859</ele>
        <time>2026-04-26T14:49:58.831Z</time>
      </trkpt>
      <trkpt lat="49.318132" lon="10.188517">
        <ele>380.440410</ele>
        <time>2026-04-26T14:50:00.528Z</time>
      </trkpt>
      <trkpt lat="49.317463" lon="10.187781">
        <ele>380.374307</ele>
        <time>2026-04-26T14:50:18.370Z</time>
      </trkpt>
      <trkpt lat="49.317217" lon="10.187544">
        <ele>380.431146</ele>
        <time>2026-04-26T14:50:25.212Z</time>
      </trkpt>
      <trkpt lat="49.316854" lon="10.187271">
        <ele>380.666224</ele>
        <time>2026-04-26T14:50:34.965Z</time>
      </trkpt>
      <trkpt lat="49.316715" lon="10.187192">
        <ele>380.752419</ele>
        <time>2026-04-26T14:50:38.592Z</time>
      </trkpt>
      <trkpt lat="49.316202" lon="10.186975">
        <ele>381.061850</ele>
        <time>2026-04-26T14:50:52.188Z</time>
      </trkpt>
      <trkpt lat="49.315732" lon="10.186868">
        <ele>381.338138</ele>
        <time>2026-04-26T14:51:04.830Z</time>
      </trkpt>
      <trkpt lat="49.314618" lon="10.186877">
        <ele>381.237375</ele>
        <time>2026-04-26T14:51:30.638Z</time>
      </trkpt>
      <trkpt lat="49.314447" lon="10.186907">
        <ele>381.208144</ele>
        <time>2026-04-26T14:51:34.347Z</time>
      </trkpt>
      <trkpt lat="49.314431" lon="10.187366">
        <ele>381.157253</ele>
        <time>2026-04-26T14:51:40.515Z</time>
      </trkpt>
      <trkpt lat="49.314340" lon="10.187581">
        <ele>381.128872</ele>
        <time>2026-04-26T14:51:43.766Z</time>
      </trkpt>
      <trkpt lat="49.313987" lon="10.187921">
        <ele>381.008845</ele>
        <time>2026-04-26T14:51:51.563Z</time>
      </trkpt>
      <trkpt lat="49.313608" lon="10.188359">
        <ele>380.836039</ele>
        <time>2026-04-26T14:52:00.251Z</time>
      </trkpt>
      <trkpt lat="49.313425" lon="10.188529">
        <ele>380.758128</ele>
        <time>2026-04-26T14:52:04.466Z</time>
      </trkpt>
      <trkpt lat="49.313266" lon="10.188578">
        <ele>380.699068</ele>
        <time>2026-04-26T14:52:07.846Z</time>
      </trkpt>
      <trkpt lat="49.313049" lon="10.188552">
        <ele>380.619803</ele>
        <time>2026-04-26T14:52:12.558Z</time>
      </trkpt>
      <trkpt lat="49.312514" lon="10.188238">
        <ele>380.574050</ele>
        <time>2026-04-26T14:52:26.598Z</time>
      </trkpt>
      <trkpt lat="49.312347" lon="10.188175">
        <ele>380.803608</ele>
        <time>2026-04-26T14:52:31.530Z</time>
      </trkpt>
      <trkpt lat="49.312400" lon="10.188071">
        <ele>380.918480</ele>
        <time>2026-04-26T14:52:34.157Z</time>
      </trkpt>
      <trkpt lat="49.312801" lon="10.186729">
        <ele>382.203130</ele>
        <time>2026-04-26T14:53:03.611Z</time>
      </trkpt>
      <trkpt lat="49.312824" lon="10.186666">
        <ele>382.265964</ele>
        <time>2026-04-26T14:53:04.970Z</time>
      </trkpt>
      <trkpt lat="49.312889" lon="10.186454">
        <ele>382.469832</ele>
        <time>2026-04-26T14:53:09.334Z</time>
      </trkpt>
      <trkpt lat="49.312911" lon="10.186386">
        <ele>382.535892</ele>
        <time>2026-04-26T14:53:10.659Z</time>
      </trkpt>
      <trkpt lat="49.312622" lon="10.186205">
        <ele>382.793373</ele>
        <time>2026-04-26T14:53:18.299Z</time>
      </trkpt>
      <trkpt lat="49.312213" lon="10.185814">
        <ele>382.466844</ele>
        <time>2026-04-26T14:53:28.089Z</time>
      </trkpt>
      <trkpt lat="49.311651" lon="10.185128">
        <ele>381.980211</ele>
        <time>2026-04-26T14:53:41.395Z</time>
      </trkpt>
      <trkpt lat="49.311467" lon="10.184840">
        <ele>381.802093</ele>
        <time>2026-04-26T14:53:46.231Z</time>
      </trkpt>
      <trkpt lat="49.311158" lon="10.184300">
        <ele>381.741223</ele>
        <time>2026-04-26T14:53:55.548Z</time>
      </trkpt>
      <trkpt lat="49.310947" lon="10.183930">
        <ele>381.911949</ele>
        <time>2026-04-26T14:54:02.943Z</time>
      </trkpt>
      <trkpt lat="49.310558" lon="10.183345">
        <ele>382.202160</ele>
        <time>2026-04-26T14:54:17.242Z</time>
      </trkpt>
      <trkpt lat="49.310307" lon="10.183072">
        <ele>382.366076</ele>
        <time>2026-04-26T14:54:25.428Z</time>
      </trkpt>
      <trkpt lat="49.309837" lon="10.182666">
        <ele>382.608023</ele>
        <time>2026-04-26T14:54:40.106Z</time>
      </trkpt>
      <trkpt lat="49.309448" lon="10.182434">
        <ele>382.679568</ele>
        <time>2026-04-26T14:54:50.511Z</time>
      </trkpt>
      <trkpt lat="49.309346" lon="10.182405">
        <ele>382.697351</ele>
        <time>2026-04-26T14:54:52.850Z</time>
      </trkpt>
      <trkpt lat="49.309179" lon="10.182358">
        <ele>382.726456</ele>
        <time>2026-04-26T14:54:56.544Z</time>
      </trkpt>
      <trkpt lat="49.308160" lon="10.182332">
        <ele>382.900404</ele>
        <time>2026-04-26T14:55:18.185Z</time>
      </trkpt>
      <trkpt lat="49.307263" lon="10.182350">
        <ele>383.035961</ele>
        <time>2026-04-26T14:55:38.282Z</time>
      </trkpt>
      <trkpt lat="49.307106" lon="10.182227">
        <ele>383.062601</ele>
        <time>2026-04-26T14:55:42.610Z</time>
      </trkpt>
      <trkpt lat="49.307047" lon="10.182199">
        <ele>383.071934</ele>
        <time>2026-04-26T14:55:44.355Z</time>
      </trkpt>
      <trkpt lat="49.306085" lon="10.182239">
        <ele>383.141972</ele>
        <time>2026-04-26T14:56:09.170Z</time>
      </trkpt>
      <trkpt lat="49.305661" lon="10.182244">
        <ele>383.110891</ele>
        <time>2026-04-26T14:56:19.776Z</time>
      </trkpt>
      <trkpt lat="49.304961" lon="10.182277">
        <ele>383.059555</ele>
        <time>2026-04-26T14:56:36.571Z</time>
      </trkpt>
      <trkpt lat="49.304455" lon="10.182372">
        <ele>382.970406</ele>
        <time>2026-04-26T14:56:48.455Z</time>
      </trkpt>
      <trkpt lat="49.304018" lon="10.182434">
        <ele>382.805642</ele>
        <time>2026-04-26T14:57:04.025Z</time>
      </trkpt>
      <trkpt lat="49.303956" lon="10.182400">
        <ele>382.780922</ele>
        <time>2026-04-26T14:57:06.318Z</time>
      </trkpt>
      <trkpt lat="49.303900" lon="10.182292">
        <ele>382.747144</ele>
        <time>2026-04-26T14:57:09.477Z</time>
      </trkpt>
      <trkpt lat="49.303324" lon="10.180634">
        <ele>382.501141</ele>
        <time>2026-04-26T14:57:52.898Z</time>
      </trkpt>
      <trkpt lat="49.303221" lon="10.180395">
        <ele>382.638673</ele>
        <time>2026-04-26T14:57:59.910Z</time>
      </trkpt>
      <trkpt lat="49.303072" lon="10.180188">
        <ele>382.786692</ele>
        <time>2026-04-26T14:58:07.581Z</time>
      </trkpt>
      <trkpt lat="49.302634" lon="10.179596">
        <ele>383.216532</ele>
        <time>2026-04-26T14:58:30.860Z</time>
      </trkpt>
      <trkpt lat="49.302511" lon="10.179507">
        <ele>383.316663</ele>
        <time>2026-04-26T14:58:36.470Z</time>
      </trkpt>
      <trkpt lat="49.301419" lon="10.179021">
        <ele>384.905694</ele>
        <time>2026-04-26T14:59:26.293Z</time>
      </trkpt>
      <trkpt lat="49.301631" lon="10.177987">
        <ele>386.258374</ele>
        <time>2026-04-26T14:59:49.050Z</time>
      </trkpt>
      <trkpt lat="49.301727" lon="10.177445">
        <ele>386.959278</ele>
        <time>2026-04-26T15:00:00.634Z</time>
      </trkpt>
      <trkpt lat="49.301758" lon="10.177127">
        <ele>387.234594</ele>
        <time>2026-04-26T15:00:07.103Z</time>
      </trkpt>
      <trkpt lat="49.301756" lon="10.176592">
        <ele>387.543699</ele>
        <time>2026-04-26T15:00:17.527Z</time>
      </trkpt>
      <trkpt lat="49.301606" lon="10.175000">
        <ele>388.473041</ele>
        <time>2026-04-26T15:00:44.572Z</time>
      </trkpt>
      <trkpt lat="49.301592" lon="10.174236">
        <ele>388.856468</ele>
        <time>2026-04-26T15:00:55.980Z</time>
      </trkpt>
      <trkpt lat="49.301616" lon="10.173841">
        <ele>389.017301</ele>
        <time>2026-04-26T15:01:02.079Z</time>
      </trkpt>
      <trkpt lat="49.301724" lon="10.173246">
        <ele>389.267693</ele>
        <time>2026-04-26T15:01:11.874Z</time>
      </trkpt>
      <trkpt lat="49.301927" lon="10.172493">
        <ele>389.598030</ele>
        <time>2026-04-26T15:01:25.703Z</time>
      </trkpt>
      <trkpt lat="49.302375" lon="10.170537">
        <ele>391.474215</ele>
        <time>2026-04-26T15:02:04.645Z</time>
      </trkpt>
      <trkpt lat="49.302390" lon="10.170471">
        <ele>391.551416</ele>
        <time>2026-04-26T15:02:06.044Z</time>
      </trkpt>
      <trkpt lat="49.302598" lon="10.169816">
        <ele>392.356127</ele>
        <time>2026-04-26T15:02:20.901Z</time>
      </trkpt>
      <trkpt lat="49.302913" lon="10.169172">
        <ele>393.341803</ele>
        <time>2026-04-26T15:02:37.331Z</time>
      </trkpt>
      <trkpt lat="49.303018" lon="10.169010">
        <ele>393.661581</ele>
        <time>2026-04-26T15:02:42.104Z</time>
      </trkpt>
      <trkpt lat="49.303119" lon="10.168814">
        <ele>394.011318</ele>
        <time>2026-04-26T15:02:47.422Z</time>
      </trkpt>
      <trkpt lat="49.303308" lon="10.168490">
        <ele>394.619928</ele>
        <time>2026-04-26T15:02:56.710Z</time>
      </trkpt>
      <trkpt lat="49.303519" lon="10.167991">
        <ele>395.452541</ele>
        <time>2026-04-26T15:03:09.775Z</time>
      </trkpt>
      <trkpt lat="49.304028" lon="10.166809">
        <ele>397.073970</ele>
        <time>2026-04-26T15:03:36.661Z</time>
      </trkpt>
      <trkpt lat="49.303998" lon="10.166512">
        <ele>397.273951</ele>
        <time>2026-04-26T15:03:41.697Z</time>
      </trkpt>
      <trkpt lat="49.304000" lon="10.166003">
        <ele>397.612645</ele>
        <time>2026-04-26T15:03:50.470Z</time>
      </trkpt>
      <trkpt lat="49.303989" lon="10.165579">
        <ele>397.894998</ele>
        <time>2026-04-26T15:03:57.868Z</time>
      </trkpt>
      <trkpt lat="49.303938" lon="10.165359">
        <ele>398.050362</ele>
        <time>2026-04-26T15:04:01.960Z</time>
      </trkpt>
      <trkpt lat="49.303741" lon="10.165010">
        <ele>398.357516</ele>
        <time>2026-04-26T15:04:09.591Z</time>
      </trkpt>
      <trkpt lat="49.303687" lon="10.164838">
        <ele>398.484540</ele>
        <time>2026-04-26T15:04:12.622Z</time>
      </trkpt>
      <trkpt lat="49.303491" lon="10.164213">
        <ele>398.111791</ele>
        <time>2026-04-26T15:04:22.854Z</time>
      </trkpt>
      <trkpt lat="49.303419" lon="10.164151">
        <ele>398.003010</ele>
        <time>2026-04-26T15:04:24.645Z</time>
      </trkpt>
      <trkpt lat="49.303311" lon="10.164120">
        <ele>397.858262</ele>
        <time>2026-04-26T15:04:26.943Z</time>
      </trkpt>
      <trkpt lat="49.303043" lon="10.164236">
        <ele>397.491411</ele>
        <time>2026-04-26T15:04:32.623Z</time>
      </trkpt>
      <trkpt lat="49.302906" lon="10.164270">
        <ele>397.308581</ele>
        <time>2026-04-26T15:04:35.355Z</time>
      </trkpt>
      <trkpt lat="49.302837" lon="10.164248">
        <ele>397.215738</ele>
        <time>2026-04-26T15:04:36.728Z</time>
      </trkpt>
      <trkpt lat="49.302742" lon="10.164349">
        <ele>397.063454</ele>
        <time>2026-04-26T15:04:38.853Z</time>
      </trkpt>
      <trkpt lat="49.302376" lon="10.164580">
        <ele>396.542055</ele>
        <time>2026-04-26T15:04:45.621Z</time>
      </trkpt>
      <trkpt lat="49.301258" lon="10.165146">
        <ele>393.719526</ele>
        <time>2026-04-26T15:05:04.446Z</time>
      </trkpt>
      <trkpt lat="49.300897" lon="10.165381">
        <ele>392.664999</ele>
        <time>2026-04-26T15:05:11.071Z</time>
      </trkpt>
      <trkpt lat="49.300508" lon="10.165579">
        <ele>391.562907</ele>
        <time>2026-04-26T15:05:18.341Z</time>
      </trkpt>
      <trkpt lat="49.300046" lon="10.165708">
        <ele>391.134475</ele>
        <time>2026-04-26T15:05:27.216Z</time>
      </trkpt>
      <trkpt lat="49.299620" lon="10.165718">
        <ele>390.877274</ele>
        <time>2026-04-26T15:05:35.834Z</time>
      </trkpt>
      <trkpt lat="49.298677" lon="10.165717">
        <ele>390.307996</ele>
        <time>2026-04-26T15:05:56.958Z</time>
      </trkpt>
      <trkpt lat="49.298529" lon="10.165690">
        <ele>390.163976</ele>
        <time>2026-04-26T15:06:00.090Z</time>
      </trkpt>
      <trkpt lat="49.298359" lon="10.165691">
        <ele>389.984488</ele>
        <time>2026-04-26T15:06:03.578Z</time>
      </trkpt>
      <trkpt lat="49.298271" lon="10.165669">
        <ele>389.890350</ele>
        <time>2026-04-26T15:06:05.420Z</time>
      </trkpt>
      <trkpt lat="49.296060" lon="10.166105">
        <ele>387.924970</ele>
        <time>2026-04-26T15:06:46.979Z</time>
      </trkpt>
      <trkpt lat="49.295826" lon="10.166132">
        <ele>387.789787</ele>
        <time>2026-04-26T15:06:51.619Z</time>
      </trkpt>
      <trkpt lat="49.295727" lon="10.166076">
        <ele>387.728998</ele>
        <time>2026-04-26T15:06:53.766Z</time>
      </trkpt>
      <trkpt lat="49.295663" lon="10.166134">
        <ele>387.686172</ele>
        <time>2026-04-26T15:06:55.319Z</time>
      </trkpt>
      <trkpt lat="49.295617" lon="10.166186">
        <ele>387.653249</ele>
        <time>2026-04-26T15:06:56.513Z</time>
      </trkpt>
      <trkpt lat="49.295697" lon="10.166318">
        <ele>387.585550</ele>
        <time>2026-04-26T15:06:59.044Z</time>
      </trkpt>
      <trkpt lat="49.295745" lon="10.166547">
        <ele>387.495182</ele>
        <time>2026-04-26T15:07:02.531Z</time>
      </trkpt>
      <trkpt lat="49.295752" lon="10.166666">
        <ele>387.450293</ele>
        <time>2026-04-26T15:07:04.346Z</time>
      </trkpt>
      <trkpt lat="49.295728" lon="10.166715">
        <ele>387.427270</ele>
        <time>2026-04-26T15:07:05.292Z</time>
      </trkpt>
      <trkpt lat="49.294772" lon="10.167146">
        <ele>388.534879</ele>
        <time>2026-04-26T15:07:31.364Z</time>
      </trkpt>
      <trkpt lat="49.294734" lon="10.167412">
        <ele>388.775436</ele>
        <time>2026-04-26T15:07:39.162Z</time>
      </trkpt>
      <trkpt lat="49.294969" lon="10.168497">
        <ele>389.785403</ele>
        <time>2026-04-26T15:08:12.667Z</time>
      </trkpt>
      <trkpt lat="49.295060" lon="10.169073">
        <ele>390.279799</ele>
        <time>2026-04-26T15:08:30.230Z</time>
      </trkpt>
      <trkpt lat="49.295032" lon="10.170389">
        <ele>391.377437</ele>
        <time>2026-04-26T15:09:07.549Z</time>
      </trkpt>
      <trkpt lat="49.295051" lon="10.171548">
        <ele>392.070745</ele>
        <time>2026-04-26T15:09:36.790Z</time>
      </trkpt>
      <trkpt lat="49.295041" lon="10.172190">
        <ele>392.029005</ele>
        <time>2026-04-26T15:09:51.895Z</time>
      </trkpt>
      <trkpt lat="49.295100" lon="10.172537">
        <ele>392.005698</ele>
        <time>2026-04-26T15:10:00.389Z</time>
      </trkpt>
      <trkpt lat="49.295350" lon="10.173255">
        <ele>391.952796</ele>
        <time>2026-04-26T15:10:19.678Z</time>
      </trkpt>
      <trkpt lat="49.295472" lon="10.174009">
        <ele>391.936642</ele>
        <time>2026-04-26T15:10:37.960Z</time>
      </trkpt>
      <trkpt lat="49.295577" lon="10.174411">
        <ele>392.016574</ele>
        <time>2026-04-26T15:10:48.128Z</time>
      </trkpt>
      <trkpt lat="49.295613" lon="10.174852">
        <ele>392.098609</ele>
        <time>2026-04-26T15:10:58.571Z</time>
      </trkpt>
      <trkpt lat="49.295655" lon="10.175359">
        <ele>392.192944</ele>
        <time>2026-04-26T15:11:10.719Z</time>
      </trkpt>
      <trkpt lat="49.295621" lon="10.175608">
        <ele>392.239901</ele>
        <time>2026-04-26T15:11:16.849Z</time>
      </trkpt>
      <trkpt lat="49.295470" lon="10.176148">
        <ele>392.348351</ele>
        <time>2026-04-26T15:11:31.422Z</time>
      </trkpt>
      <trkpt lat="49.295404" lon="10.176492">
        <ele>392.414537</ele>
        <time>2026-04-26T15:11:40.924Z</time>
      </trkpt>
      <trkpt lat="49.295383" lon="10.176856">
        <ele>392.958372</ele>
        <time>2026-04-26T15:11:51.230Z</time>
      </trkpt>
      <trkpt lat="49.295431" lon="10.177812">
        <ele>394.502521</ele>
        <time>2026-04-26T15:12:21.272Z</time>
      </trkpt>
      <trkpt lat="49.295431" lon="10.178885">
        <ele>396.230536</ele>
        <time>2026-04-26T15:12:56.710Z</time>
      </trkpt>
      <trkpt lat="49.295462" lon="10.179123">
        <ele>396.621393</ele>
        <time>2026-04-26T15:13:04.394Z</time>
      </trkpt>
      <trkpt lat="49.295593" lon="10.179700">
        <ele>397.126578</ele>
        <time>2026-04-26T15:13:23.008Z</time>
      </trkpt>
      <trkpt lat="49.295491" lon="10.180779">
        <ele>397.751674</ele>
        <time>2026-04-26T15:13:52.335Z</time>
      </trkpt>
      <trkpt lat="49.295394" lon="10.181436">
        <ele>398.137889</ele>
        <time>2026-04-26T15:14:07.519Z</time>
      </trkpt>
      <trkpt lat="49.295288" lon="10.181907">
        <ele>398.423559</ele>
        <time>2026-04-26T15:14:19.000Z</time>
      </trkpt>
      <trkpt lat="49.295053" lon="10.182522">
        <ele>399.838872</ele>
        <time>2026-04-26T15:14:37.109Z</time>
      </trkpt>
      <trkpt lat="49.294869" lon="10.182528">
        <ele>400.419307</ele>
        <time>2026-04-26T15:14:45.024Z</time>
      </trkpt>
      <trkpt lat="49.294358" lon="10.182432">
        <ele>402.042961</ele>
        <time>2026-04-26T15:15:09.643Z</time>
      </trkpt>
      <trkpt lat="49.294173" lon="10.182354">
        <ele>402.648074</ele>
        <time>2026-04-26T15:15:19.932Z</time>
      </trkpt>
      <trkpt lat="49.293608" lon="10.181764">
        <ele>405.591701</ele>
        <time>2026-04-26T15:16:02.892Z</time>
      </trkpt>
      <trkpt lat="49.293370" lon="10.181413">
        <ele>407.825256</ele>
        <time>2026-04-26T15:16:25.643Z</time>
      </trkpt>
      <trkpt lat="49.292909" lon="10.180467">
        <ele>413.034576</ele>
        <time>2026-04-26T15:17:17.892Z</time>
      </trkpt>
      <trkpt lat="49.292835" lon="10.180366">
        <ele>413.704671</ele>
        <time>2026-04-26T15:17:24.343Z</time>
      </trkpt>
      <trkpt lat="49.292667" lon="10.180223">
        <ele>415.004342</ele>
        <time>2026-04-26T15:17:36.547Z</time>
      </trkpt>
      <trkpt lat="49.292159" lon="10.179915">
        <ele>417.401917</ele>
        <time>2026-04-26T15:18:08.716Z</time>
      </trkpt>
      <trkpt lat="49.291585" lon="10.179485">
        <ele>419.404440</ele>
        <time>2026-04-26T15:18:40.905Z</time>
      </trkpt>
      <trkpt lat="49.290778" lon="10.180238">
        <ele>422.081144</ele>
        <time>2026-04-26T15:19:22.086Z</time>
      </trkpt>
      <trkpt lat="49.290189" lon="10.180852">
        <ele>422.890297</ele>
        <time>2026-04-26T15:19:51.103Z</time>
      </trkpt>
      <trkpt lat="49.290054" lon="10.181127">
        <ele>423.145332</ele>
        <time>2026-04-26T15:20:00.403Z</time>
      </trkpt>
      <trkpt lat="49.289868" lon="10.181668">
        <ele>423.598482</ele>
        <time>2026-04-26T15:20:17.421Z</time>
      </trkpt>
      <trkpt lat="49.289676" lon="10.182097">
        <ele>423.924629</ele>
        <time>2026-04-26T15:20:32.013Z</time>
      </trkpt>
      <trkpt lat="49.289618" lon="10.182142">
        <ele>423.791891</ele>
        <time>2026-04-26T15:20:34.754Z</time>
      </trkpt>
      <trkpt lat="49.289441" lon="10.182176">
        <ele>423.427630</ele>
        <time>2026-04-26T15:20:42.084Z</time>
      </trkpt>
      <trkpt lat="49.288852" lon="10.182158">
        <ele>422.224648</ele>
        <time>2026-04-26T15:21:03.015Z</time>
      </trkpt>
      <trkpt lat="49.288463" lon="10.182300">
        <ele>421.408102</ele>
        <time>2026-04-26T15:21:15.348Z</time>
      </trkpt>
      <trkpt lat="49.288480" lon="10.182436">
        <ele>421.223667</ele>
        <time>2026-04-26T15:21:16.873Z</time>
      </trkpt>
      <trkpt lat="49.288335" lon="10.183487">
        <ele>418.819140</ele>
        <time>2026-04-26T15:21:27.914Z</time>
      </trkpt>
      <trkpt lat="49.288267" lon="10.184261">
        <ele>415.741241</ele>
        <time>2026-04-26T15:21:35.531Z</time>
      </trkpt>
      <trkpt lat="49.288256" lon="10.184380">
        <ele>415.267572</ele>
        <time>2026-04-26T15:21:36.696Z</time>
      </trkpt>
      <trkpt lat="49.288276" lon="10.184691">
        <ele>414.035970</ele>
        <time>2026-04-26T15:21:39.752Z</time>
      </trkpt>
      <trkpt lat="49.288541" lon="10.185797">
        <ele>409.402553</ele>
        <time>2026-04-26T15:21:51.516Z</time>
      </trkpt>
      <trkpt lat="49.288564" lon="10.186046">
        <ele>408.748483</ele>
        <time>2026-04-26T15:21:54.114Z</time>
      </trkpt>
      <trkpt lat="49.288533" lon="10.186330">
        <ele>407.999573</ele>
        <time>2026-04-26T15:21:57.136Z</time>
      </trkpt>
      <trkpt lat="49.288115" lon="10.188182">
        <ele>402.902568</ele>
        <time>2026-04-26T15:22:18.559Z</time>
      </trkpt>
      <trkpt lat="49.287769" lon="10.189541">
        <ele>399.813681</ele>
        <time>2026-04-26T15:22:34.791Z</time>
      </trkpt>
      <trkpt lat="49.287659" lon="10.189683">
        <ele>399.369018</ele>
        <time>2026-04-26T15:22:37.243Z</time>
      </trkpt>
      <trkpt lat="49.288224" lon="10.191255">
        <ele>396.084864</ele>
        <time>2026-04-26T15:22:57.466Z</time>
      </trkpt>
      <trkpt lat="49.288333" lon="10.191454">
        <ele>395.748169</ele>
        <time>2026-04-26T15:23:00.489Z</time>
      </trkpt>
      <trkpt lat="49.288977" lon="10.192412">
        <ele>393.965688</ele>
        <time>2026-04-26T15:23:17.126Z</time>
      </trkpt>
      <trkpt lat="49.289307" lon="10.192902">
        <ele>393.085285</ele>
        <time>2026-04-26T15:23:26.167Z</time>
      </trkpt>
      <trkpt lat="49.289554" lon="10.193409">
        <ele>392.688541</ele>
        <time>2026-04-26T15:23:34.538Z</time>
      </trkpt>
      <trkpt lat="49.289592" lon="10.193717">
        <ele>392.492017</ele>
        <time>2026-04-26T15:23:38.733Z</time>
      </trkpt>
      <trkpt lat="49.289683" lon="10.195135">
        <ele>391.598716</ele>
        <time>2026-04-26T15:23:57.690Z</time>
      </trkpt>
      <trkpt lat="49.289808" lon="10.196432">
        <ele>391.198170</ele>
        <time>2026-04-26T15:24:15.361Z</time>
      </trkpt>
      <trkpt lat="49.289960" lon="10.197807">
        <ele>390.928083</ele>
        <time>2026-04-26T15:24:34.563Z</time>
      </trkpt>
      <trkpt lat="49.289979" lon="10.197976">
        <ele>390.894871</ele>
        <time>2026-04-26T15:24:37.303Z</time>
      </trkpt>
      <trkpt lat="49.290088" lon="10.198837">
        <ele>391.065488</ele>
        <time>2026-04-26T15:24:51.975Z</time>
      </trkpt>
      <trkpt lat="49.290200" lon="10.199420">
        <ele>391.262193</ele>
        <time>2026-04-26T15:25:01.975Z</time>
      </trkpt>
      <trkpt lat="49.290305" lon="10.200472">
        <ele>391.606640</ele>
        <time>2026-04-26T15:25:19.103Z</time>
      </trkpt>
      <trkpt lat="49.290322" lon="10.200604">
        <ele>391.650187</ele>
        <time>2026-04-26T15:25:21.216Z</time>
      </trkpt>
      <trkpt lat="49.290456" lon="10.201437">
        <ele>391.784118</ele>
        <time>2026-04-26T15:25:34.429Z</time>
      </trkpt>
      <trkpt lat="49.290445" lon="10.201671">
        <ele>391.800357</ele>
        <time>2026-04-26T15:25:37.933Z</time>
      </trkpt>
      <trkpt lat="49.290390" lon="10.201900">
        <ele>391.817249</ele>
        <time>2026-04-26T15:25:41.552Z</time>
      </trkpt>
      <trkpt lat="49.290289" lon="10.202153">
        <ele>391.837781</ele>
        <time>2026-04-26T15:25:45.847Z</time>
      </trkpt>
      <trkpt lat="49.290467" lon="10.202673">
        <ele>391.878431</ele>
        <time>2026-04-26T15:25:54.301Z</time>
      </trkpt>
      <trkpt lat="49.290567" lon="10.203120">
        <ele>391.911141</ele>
        <time>2026-04-26T15:26:01.114Z</time>
      </trkpt>
      <trkpt lat="49.290629" lon="10.205174">
        <ele>392.041648</ele>
        <time>2026-04-26T15:26:31.070Z</time>
      </trkpt>
      <trkpt lat="49.290658" lon="10.206407">
        <ele>392.187377</ele>
        <time>2026-04-26T15:26:50.043Z</time>
      </trkpt>
      <trkpt lat="49.290730" lon="10.206805">
        <ele>392.376051</ele>
        <time>2026-04-26T15:26:56.708Z</time>
      </trkpt>
      <trkpt lat="49.290787" lon="10.207000">
        <ele>392.473666</ele>
        <time>2026-04-26T15:27:00.197Z</time>
      </trkpt>
      <trkpt lat="49.291610" lon="10.209736">
        <ele>393.955542</ele>
        <time>2026-04-26T15:27:52.860Z</time>
      </trkpt>
      <trkpt lat="49.291968" lon="10.210748">
        <ele>394.596439</ele>
        <time>2026-04-26T15:28:12.679Z</time>
      </trkpt>
      <trkpt lat="49.292377" lon="10.211965">
        <ele>395.732455</ele>
        <time>2026-04-26T15:28:35.219Z</time>
      </trkpt>
      <trkpt lat="49.292780" lon="10.213131">
        <ele>397.069327</ele>
        <time>2026-04-26T15:28:59.875Z</time>
      </trkpt>
      <trkpt lat="49.293152" lon="10.213733">
        <ele>398.182749</ele>
        <time>2026-04-26T15:29:17.590Z</time>
      </trkpt>
      <trkpt lat="49.293734" lon="10.214506">
        <ele>400.913158</ele>
        <time>2026-04-26T15:29:45.836Z</time>
      </trkpt>
      <trkpt lat="49.294497" lon="10.215958">
        <ele>405.154281</ele>
        <time>2026-04-26T15:30:34.593Z</time>
      </trkpt>
      <trkpt lat="49.294831" lon="10.216435">
        <ele>406.672649</ele>
        <time>2026-04-26T15:30:51.579Z</time>
      </trkpt>
      <trkpt lat="49.295370" lon="10.217076">
        <ele>408.941765</ele>
        <time>2026-04-26T15:31:16.205Z</time>
      </trkpt>
      <trkpt lat="49.296021" lon="10.217553">
        <ele>410.952491</ele>
        <time>2026-04-26T15:31:40.164Z</time>
      </trkpt>
      <trkpt lat="49.296552" lon="10.217855">
        <ele>412.265096</ele>
        <time>2026-04-26T15:31:58.460Z</time>
      </trkpt>
      <trkpt lat="49.296806" lon="10.217982">
        <ele>412.884288</ele>
        <time>2026-04-26T15:32:07.126Z</time>
      </trkpt>
      <trkpt lat="49.297331" lon="10.218411">
        <ele>414.233571</ele>
        <time>2026-04-26T15:32:26.445Z</time>
      </trkpt>
      <trkpt lat="49.297562" lon="10.218731">
        <ele>414.372371</ele>
        <time>2026-04-26T15:32:36.058Z</time>
      </trkpt>
      <trkpt lat="49.297777" lon="10.219166">
        <ele>414.531076</ele>
        <time>2026-04-26T15:32:46.473Z</time>
      </trkpt>
      <trkpt lat="49.297878" lon="10.219442">
        <ele>414.623098</ele>
        <time>2026-04-26T15:32:52.131Z</time>
      </trkpt>
      <trkpt lat="49.297942" lon="10.219967">
        <ele>414.778393</ele>
        <time>2026-04-26T15:33:00.953Z</time>
      </trkpt>
      <trkpt lat="49.297968" lon="10.220262">
        <ele>414.864947</ele>
        <time>2026-04-26T15:33:05.444Z</time>
      </trkpt>
      <trkpt lat="49.298119" lon="10.221811">
        <ele>413.200282</ele>
        <time>2026-04-26T15:33:24.403Z</time>
      </trkpt>
      <trkpt lat="49.298217" lon="10.222591">
        <ele>411.753374</ele>
        <time>2026-04-26T15:33:33.003Z</time>
      </trkpt>
      <trkpt lat="49.298315" lon="10.222940">
        <ele>411.061238</ele>
        <time>2026-04-26T15:33:37.158Z</time>
      </trkpt>
      <trkpt lat="49.298474" lon="10.223128">
        <ele>410.500427</ele>
        <time>2026-04-26T15:33:40.548Z</time>
      </trkpt>
      <trkpt lat="49.298635" lon="10.223185">
        <ele>410.038891</ele>
        <time>2026-04-26T15:33:43.363Z</time>
      </trkpt>
      <trkpt lat="49.298644" lon="10.223504">
        <ele>409.596051</ele>
        <time>2026-04-26T15:33:46.764Z</time>
      </trkpt>
      <trkpt lat="49.298731" lon="10.224012">
        <ele>408.881939</ele>
        <time>2026-04-26T15:33:52.442Z</time>
      </trkpt>
      <trkpt lat="49.298775" lon="10.224252">
        <ele>408.542978</ele>
        <time>2026-04-26T15:33:55.192Z</time>
      </trkpt>
      <trkpt lat="49.298907" lon="10.224891">
        <ele>407.631631</ele>
        <time>2026-04-26T15:34:02.901Z</time>
      </trkpt>
      <trkpt lat="49.298981" lon="10.225330">
        <ele>407.015139</ele>
        <time>2026-04-26T15:34:08.414Z</time>
      </trkpt>
      <trkpt lat="49.298973" lon="10.225678">
        <ele>406.541697</ele>
        <time>2026-04-26T15:34:12.745Z</time>
      </trkpt>
      <trkpt lat="49.298896" lon="10.226091">
        <ele>406.237085</ele>
        <time>2026-04-26T15:34:18.060Z</time>
      </trkpt>
      <trkpt lat="49.298774" lon="10.226567">
        <ele>406.196390</ele>
        <time>2026-04-26T15:34:24.455Z</time>
      </trkpt>
      <trkpt lat="49.298615" lon="10.227149">
        <ele>406.146182</ele>
        <time>2026-04-26T15:34:32.960Z</time>
      </trkpt>
      <trkpt lat="49.298379" lon="10.227769">
        <ele>406.089061</ele>
        <time>2026-04-26T15:34:43.679Z</time>
      </trkpt>
      <trkpt lat="49.298148" lon="10.228529">
        <ele>406.181810</ele>
        <time>2026-04-26T15:34:57.157Z</time>
      </trkpt>
      <trkpt lat="49.297635" lon="10.230265">
        <ele>407.942110</ele>
        <time>2026-04-26T15:35:32.443Z</time>
      </trkpt>
      <trkpt lat="49.296988" lon="10.232177">
        <ele>410.181077</ele>
        <time>2026-04-26T15:36:13.204Z</time>
      </trkpt>
      <trkpt lat="49.296668" lon="10.232950">
        <ele>411.183073</ele>
        <time>2026-04-26T15:36:30.546Z</time>
      </trkpt>
      <trkpt lat="49.296287" lon="10.233726">
        <ele>412.342096</ele>
        <time>2026-04-26T15:36:48.850Z</time>
      </trkpt>
      <trkpt lat="49.295831" lon="10.234442">
        <ele>413.600288</ele>
        <time>2026-04-26T15:37:08.036Z</time>
      </trkpt>
      <trkpt lat="49.295579" lon="10.234779">
        <ele>414.244888</ele>
        <time>2026-04-26T15:37:18.012Z</time>
      </trkpt>
      <trkpt lat="49.294831" lon="10.235606">
        <ele>416.428317</ele>
        <time>2026-04-26T15:37:46.729Z</time>
      </trkpt>
      <trkpt lat="49.293769" lon="10.236712">
        <ele>419.955085</ele>
        <time>2026-04-26T15:38:30.308Z</time>
      </trkpt>
      <trkpt lat="49.293395" lon="10.237161">
        <ele>421.273493</ele>
        <time>2026-04-26T15:38:47.186Z</time>
      </trkpt>
      <trkpt lat="49.292943" lon="10.237874">
        <ele>423.074235</ele>
        <time>2026-04-26T15:39:09.732Z</time>
      </trkpt>
      <trkpt lat="49.292672" lon="10.238396">
        <ele>424.282533</ele>
        <time>2026-04-26T15:39:24.030Z</time>
      </trkpt>
      <trkpt lat="49.292295" lon="10.239413">
        <ele>426.361871</ele>
        <time>2026-04-26T15:39:46.725Z</time>
      </trkpt>
      <trkpt lat="49.292087" lon="10.240047">
        <ele>427.611095</ele>
        <time>2026-04-26T15:40:00.699Z</time>
      </trkpt>
      <trkpt lat="49.291997" lon="10.240465">
        <ele>428.385931</ele>
        <time>2026-04-26T15:40:10.198Z</time>
      </trkpt>
      <trkpt lat="49.291945" lon="10.240854">
        <ele>429.084898</ele>
        <time>2026-04-26T15:40:19.468Z</time>
      </trkpt>
      <trkpt lat="49.291925" lon="10.241272">
        <ele>429.822654</ele>
        <time>2026-04-26T15:40:29.931Z</time>
      </trkpt>
      <trkpt lat="49.291936" lon="10.241737">
        <ele>430.707563</ele>
        <time>2026-04-26T15:40:41.994Z</time>
      </trkpt>
      <trkpt lat="49.292045" lon="10.242810">
        <ele>432.779732</ele>
        <time>2026-04-26T15:41:08.566Z</time>
      </trkpt>
      <trkpt lat="49.292050" lon="10.243167">
        <ele>433.461111</ele>
        <time>2026-04-26T15:41:16.047Z</time>
      </trkpt>
      <trkpt lat="49.292016" lon="10.243639">
        <ele>434.367250</ele>
        <time>2026-04-26T15:41:25.292Z</time>
      </trkpt>
      <trkpt lat="49.291971" lon="10.243925">
        <ele>434.928648</ele>
        <time>2026-04-26T15:41:30.724Z</time>
      </trkpt>
      <trkpt lat="49.291944" lon="10.244025">
        <ele>435.130362</ele>
        <time>2026-04-26T15:41:32.666Z</time>
      </trkpt>
      <trkpt lat="49.291713" lon="10.244827">
        <ele>436.254595</ele>
        <time>2026-04-26T15:41:47.428Z</time>
      </trkpt>
      <trkpt lat="49.290889" lon="10.247348">
        <ele>440.158365</ele>
        <time>2026-04-26T15:42:45.392Z</time>
      </trkpt>
      <trkpt lat="49.290561" lon="10.248113">
        <ele>441.610720</ele>
        <time>2026-04-26T15:43:04.445Z</time>
      </trkpt>
      <trkpt lat="49.290308" lon="10.248531">
        <ele>442.515389</ele>
        <time>2026-04-26T15:43:16.312Z</time>
      </trkpt>
      <trkpt lat="49.290007" lon="10.248940">
        <ele>443.669554</ele>
        <time>2026-04-26T15:43:29.225Z</time>
      </trkpt>
      <trkpt lat="49.289640" lon="10.249354">
        <ele>445.199781</ele>
        <time>2026-04-26T15:43:44.948Z</time>
      </trkpt>
      <trkpt lat="49.289393" lon="10.249678">
        <ele>446.291498</ele>
        <time>2026-04-26T15:43:56.878Z</time>
      </trkpt>
      <trkpt lat="49.289217" lon="10.249980">
        <ele>447.178638</ele>
        <time>2026-04-26T15:44:06.687Z</time>
      </trkpt>
      <trkpt lat="49.289016" lon="10.250470">
        <ele>448.446626</ele>
        <time>2026-04-26T15:44:20.597Z</time>
      </trkpt>
      <trkpt lat="49.288885" lon="10.251021">
        <ele>450.051560</ele>
        <time>2026-04-26T15:44:34.538Z</time>
      </trkpt>
      <trkpt lat="49.288748" lon="10.252431">
        <ele>454.692136</ele>
        <time>2026-04-26T15:45:11.238Z</time>
      </trkpt>
      <trkpt lat="49.288693" lon="10.252719">
        <ele>455.669014</ele>
        <time>2026-04-26T15:45:19.542Z</time>
      </trkpt>
      <trkpt lat="49.288271" lon="10.254126">
        <ele>462.423019</ele>
        <time>2026-04-26T15:46:09.389Z</time>
      </trkpt>
      <trkpt lat="49.288219" lon="10.254446">
        <ele>464.187529</ele>
        <time>2026-04-26T15:46:21.028Z</time>
      </trkpt>
      <trkpt lat="49.288232" lon="10.255252">
        <ele>468.501387</ele>
        <time>2026-04-26T15:46:50.450Z</time>
      </trkpt>
      <trkpt lat="49.288162" lon="10.255740">
        <ele>471.174850</ele>
        <time>2026-04-26T15:47:09.881Z</time>
      </trkpt>
      <trkpt lat="49.288106" lon="10.256243">
        <ele>474.208265</ele>
        <time>2026-04-26T15:47:30.729Z</time>
      </trkpt>
      <trkpt lat="49.288133" lon="10.256637">
        <ele>476.911452</ele>
        <time>2026-04-26T15:47:47.117Z</time>
      </trkpt>
      <trkpt lat="49.288192" lon="10.256999">
        <ele>479.457439</ele>
        <time>2026-04-26T15:48:02.607Z</time>
      </trkpt>
      <trkpt lat="49.288199" lon="10.257541">
        <ele>483.156400</ele>
        <time>2026-04-26T15:48:26.212Z</time>
      </trkpt>
      <trkpt lat="49.288194" lon="10.257884">
        <ele>485.497381</ele>
        <time>2026-04-26T15:48:41.493Z</time>
      </trkpt>
      <trkpt lat="49.288234" lon="10.258385">
        <ele>488.941376</ele>
        <time>2026-04-26T15:49:03.772Z</time>
      </trkpt>
      <trkpt lat="49.288276" lon="10.258659">
        <ele>490.861895</ele>
        <time>2026-04-26T15:49:15.647Z</time>
      </trkpt>
      <trkpt lat="49.288360" lon="10.258971">
        <ele>492.961433</ele>
        <time>2026-04-26T15:49:29.310Z</time>
      </trkpt>
      <trkpt lat="49.288374" lon="10.259186">
        <ele>494.241545</ele>
        <time>2026-04-26T15:49:37.741Z</time>
      </trkpt>
      <trkpt lat="49.288332" lon="10.259384">
        <ele>495.475083</ele>
        <time>2026-04-26T15:49:45.728Z</time>
      </trkpt>
      <trkpt lat="49.288278" lon="10.259498">
        <ele>496.309799</ele>
        <time>2026-04-26T15:49:51.109Z</time>
      </trkpt>
      <trkpt lat="49.288209" lon="10.259591">
        <ele>497.144299</ele>
        <time>2026-04-26T15:49:56.566Z</time>
      </trkpt>
      <trkpt lat="49.288112" lon="10.259661">
        <ele>498.118098</ele>
        <time>2026-04-26T15:50:02.915Z</time>
      </trkpt>
      <trkpt lat="49.287647" lon="10.259933">
        <ele>502.638782</ele>
        <time>2026-04-26T15:50:32.474Z</time>
      </trkpt>
      <trkpt lat="49.287699" lon="10.260446">
        <ele>505.714605</ele>
        <time>2026-04-26T15:50:51.016Z</time>
      </trkpt>
      <trkpt lat="49.287814" lon="10.260917">
        <ele>508.725778</ele>
        <time>2026-04-26T15:51:08.917Z</time>
      </trkpt>
      <trkpt lat="49.287841" lon="10.260993">
        <ele>509.260465</ele>
        <time>2026-04-26T15:51:12.128Z</time>
      </trkpt>
      <trkpt lat="49.287916" lon="10.261153">
        <ele>510.477796</ele>
        <time>2026-04-26T15:51:19.596Z</time>
      </trkpt>
      <trkpt lat="49.287961" lon="10.261267">
        <ele>511.301065</ele>
        <time>2026-04-26T15:51:24.611Z</time>
      </trkpt>
      <trkpt lat="49.287932" lon="10.261531">
        <ele>512.955115</ele>
        <time>2026-04-26T15:51:35.010Z</time>
      </trkpt>
      <trkpt lat="49.287869" lon="10.262106">
        <ele>516.557435</ele>
        <time>2026-04-26T15:51:58.174Z</time>
      </trkpt>
      <trkpt lat="49.288221" lon="10.261843">
        <ele>520.266527</ele>
        <time>2026-04-26T15:52:23.764Z</time>
      </trkpt>
      <trkpt lat="49.288741" lon="10.261483">
        <ele>525.419598</ele>
        <time>2026-04-26T15:53:01.942Z</time>
      </trkpt>
      <trkpt lat="49.289281" lon="10.261162">
        <ele>528.867889</ele>
        <time>2026-04-26T15:53:35.558Z</time>
      </trkpt>
      <trkpt lat="49.289384" lon="10.261204">
        <ele>529.502456</ele>
        <time>2026-04-26T15:53:40.721Z</time>
      </trkpt>
      <trkpt lat="49.289238" lon="10.261756">
        <ele>531.815610</ele>
        <time>2026-04-26T15:54:00.942Z</time>
      </trkpt>
      <trkpt lat="49.289166" lon="10.261930">
        <ele>532.615823</ele>
        <time>2026-04-26T15:54:07.586Z</time>
      </trkpt>
      <trkpt lat="49.289058" lon="10.262071">
        <ele>533.460387</ele>
        <time>2026-04-26T15:54:13.997Z</time>
      </trkpt>
      <trkpt lat="49.289014" lon="10.262042">
        <ele>533.745538</ele>
        <time>2026-04-26T15:54:15.758Z</time>
      </trkpt>
      <trkpt lat="49.288943" lon="10.262107">
        <ele>534.237891</ele>
        <time>2026-04-26T15:54:18.503Z</time>
      </trkpt>
      <trkpt lat="49.288904" lon="10.262366">
        <ele>535.270142</ele>
        <time>2026-04-26T15:54:24.036Z</time>
      </trkpt>
      <trkpt lat="49.288828" lon="10.264312">
        <ele>537.934982</ele>
        <time>2026-04-26T15:54:57.874Z</time>
      </trkpt>
      <trkpt lat="49.288806" lon="10.264965">
        <ele>538.728982</ele>
        <time>2026-04-26T15:55:12.456Z</time>
      </trkpt>
      <trkpt lat="49.288804" lon="10.265007">
        <ele>538.780119</ele>
        <time>2026-04-26T15:55:13.441Z</time>
      </trkpt>
      <trkpt lat="49.288759" lon="10.266094">
        <ele>540.013170</ele>
        <time>2026-04-26T15:55:37.752Z</time>
      </trkpt>
      <trkpt lat="49.288736" lon="10.266574">
        <ele>540.547809</ele>
        <time>2026-04-26T15:55:47.974Z</time>
      </trkpt>
      <trkpt lat="49.288697" lon="10.266814">
        <ele>540.822560</ele>
        <time>2026-04-26T15:55:53.018Z</time>
      </trkpt>
      <trkpt lat="49.288653" lon="10.266964">
        <ele>541.005261</ele>
        <time>2026-04-26T15:55:56.179Z</time>
      </trkpt>
      <trkpt lat="49.288595" lon="10.267155">
        <ele>541.239299</ele>
        <time>2026-04-26T15:56:00.093Z</time>
      </trkpt>
      <trkpt lat="49.288575" lon="10.267218">
        <ele>541.317131</ele>
        <time>2026-04-26T15:56:01.389Z</time>
      </trkpt>
      <trkpt lat="49.288595" lon="10.267155">
        <ele>541.394964</ele>
        <time>2026-04-26T15:56:02.597Z</time>
      </trkpt>
      <trkpt lat="49.288653" lon="10.266964">
        <ele>541.629002</ele>
        <time>2026-04-26T15:56:06.205Z</time>
      </trkpt>
      <trkpt lat="49.288697" lon="10.266814">
        <ele>541.811703</ele>
        <time>2026-04-26T15:56:08.844Z</time>
      </trkpt>
      <trkpt lat="49.288820" lon="10.267009">
        <ele>542.113039</ele>
        <time>2026-04-26T15:56:13.004Z</time>
      </trkpt>
      <trkpt lat="49.289680" lon="10.268588">
        <ele>538.785457</ele>
        <time>2026-04-26T15:56:37.194Z</time>
      </trkpt>
      <trkpt lat="49.290037" lon="10.269253">
        <ele>536.730257</ele>
        <time>2026-04-26T15:56:45.850Z</time>
      </trkpt>
      <trkpt lat="49.290157" lon="10.269477">
        <ele>535.057817</ele>
        <time>2026-04-26T15:56:48.609Z</time>
      </trkpt>
      <trkpt lat="49.290615" lon="10.270305">
        <ele>528.793995</ele>
        <time>2026-04-26T15:56:58.418Z</time>
      </trkpt>
      <trkpt lat="49.290711" lon="10.270479">
        <ele>527.479098</ele>
        <time>2026-04-26T15:57:00.444Z</time>
      </trkpt>
      <trkpt lat="49.291047" lon="10.271096">
        <ele>522.841634</ele>
        <time>2026-04-26T15:57:07.462Z</time>
      </trkpt>
      <trkpt lat="49.291295" lon="10.271704">
        <ele>518.450790</ele>
        <time>2026-04-26T15:57:13.678Z</time>
      </trkpt>
      <trkpt lat="49.291346" lon="10.271944">
        <ele>516.872763</ele>
        <time>2026-04-26T15:57:15.880Z</time>
      </trkpt>
      <trkpt lat="49.291527" lon="10.273224">
        <ele>508.684741</ele>
        <time>2026-04-26T15:57:27.690Z</time>
      </trkpt>
      <trkpt lat="49.291641" lon="10.273211">
        <ele>507.588998</ele>
        <time>2026-04-26T15:57:29.296Z</time>
      </trkpt>
      <trkpt lat="49.291925" lon="10.273160">
        <ele>504.848166</ele>
        <time>2026-04-26T15:57:33.236Z</time>
      </trkpt>
      <trkpt lat="49.292205" lon="10.273188">
        <ele>502.835539</ele>
        <time>2026-04-26T15:57:37.127Z</time>
      </trkpt>
      <trkpt lat="49.292433" lon="10.273584">
        <ele>500.489368</ele>
        <time>2026-04-26T15:57:41.933Z</time>
      </trkpt>
      <trkpt lat="49.292490" lon="10.273844">
        <ele>499.271066</ele>
        <time>2026-04-26T15:57:44.492Z</time>
      </trkpt>
      <trkpt lat="49.292715" lon="10.274170">
        <ele>497.162883</ele>
        <time>2026-04-26T15:57:48.938Z</time>
      </trkpt>
      <trkpt lat="49.292779" lon="10.274366">
        <ele>496.189329</ele>
        <time>2026-04-26T15:57:50.991Z</time>
      </trkpt>
      <trkpt lat="49.292987" lon="10.274691">
        <ele>494.166910</ele>
        <time>2026-04-26T15:57:55.234Z</time>
      </trkpt>
      <trkpt lat="49.293101" lon="10.274914">
        <ele>492.908445</ele>
        <time>2026-04-26T15:57:57.937Z</time>
      </trkpt>
      <trkpt lat="49.293294" lon="10.274658">
        <ele>491.930317</ele>
        <time>2026-04-26T15:58:02.052Z</time>
      </trkpt>
      <trkpt lat="49.293438" lon="10.274517">
        <ele>491.587435</ele>
        <time>2026-04-26T15:58:05.064Z</time>
      </trkpt>
      <trkpt lat="49.293564" lon="10.274455">
        <ele>491.321873</ele>
        <time>2026-04-26T15:58:07.619Z</time>
      </trkpt>
      <trkpt lat="49.293765" lon="10.274494">
        <ele>490.915284</ele>
        <time>2026-04-26T15:58:11.701Z</time>
      </trkpt>
      <trkpt lat="49.293844" lon="10.274480">
        <ele>490.755689</ele>
        <time>2026-04-26T15:58:13.320Z</time>
      </trkpt>
      <trkpt lat="49.294068" lon="10.274155">
        <ele>490.136811</ele>
        <time>2026-04-26T15:58:20.029Z</time>
      </trkpt>
      <trkpt lat="49.294135" lon="10.273963">
        <ele>489.851809</ele>
        <time>2026-04-26T15:58:23.064Z</time>
      </trkpt>
      <trkpt lat="49.294189" lon="10.273662">
        <ele>489.443226</ele>
        <time>2026-04-26T15:58:27.219Z</time>
      </trkpt>
      <trkpt lat="49.294291" lon="10.273252">
        <ele>488.868901</ele>
        <time>2026-04-26T15:58:32.692Z</time>
      </trkpt>
      <trkpt lat="49.294443" lon="10.272888">
        <ele>488.169783</ele>
        <time>2026-04-26T15:58:38.057Z</time>
      </trkpt>
      <trkpt lat="49.294834" lon="10.272425">
        <ele>486.783480</ele>
        <time>2026-04-26T15:58:47.178Z</time>
      </trkpt>
      <trkpt lat="49.294944" lon="10.272256">
        <ele>486.346515</ele>
        <time>2026-04-26T15:58:49.859Z</time>
      </trkpt>
      <trkpt lat="49.295014" lon="10.272085">
        <ele>485.977030</ele>
        <time>2026-04-26T15:58:52.085Z</time>
      </trkpt>
      <trkpt lat="49.295671" lon="10.272481">
        <ele>483.996063</ele>
        <time>2026-04-26T15:59:03.901Z</time>
      </trkpt>
      <trkpt lat="49.296120" lon="10.272657">
        <ele>482.623047</ele>
        <time>2026-04-26T15:59:11.704Z</time>
      </trkpt>
      <trkpt lat="49.298443" lon="10.272576">
        <ele>476.627402</ele>
        <time>2026-04-26T15:59:52.027Z</time>
      </trkpt>
      <trkpt lat="49.298679" lon="10.272510">
        <ele>476.198978</ele>
        <time>2026-04-26T15:59:56.597Z</time>
      </trkpt>
      <trkpt lat="49.298956" lon="10.272369">
        <ele>475.677742</ele>
        <time>2026-04-26T16:00:02.306Z</time>
      </trkpt>
      <trkpt lat="49.300281" lon="10.271445">
        <ele>474.863292</ele>
        <time>2026-04-26T16:00:35.371Z</time>
      </trkpt>
      <trkpt lat="49.300387" lon="10.271408">
        <ele>474.857056</ele>
        <time>2026-04-26T16:00:38.149Z</time>
      </trkpt>
      <trkpt lat="49.300670" lon="10.271394">
        <ele>474.840813</ele>
        <time>2026-04-26T16:00:45.327Z</time>
      </trkpt>
      <trkpt lat="49.300984" lon="10.271631">
        <ele>474.820736</ele>
        <time>2026-04-26T16:00:54.120Z</time>
      </trkpt>
      <trkpt lat="49.301088" lon="10.271754">
        <ele>474.496414</ele>
        <time>2026-04-26T16:00:57.161Z</time>
      </trkpt>
      <trkpt lat="49.301193" lon="10.272057">
        <ele>473.822502</ele>
        <time>2026-04-26T16:01:02.029Z</time>
      </trkpt>
      <trkpt lat="49.301230" lon="10.272320">
        <ele>473.294080</ele>
        <time>2026-04-26T16:01:05.565Z</time>
      </trkpt>
      <trkpt lat="49.301267" lon="10.272972">
        <ele>472.008699</ele>
        <time>2026-04-26T16:01:13.432Z</time>
      </trkpt>
      <trkpt lat="49.302867" lon="10.273173">
        <ele>464.763675</ele>
        <time>2026-04-26T16:01:38.624Z</time>
      </trkpt>
      <trkpt lat="49.303419" lon="10.273299">
        <ele>461.265127</ele>
        <time>2026-04-26T16:01:46.934Z</time>
      </trkpt>
      <trkpt lat="49.304133" lon="10.273587">
        <ele>457.123501</ele>
        <time>2026-04-26T16:01:58.031Z</time>
      </trkpt>
      <trkpt lat="49.304450" lon="10.273839">
        <ele>455.616346</ele>
        <time>2026-04-26T16:02:03.560Z</time>
      </trkpt>
      <trkpt lat="49.304981" lon="10.274416">
        <ele>452.869384</ele>
        <time>2026-04-26T16:02:14.153Z</time>
      </trkpt>
      <trkpt lat="49.305241" lon="10.274626">
        <ele>451.629015</ele>
        <time>2026-04-26T16:02:19.256Z</time>
      </trkpt>
      <trkpt lat="49.305557" lon="10.274752">
        <ele>450.595851</ele>
        <time>2026-04-26T16:02:25.351Z</time>
      </trkpt>
      <trkpt lat="49.305965" lon="10.274859">
        <ele>450.975376</ele>
        <time>2026-04-26T16:02:33.999Z</time>
      </trkpt>
      <trkpt lat="49.306181" lon="10.274839">
        <ele>451.173787</ele>
        <time>2026-04-26T16:02:39.187Z</time>
      </trkpt>
      <trkpt lat="49.306336" lon="10.274779">
        <ele>451.320363</ele>
        <time>2026-04-26T16:02:43.315Z</time>
      </trkpt>
      <trkpt lat="49.307950" lon="10.273787">
        <ele>454.178889</ele>
        <time>2026-04-26T16:03:41.132Z</time>
      </trkpt>
      <trkpt lat="49.308744" lon="10.273283">
        <ele>456.329092</ele>
        <time>2026-04-26T16:04:11.274Z</time>
      </trkpt>
      <trkpt lat="49.309520" lon="10.272736">
        <ele>456.525162</ele>
        <time>2026-04-26T16:04:35.378Z</time>
      </trkpt>
      <trkpt lat="49.309998" lon="10.272342">
        <ele>456.404060</ele>
        <time>2026-04-26T16:04:46.612Z</time>
      </trkpt>
      <trkpt lat="49.310556" lon="10.271968">
        <ele>456.156137</ele>
        <time>2026-04-26T16:04:57.926Z</time>
      </trkpt>
      <trkpt lat="49.311154" lon="10.271641">
        <ele>454.922146</ele>
        <time>2026-04-26T16:05:09.395Z</time>
      </trkpt>
      <trkpt lat="49.311099" lon="10.271271">
        <ele>454.441248</ele>
        <time>2026-04-26T16:05:13.926Z</time>
      </trkpt>
      <trkpt lat="49.311100" lon="10.270880">
        <ele>453.945768</ele>
        <time>2026-04-26T16:05:18.655Z</time>
      </trkpt>
      <trkpt lat="49.311134" lon="10.270405">
        <ele>453.340230</ele>
        <time>2026-04-26T16:05:24.482Z</time>
      </trkpt>
      <trkpt lat="49.311218" lon="10.269971">
        <ele>452.768762</ele>
        <time>2026-04-26T16:05:30.073Z</time>
      </trkpt>
      <trkpt lat="49.311554" lon="10.269013">
        <ele>451.542533</ele>
        <time>2026-04-26T16:05:43.398Z</time>
      </trkpt>
      <trkpt lat="49.311981" lon="10.269372">
        <ele>450.700616</ele>
        <time>2026-04-26T16:05:52.417Z</time>
      </trkpt>
      <trkpt lat="49.312478" lon="10.269935">
        <ele>449.692538</ele>
        <time>2026-04-26T16:06:12.045Z</time>
      </trkpt>
      <trkpt lat="49.312599" lon="10.270015">
        <ele>449.773301</ele>
        <time>2026-04-26T16:06:16.303Z</time>
      </trkpt>
      <trkpt lat="49.312770" lon="10.270074">
        <ele>449.880734</ele>
        <time>2026-04-26T16:06:22.111Z</time>
      </trkpt>
      <trkpt lat="49.312936" lon="10.270065">
        <ele>449.982547</ele>
        <time>2026-04-26T16:06:27.772Z</time>
      </trkpt>
      <trkpt lat="49.313577" lon="10.269793">
        <ele>450.390205</ele>
        <time>2026-04-26T16:06:53.001Z</time>
      </trkpt>
      <trkpt lat="49.314139" lon="10.269522">
        <ele>450.751302</ele>
        <time>2026-04-26T16:07:19.204Z</time>
      </trkpt>
      <trkpt lat="49.315179" lon="10.269018">
        <ele>455.625961</ele>
        <time>2026-04-26T16:08:17.567Z</time>
      </trkpt>
      <trkpt lat="49.315361" lon="10.268859">
        <ele>456.597328</ele>
        <time>2026-04-26T16:08:29.949Z</time>
      </trkpt>
      <trkpt lat="49.315527" lon="10.268654">
        <ele>457.585680</ele>
        <time>2026-04-26T16:08:42.678Z</time>
      </trkpt>
      <trkpt lat="49.315597" lon="10.268507">
        <ele>458.136056</ele>
        <time>2026-04-26T16:08:49.957Z</time>
      </trkpt>
      <trkpt lat="49.315625" lon="10.268388">
        <ele>458.518551</ele>
        <time>2026-04-26T16:08:54.961Z</time>
      </trkpt>
      <trkpt lat="49.315660" lon="10.268319">
        <ele>458.782875</ele>
        <time>2026-04-26T16:08:57.668Z</time>
      </trkpt>
      <trkpt lat="49.315826" lon="10.268158">
        <ele>460.017892</ele>
        <time>2026-04-26T16:09:06.969Z</time>
      </trkpt>
      <trkpt lat="49.316006" lon="10.268146">
        <ele>461.326447</ele>
        <time>2026-04-26T16:09:15.744Z</time>
      </trkpt>
      <trkpt lat="49.316178" lon="10.268199">
        <ele>462.600618</ele>
        <time>2026-04-26T16:09:24.486Z</time>
      </trkpt>
      <trkpt lat="49.316375" lon="10.268154">
        <ele>464.047184</ele>
        <time>2026-04-26T16:09:34.608Z</time>
      </trkpt>
      <trkpt lat="49.316629" lon="10.268162">
        <ele>465.892347</ele>
        <time>2026-04-26T16:09:47.855Z</time>
      </trkpt>
      <trkpt lat="49.316846" lon="10.268106">
        <ele>467.490541</ele>
        <time>2026-04-26T16:09:59.829Z</time>
      </trkpt>
      <trkpt lat="49.317094" lon="10.268114">
        <ele>469.292137</ele>
        <time>2026-04-26T16:10:13.397Z</time>
      </trkpt>
      <trkpt lat="49.317370" lon="10.268020">
        <ele>471.345503</ele>
        <time>2026-04-26T16:10:28.568Z</time>
      </trkpt>
      <trkpt lat="49.317715" lon="10.267966">
        <ele>473.643245</ele>
        <time>2026-04-26T16:10:46.806Z</time>
      </trkpt>
      <trkpt lat="49.317828" lon="10.267998">
        <ele>474.368040</ele>
        <time>2026-04-26T16:10:52.847Z</time>
      </trkpt>
      <trkpt lat="49.317914" lon="10.268108">
        <ele>475.074305</ele>
        <time>2026-04-26T16:10:58.622Z</time>
      </trkpt>
      <trkpt lat="49.318009" lon="10.268310">
        <ele>476.098452</ele>
        <time>2026-04-26T16:11:07.141Z</time>
      </trkpt>
      <trkpt lat="49.318123" lon="10.268476">
        <ele>477.089863</ele>
        <time>2026-04-26T16:11:15.397Z</time>
      </trkpt>
      <trkpt lat="49.318285" lon="10.268604">
        <ele>478.239254</ele>
        <time>2026-04-26T16:11:24.816Z</time>
      </trkpt>
      <trkpt lat="49.318544" lon="10.269168">
        <ele>481.075860</ele>
        <time>2026-04-26T16:11:46.039Z</time>
      </trkpt>
      <trkpt lat="49.318799" lon="10.269417">
        <ele>482.982471</ele>
        <time>2026-04-26T16:11:58.929Z</time>
      </trkpt>
      <trkpt lat="49.318953" lon="10.269637">
        <ele>483.813989</ele>
        <time>2026-04-26T16:12:07.688Z</time>
      </trkpt>
      <trkpt lat="49.319063" lon="10.269958">
        <ele>484.357781</ele>
        <time>2026-04-26T16:12:16.830Z</time>
      </trkpt>
      <trkpt lat="49.319868" lon="10.269757">
        <ele>486.233931</ele>
        <time>2026-04-26T16:12:43.745Z</time>
      </trkpt>
      <trkpt lat="49.320073" lon="10.269500">
        <ele>486.842931</ele>
        <time>2026-04-26T16:12:50.882Z</time>
      </trkpt>
      <trkpt lat="49.320228" lon="10.269116">
        <ele>487.520176</ele>
        <time>2026-04-26T16:12:58.501Z</time>
      </trkpt>
      <trkpt lat="49.320378" lon="10.269146">
        <ele>487.640346</ele>
        <time>2026-04-26T16:13:02.250Z</time>
      </trkpt>
      <trkpt lat="49.320642" lon="10.269085">
        <ele>487.559340</ele>
        <time>2026-04-26T16:13:08.624Z</time>
      </trkpt>
      <trkpt lat="49.321586" lon="10.268664">
        <ele>487.261056</ele>
        <time>2026-04-26T16:13:30.853Z</time>
      </trkpt>
      <trkpt lat="49.321685" lon="10.269189">
        <ele>487.152968</ele>
        <time>2026-04-26T16:13:38.067Z</time>
      </trkpt>
      <trkpt lat="49.321906" lon="10.269879">
        <ele>485.564642</ele>
        <time>2026-04-26T16:13:47.375Z</time>
      </trkpt>
      <trkpt lat="49.322400" lon="10.270922">
        <ele>482.263607</ele>
        <time>2026-04-26T16:14:00.755Z</time>
      </trkpt>
      <trkpt lat="49.322525" lon="10.271109">
        <ele>481.577801</ele>
        <time>2026-04-26T16:14:03.334Z</time>
      </trkpt>
      <trkpt lat="49.323882" lon="10.272146">
        <ele>473.768689</ele>
        <time>2026-04-26T16:14:25.153Z</time>
      </trkpt>
      <trkpt lat="49.324084" lon="10.272345">
        <ele>472.431350</ele>
        <time>2026-04-26T16:14:28.760Z</time>
      </trkpt>
      <trkpt lat="49.324289" lon="10.272679">
        <ele>470.765505</ele>
        <time>2026-04-26T16:14:33.378Z</time>
      </trkpt>
      <trkpt lat="49.324611" lon="10.273374">
        <ele>469.151652</ele>
        <time>2026-04-26T16:14:42.518Z</time>
      </trkpt>
      <trkpt lat="49.324979" lon="10.274384">
        <ele>467.581961</ele>
        <time>2026-04-26T16:14:56.137Z</time>
      </trkpt>
      <trkpt lat="49.325266" lon="10.275456">
        <ele>466.059943</ele>
        <time>2026-04-26T16:15:10.256Z</time>
      </trkpt>
      <trkpt lat="49.325555" lon="10.276801">
        <ele>464.479836</ele>
        <time>2026-04-26T16:15:27.527Z</time>
      </trkpt>
      <trkpt lat="49.325638" lon="10.277160">
        <ele>464.054836</ele>
        <time>2026-04-26T16:15:31.957Z</time>
      </trkpt>
      <trkpt lat="49.325715" lon="10.277315">
        <ele>463.837391</ele>
        <time>2026-04-26T16:15:34.187Z</time>
      </trkpt>
      <trkpt lat="49.325698" lon="10.277563">
        <ele>463.559165</ele>
        <time>2026-04-26T16:15:37.022Z</time>
      </trkpt>
      <trkpt lat="49.325714" lon="10.277930">
        <ele>463.100904</ele>
        <time>2026-04-26T16:15:41.161Z</time>
      </trkpt>
      <trkpt lat="49.325861" lon="10.278905">
        <ele>461.153309</ele>
        <time>2026-04-26T16:15:51.891Z</time>
      </trkpt>
      <trkpt lat="49.325782" lon="10.279064">
        <ele>460.764212</ele>
        <time>2026-04-26T16:15:53.949Z</time>
      </trkpt>
      <trkpt lat="49.325855" lon="10.279217">
        <ele>460.395194</ele>
        <time>2026-04-26T16:15:55.908Z</time>
      </trkpt>
      <trkpt lat="49.326251" lon="10.279513">
        <ele>459.079887</ele>
        <time>2026-04-26T16:16:03.022Z</time>
      </trkpt>
      <trkpt lat="49.326403" lon="10.279670">
        <ele>458.532755</ele>
        <time>2026-04-26T16:16:06.093Z</time>
      </trkpt>
      <trkpt lat="49.326439" lon="10.279748">
        <ele>458.346751</ele>
        <time>2026-04-26T16:16:07.124Z</time>
      </trkpt>
      <trkpt lat="49.326511" lon="10.280188">
        <ele>457.565590</ele>
        <time>2026-04-26T16:16:12.132Z</time>
      </trkpt>
      <trkpt lat="49.326541" lon="10.280325">
        <ele>457.359907</ele>
        <time>2026-04-26T16:16:13.724Z</time>
      </trkpt>
      <trkpt lat="49.326621" lon="10.280547">
        <ele>456.998888</ele>
        <time>2026-04-26T16:16:16.589Z</time>
      </trkpt>
      <trkpt lat="49.326662" lon="10.280627">
        <ele>456.854052</ele>
        <time>2026-04-26T16:16:17.738Z</time>
      </trkpt>
      <trkpt lat="49.326884" lon="10.281058">
        <ele>456.072243</ele>
        <time>2026-04-26T16:16:24.047Z</time>
      </trkpt>
      <trkpt lat="49.326992" lon="10.281454">
        <ele>455.461325</ele>
        <time>2026-04-26T16:16:29.196Z</time>
      </trkpt>
      <trkpt lat="49.327036" lon="10.281794">
        <ele>454.968009</ele>
        <time>2026-04-26T16:16:33.518Z</time>
      </trkpt>
      <trkpt lat="49.327058" lon="10.282202">
        <ele>454.385383</ele>
        <time>2026-04-26T16:16:38.649Z</time>
      </trkpt>
      <trkpt lat="49.327087" lon="10.282587">
        <ele>453.869603</ele>
        <time>2026-04-26T16:16:43.421Z</time>
      </trkpt>
      <trkpt lat="49.327194" lon="10.283207">
        <ele>453.359892</ele>
        <time>2026-04-26T16:16:51.249Z</time>
      </trkpt>
      <trkpt lat="49.327212" lon="10.283425">
        <ele>453.185257</ele>
        <time>2026-04-26T16:16:53.981Z</time>
      </trkpt>
      <trkpt lat="49.327154" lon="10.284103">
        <ele>452.641813</ele>
        <time>2026-04-26T16:17:02.963Z</time>
      </trkpt>
      <trkpt lat="49.327184" lon="10.284486">
        <ele>452.335243</ele>
        <time>2026-04-26T16:17:08.188Z</time>
      </trkpt>
      <trkpt lat="49.327382" lon="10.285495">
        <ele>451.535944</ele>
        <time>2026-04-26T16:17:22.183Z</time>
      </trkpt>
      <trkpt lat="49.327650" lon="10.286344">
        <ele>450.914005</ele>
        <time>2026-04-26T16:17:34.316Z</time>
      </trkpt>
      <trkpt lat="49.327890" lon="10.287392">
        <ele>450.181656</ele>
        <time>2026-04-26T16:17:49.007Z</time>
      </trkpt>
      <trkpt lat="49.328093" lon="10.288311">
        <ele>449.489341</ele>
        <time>2026-04-26T16:18:01.785Z</time>
      </trkpt>
      <trkpt lat="49.328169" lon="10.288654">
        <ele>449.215629</ele>
        <time>2026-04-26T16:18:06.600Z</time>
      </trkpt>
      <trkpt lat="49.328156" lon="10.289052">
        <ele>448.914554</ele>
        <time>2026-04-26T16:18:11.943Z</time>
      </trkpt>
      <trkpt lat="49.328079" lon="10.289953">
        <ele>448.228000</ele>
        <time>2026-04-26T16:18:23.755Z</time>
      </trkpt>
      <trkpt lat="49.327978" lon="10.290939">
        <ele>447.355632</ele>
        <time>2026-04-26T16:18:36.091Z</time>
      </trkpt>
      <trkpt lat="49.327783" lon="10.291935">
        <ele>446.299032</ele>
        <time>2026-04-26T16:18:48.964Z</time>
      </trkpt>
      <trkpt lat="49.327564" lon="10.292802">
        <ele>445.354320</ele>
        <time>2026-04-26T16:19:00.473Z</time>
      </trkpt>
      <trkpt lat="49.327470" lon="10.293824">
        <ele>444.506051</ele>
        <time>2026-04-26T16:19:13.452Z</time>
      </trkpt>
      <trkpt lat="49.327475" lon="10.294742">
        <ele>443.837528</ele>
        <time>2026-04-26T16:19:25.349Z</time>
      </trkpt>
      <trkpt lat="49.327515" lon="10.295067">
        <ele>443.596675</ele>
        <time>2026-04-26T16:19:29.674Z</time>
      </trkpt>
      <trkpt lat="49.327660" lon="10.295663">
        <ele>443.133407</ele>
        <time>2026-04-26T16:19:38.030Z</time>
      </trkpt>
      <trkpt lat="49.327674" lon="10.296027">
        <ele>443.045004</ele>
        <time>2026-04-26T16:19:42.968Z</time>
      </trkpt>
      <trkpt lat="49.327664" lon="10.296189">
        <ele>443.081428</ele>
        <time>2026-04-26T16:19:45.226Z</time>
      </trkpt>
      <trkpt lat="49.327545" lon="10.296566">
        <ele>443.175191</ele>
        <time>2026-04-26T16:19:51.237Z</time>
      </trkpt>
      <trkpt lat="49.327374" lon="10.297312">
        <ele>443.352201</ele>
        <time>2026-04-26T16:20:03.329Z</time>
      </trkpt>
      <trkpt lat="49.328274" lon="10.297878">
        <ele>444.269907</ele>
        <time>2026-04-26T16:20:28.305Z</time>
      </trkpt>
      <trkpt lat="49.328800" lon="10.298264">
        <ele>446.263873</ele>
        <time>2026-04-26T16:20:47.489Z</time>
      </trkpt>
      <trkpt lat="49.329322" lon="10.298698">
        <ele>448.294235</ele>
        <time>2026-04-26T16:21:10.387Z</time>
      </trkpt>
      <trkpt lat="49.329857" lon="10.299194">
        <ele>450.350233</ele>
        <time>2026-04-26T16:21:37.346Z</time>
      </trkpt>
      <trkpt lat="49.330227" lon="10.299560">
        <ele>451.669423</ele>
        <time>2026-04-26T16:21:56.581Z</time>
      </trkpt>
      <trkpt lat="49.330905" lon="10.300251">
        <ele>454.108481</ele>
        <time>2026-04-26T16:22:24.569Z</time>
      </trkpt>
      <trkpt lat="49.331081" lon="10.300421">
        <ele>454.731685</ele>
        <time>2026-04-26T16:22:29.972Z</time>
      </trkpt>
      <trkpt lat="49.331319" lon="10.300638">
        <ele>455.384957</ele>
        <time>2026-04-26T16:22:36.207Z</time>
      </trkpt>
      <trkpt lat="49.331473" lon="10.300736">
        <ele>455.663881</ele>
        <time>2026-04-26T16:22:39.805Z</time>
      </trkpt>
      <trkpt lat="49.331657" lon="10.300801">
        <ele>455.979772</ele>
        <time>2026-04-26T16:22:43.902Z</time>
      </trkpt>
      <trkpt lat="49.332264" lon="10.300897">
        <ele>457.000684</ele>
        <time>2026-04-26T16:22:57.761Z</time>
      </trkpt>
      <trkpt lat="49.332358" lon="10.300905">
        <ele>457.158191</ele>
        <time>2026-04-26T16:23:00.311Z</time>
      </trkpt>
      <trkpt lat="49.332470" lon="10.301499">
        <ele>457.832372</ele>
        <time>2026-04-26T16:23:14.027Z</time>
      </trkpt>
      <trkpt lat="49.332543" lon="10.301768">
        <ele>458.150067</ele>
        <time>2026-04-26T16:23:21.774Z</time>
      </trkpt>
      <trkpt lat="49.332619" lon="10.301925">
        <ele>458.977275</ele>
        <time>2026-04-26T16:23:27.608Z</time>
      </trkpt>
      <trkpt lat="49.332877" lon="10.302244">
        <ele>461.303947</ele>
        <time>2026-04-26T16:23:44.348Z</time>
      </trkpt>
      <trkpt lat="49.333028" lon="10.302565">
        <ele>463.115617</ele>
        <time>2026-04-26T16:23:58.573Z</time>
      </trkpt>
      <trkpt lat="49.333151" lon="10.302985">
        <ele>465.222752</ele>
        <time>2026-04-26T16:24:15.402Z</time>
      </trkpt>
      <trkpt lat="49.333213" lon="10.303334">
        <ele>466.878097</ele>
        <time>2026-04-26T16:24:28.745Z</time>
      </trkpt>
      <trkpt lat="49.333260" lon="10.304590">
        <ele>472.009460</ele>
        <time>2026-04-26T16:25:13.298Z</time>
      </trkpt>
      <trkpt lat="49.333309" lon="10.305221">
        <ele>473.924975</ele>
        <time>2026-04-26T16:25:32.406Z</time>
      </trkpt>
      <trkpt lat="49.333464" lon="10.305966">
        <ele>476.282342</ele>
        <time>2026-04-26T16:25:52.744Z</time>
      </trkpt>
      <trkpt lat="49.333672" lon="10.307041">
        <ele>479.399759</ele>
        <time>2026-04-26T16:26:17.782Z</time>
      </trkpt>
      <trkpt lat="49.333770" lon="10.308962">
        <ele>482.385611</ele>
        <time>2026-04-26T16:26:56.734Z</time>
      </trkpt>
      <trkpt lat="49.333735" lon="10.309261">
        <ele>482.856351</ele>
        <time>2026-04-26T16:27:03.349Z</time>
      </trkpt>
      <trkpt lat="49.332788" lon="10.310986">
        <ele>486.451210</ele>
        <time>2026-04-26T16:27:55.456Z</time>
      </trkpt>
      <trkpt lat="49.332368" lon="10.312032">
        <ele>487.669934</ele>
        <time>2026-04-26T16:28:19.755Z</time>
      </trkpt>
      <trkpt lat="49.332123" lon="10.312840">
        <ele>487.311914</ele>
        <time>2026-04-26T16:28:32.882Z</time>
      </trkpt>
      <trkpt lat="49.332030" lon="10.313450">
        <ele>487.060237</ele>
        <time>2026-04-26T16:28:40.989Z</time>
      </trkpt>
      <trkpt lat="49.332037" lon="10.314008">
        <ele>486.836026</ele>
        <time>2026-04-26T16:28:47.805Z</time>
      </trkpt>
      <trkpt lat="49.332310" lon="10.316476">
        <ele>483.090004</ele>
        <time>2026-04-26T16:29:16.911Z</time>
      </trkpt>
      <trkpt lat="49.332494" lon="10.318769">
        <ele>479.079518</ele>
        <time>2026-04-26T16:29:42.976Z</time>
      </trkpt>
      <trkpt lat="49.332359" lon="10.319336">
        <ele>478.015014</ele>
        <time>2026-04-26T16:29:50.190Z</time>
      </trkpt>
      <trkpt lat="49.331838" lon="10.320633">
        <ele>475.614476</ele>
        <time>2026-04-26T16:30:07.868Z</time>
      </trkpt>
      <trkpt lat="49.331658" lon="10.321125">
        <ele>474.764916</ele>
        <time>2026-04-26T16:30:14.445Z</time>
      </trkpt>
      <trkpt lat="49.331622" lon="10.321502">
        <ele>474.191206</ele>
        <time>2026-04-26T16:30:18.885Z</time>
      </trkpt>
      <trkpt lat="49.331632" lon="10.321879">
        <ele>473.623088</ele>
        <time>2026-04-26T16:30:23.220Z</time>
      </trkpt>
      <trkpt lat="49.331747" lon="10.324150">
        <ele>471.130012</ele>
        <time>2026-04-26T16:30:51.106Z</time>
      </trkpt>
      <trkpt lat="49.331779" lon="10.325706">
        <ele>469.742221</ele>
        <time>2026-04-26T16:31:11.652Z</time>
      </trkpt>
      <trkpt lat="49.331724" lon="10.328935">
        <ele>466.860362</ele>
        <time>2026-04-26T16:31:53.253Z</time>
      </trkpt>
      <trkpt lat="49.331679" lon="10.329504">
        <ele>466.210813</ele>
        <time>2026-04-26T16:32:00.304Z</time>
      </trkpt>
      <trkpt lat="49.331592" lon="10.329857">
        <ele>465.783123</ele>
        <time>2026-04-26T16:32:04.839Z</time>
      </trkpt>
      <trkpt lat="49.331187" lon="10.330747">
        <ele>464.355078</ele>
        <time>2026-04-26T16:32:17.462Z</time>
      </trkpt>
      <trkpt lat="49.331018" lon="10.331126">
        <ele>463.650628</ele>
        <time>2026-04-26T16:32:22.693Z</time>
      </trkpt>
      <trkpt lat="49.330972" lon="10.331239">
        <ele>463.446249</ele>
        <time>2026-04-26T16:32:24.222Z</time>
      </trkpt>
      <trkpt lat="49.330930" lon="10.331429">
        <ele>463.138480</ele>
        <time>2026-04-26T16:32:26.527Z</time>
      </trkpt>
      <trkpt lat="49.330871" lon="10.332329">
        <ele>461.750923</ele>
        <time>2026-04-26T16:32:36.944Z</time>
      </trkpt>
      <trkpt lat="49.330843" lon="10.332467">
        <ele>461.529210</ele>
        <time>2026-04-26T16:32:38.643Z</time>
      </trkpt>
      <trkpt lat="49.330702" lon="10.332667">
        <ele>461.077237</ele>
        <time>2026-04-26T16:32:42.205Z</time>
      </trkpt>
      <trkpt lat="49.330553" lon="10.332853">
        <ele>460.701325</ele>
        <time>2026-04-26T16:32:45.898Z</time>
      </trkpt>
      <trkpt lat="49.330436" lon="10.333101">
        <ele>460.372735</ele>
        <time>2026-04-26T16:32:49.755Z</time>
      </trkpt>
      <trkpt lat="49.330233" lon="10.333510">
        <ele>459.820963</ele>
        <time>2026-04-26T16:32:56.284Z</time>
      </trkpt>
      <trkpt lat="49.330177" lon="10.333624">
        <ele>459.667746</ele>
        <time>2026-04-26T16:32:58.093Z</time>
      </trkpt>
      <trkpt lat="49.330222" lon="10.333656">
        <ele>459.586066</ele>
        <time>2026-04-26T16:32:59.059Z</time>
      </trkpt>
      <trkpt lat="49.330359" lon="10.333951">
        <ele>459.197290</ele>
        <time>2026-04-26T16:33:03.445Z</time>
      </trkpt>
      <trkpt lat="49.330392" lon="10.334026">
        <ele>459.100167</ele>
        <time>2026-04-26T16:33:04.563Z</time>
      </trkpt>
      <trkpt lat="49.330362" lon="10.334065">
        <ele>459.035414</ele>
        <time>2026-04-26T16:33:05.332Z</time>
      </trkpt>
      <trkpt lat="49.329712" lon="10.334901">
        <ele>457.881846</ele>
        <time>2026-04-26T16:33:21.157Z</time>
      </trkpt>
      <trkpt lat="49.329455" lon="10.335271">
        <ele>457.809028</ele>
        <time>2026-04-26T16:33:27.608Z</time>
      </trkpt>
      <trkpt lat="49.329327" lon="10.335379">
        <ele>457.778844</ele>
        <time>2026-04-26T16:33:30.396Z</time>
      </trkpt>
      <trkpt lat="49.329221" lon="10.335469">
        <ele>457.753812</ele>
        <time>2026-04-26T16:33:32.808Z</time>
      </trkpt>
      <trkpt lat="49.329169" lon="10.335464">
        <ele>457.743046</ele>
        <time>2026-04-26T16:33:33.869Z</time>
      </trkpt>
      <trkpt lat="49.329090" lon="10.335456">
        <ele>457.726687</ele>
        <time>2026-04-26T16:33:35.454Z</time>
      </trkpt>
      <trkpt lat="49.328829" lon="10.335819">
        <ele>457.653900</ele>
        <time>2026-04-26T16:33:43.050Z</time>
      </trkpt>
      <trkpt lat="49.328489" lon="10.336288">
        <ele>457.559431</ele>
        <time>2026-04-26T16:33:55.552Z</time>
      </trkpt>
      <trkpt lat="49.328364" lon="10.336461">
        <ele>457.844265</ele>
        <time>2026-04-26T16:34:00.806Z</time>
      </trkpt>
      <trkpt lat="49.328219" lon="10.336683">
        <ele>458.463860</ele>
        <time>2026-04-26T16:34:07.878Z</time>
      </trkpt>
      <trkpt lat="49.328018" lon="10.337167">
        <ele>459.595242</ele>
        <time>2026-04-26T16:34:22.345Z</time>
      </trkpt>
      <trkpt lat="49.328012" lon="10.337242">
        <ele>459.744203</ele>
        <time>2026-04-26T16:34:24.329Z</time>
      </trkpt>
      <trkpt lat="49.327840" lon="10.337960">
        <ele>461.252230</ele>
        <time>2026-04-26T16:34:43.017Z</time>
      </trkpt>
      <trkpt lat="49.327811" lon="10.338060">
        <ele>461.468003</ele>
        <time>2026-04-26T16:34:45.593Z</time>
      </trkpt>
      <trkpt lat="49.327848" lon="10.338188">
        <ele>461.744044</ele>
        <time>2026-04-26T16:34:48.991Z</time>
      </trkpt>
      <trkpt lat="49.327812" lon="10.338368">
        <ele>462.115222</ele>
        <time>2026-04-26T16:34:53.517Z</time>
      </trkpt>
      <trkpt lat="49.327475" lon="10.339720">
        <ele>463.588976</ele>
        <time>2026-04-26T16:35:22.957Z</time>
      </trkpt>
      <trkpt lat="49.327359" lon="10.340204">
        <ele>463.898255</ele>
        <time>2026-04-26T16:35:31.566Z</time>
      </trkpt>
      <trkpt lat="49.327341" lon="10.340471">
        <ele>464.059241</ele>
        <time>2026-04-26T16:35:35.874Z</time>
      </trkpt>
      <trkpt lat="49.327360" lon="10.340699">
        <ele>464.197095</ele>
        <time>2026-04-26T16:35:39.498Z</time>
      </trkpt>
      <trkpt lat="49.328137" lon="10.343379">
        <ele>463.931858</ele>
        <time>2026-04-26T16:36:22.017Z</time>
      </trkpt>
      <trkpt lat="49.328225" lon="10.343808">
        <ele>463.786490</ele>
        <time>2026-04-26T16:36:27.934Z</time>
      </trkpt>
      <trkpt lat="49.328241" lon="10.344065">
        <ele>463.613878</ele>
        <time>2026-04-26T16:36:31.273Z</time>
      </trkpt>
      <trkpt lat="49.328225" lon="10.345817">
        <ele>461.943349</ele>
        <time>2026-04-26T16:36:53.079Z</time>
      </trkpt>
      <trkpt lat="49.328246" lon="10.346243">
        <ele>461.536039</ele>
        <time>2026-04-26T16:36:58.378Z</time>
      </trkpt>
      <trkpt lat="49.328311" lon="10.346793">
        <ele>460.995491</ele>
        <time>2026-04-26T16:37:05.338Z</time>
      </trkpt>
      <trkpt lat="49.328640" lon="10.348855">
        <ele>458.836672</ele>
        <time>2026-04-26T16:37:31.945Z</time>
      </trkpt>
      <trkpt lat="49.328861" lon="10.350452">
        <ele>456.888370</ele>
        <time>2026-04-26T16:37:51.998Z</time>
      </trkpt>
      <trkpt lat="49.328964" lon="10.351074">
        <ele>456.070044</ele>
        <time>2026-04-26T16:37:59.682Z</time>
      </trkpt>
      <trkpt lat="49.329048" lon="10.351345">
        <ele>455.687394</ele>
        <time>2026-04-26T16:38:03.244Z</time>
      </trkpt>
      <trkpt lat="49.329204" lon="10.351935">
        <ele>454.875519</ele>
        <time>2026-04-26T16:38:10.763Z</time>
      </trkpt>
      <trkpt lat="49.329251" lon="10.352353">
        <ele>454.349952</ele>
        <time>2026-04-26T16:38:15.772Z</time>
      </trkpt>
      <trkpt lat="49.329223" lon="10.353442">
        <ele>453.006791</ele>
        <time>2026-04-26T16:38:28.721Z</time>
      </trkpt>
      <trkpt lat="49.329255" lon="10.355625">
        <ele>450.644908</ele>
        <time>2026-04-26T16:38:55.904Z</time>
      </trkpt>
      <trkpt lat="49.329319" lon="10.358377">
        <ele>447.992364</ele>
        <time>2026-04-26T16:39:31.469Z</time>
      </trkpt>
      <trkpt lat="49.329399" lon="10.359239">
        <ele>446.948125</ele>
        <time>2026-04-26T16:39:41.914Z</time>
      </trkpt>
      <trkpt lat="49.329443" lon="10.359397">
        <ele>446.742059</ele>
        <time>2026-04-26T16:39:43.945Z</time>
      </trkpt>
      <trkpt lat="49.329541" lon="10.359474">
        <ele>446.539445</ele>
        <time>2026-04-26T16:39:45.927Z</time>
      </trkpt>
      <trkpt lat="49.329858" lon="10.359414">
        <ele>445.951662</ele>
        <time>2026-04-26T16:39:51.651Z</time>
      </trkpt>
      <trkpt lat="49.329891" lon="10.359818">
        <ele>445.472685</ele>
        <time>2026-04-26T16:39:59.758Z</time>
      </trkpt>
      <trkpt lat="49.330246" lon="10.362288">
        <ele>442.549123</ele>
        <time>2026-04-26T16:40:51.995Z</time>
      </trkpt>
      <trkpt lat="49.330294" lon="10.362802">
        <ele>442.332453</ele>
        <time>2026-04-26T16:41:03.940Z</time>
      </trkpt>
      <trkpt lat="49.330373" lon="10.363546">
        <ele>442.035339</ele>
        <time>2026-04-26T16:41:22.059Z</time>
      </trkpt>
      <trkpt lat="49.330475" lon="10.364508">
        <ele>441.651182</ele>
        <time>2026-04-26T16:41:45.606Z</time>
      </trkpt>
      <trkpt lat="49.330483" lon="10.364879">
        <ele>441.504873</ele>
        <time>2026-04-26T16:41:54.411Z</time>
      </trkpt>
      <trkpt lat="49.330296" lon="10.368154">
        <ele>437.630434</ele>
        <time>2026-04-26T16:43:02.664Z</time>
      </trkpt>
      <trkpt lat="49.330122" lon="10.369581">
        <ele>434.871158</ele>
        <time>2026-04-26T16:43:30.344Z</time>
      </trkpt>
      <trkpt lat="49.330133" lon="10.369877">
        <ele>434.307654</ele>
        <time>2026-04-26T16:43:35.967Z</time>
      </trkpt>
      <trkpt lat="49.330240" lon="10.370278">
        <ele>433.484087</ele>
        <time>2026-04-26T16:43:44.290Z</time>
      </trkpt>
      <trkpt lat="49.330347" lon="10.370418">
        <ele>433.082343</ele>
        <time>2026-04-26T16:43:48.471Z</time>
      </trkpt>
      <trkpt lat="49.330458" lon="10.370494">
        <ele>432.917769</ele>
        <time>2026-04-26T16:43:52.132Z</time>
      </trkpt>
      <trkpt lat="49.330583" lon="10.370530">
        <ele>432.745568</ele>
        <time>2026-04-26T16:43:56.013Z</time>
      </trkpt>
      <trkpt lat="49.330891" lon="10.370520">
        <ele>432.328451</ele>
        <time>2026-04-26T16:44:05.599Z</time>
      </trkpt>
      <trkpt lat="49.331497" lon="10.370350">
        <ele>431.494346</ele>
        <time>2026-04-26T16:44:26.020Z</time>
      </trkpt>
      <trkpt lat="49.331881" lon="10.370327">
        <ele>430.974025</ele>
        <time>2026-04-26T16:44:39.845Z</time>
      </trkpt>
      <trkpt lat="49.333259" lon="10.370571">
        <ele>430.413110</ele>
        <time>2026-04-26T16:45:31.281Z</time>
      </trkpt>
      <trkpt lat="49.333897" lon="10.370850">
        <ele>430.268567</ele>
        <time>2026-04-26T16:45:54.862Z</time>
      </trkpt>
      <trkpt lat="49.333995" lon="10.370851">
        <ele>430.213533</ele>
        <time>2026-04-26T16:45:58.308Z</time>
      </trkpt>
      <trkpt lat="49.334071" lon="10.370955">
        <ele>430.156351</ele>
        <time>2026-04-26T16:46:00.430Z</time>
      </trkpt>
      <trkpt lat="49.334199" lon="10.371056">
        <ele>430.075526</ele>
        <time>2026-04-26T16:46:03.420Z</time>
      </trkpt>
      <trkpt lat="49.335037" lon="10.371327">
        <ele>429.594606</ele>
        <time>2026-04-26T16:46:20.961Z</time>
      </trkpt>
      <trkpt lat="49.335602" lon="10.371586">
        <ele>429.266990</ele>
        <time>2026-04-26T16:46:33.588Z</time>
      </trkpt>
      <trkpt lat="49.335755" lon="10.371652">
        <ele>429.258361</ele>
        <time>2026-04-26T16:46:37.330Z</time>
      </trkpt>
      <trkpt lat="49.335814" lon="10.371745">
        <ele>429.253770</ele>
        <time>2026-04-26T16:46:39.362Z</time>
      </trkpt>
      <trkpt lat="49.335907" lon="10.372077">
        <ele>429.240985</ele>
        <time>2026-04-26T16:46:44.997Z</time>
      </trkpt>
      <trkpt lat="49.335946" lon="10.372621">
        <ele>429.221624</ele>
        <time>2026-04-26T16:46:53.916Z</time>
      </trkpt>
      <trkpt lat="49.336030" lon="10.372831">
        <ele>429.212907</ele>
        <time>2026-04-26T16:46:57.725Z</time>
      </trkpt>
      <trkpt lat="49.336166" lon="10.372941">
        <ele>429.204561</ele>
        <time>2026-04-26T16:47:01.145Z</time>
      </trkpt>
      <trkpt lat="49.336193" lon="10.373517">
        <ele>429.184131</ele>
        <time>2026-04-26T16:47:09.313Z</time>
      </trkpt>
      <trkpt lat="49.336249" lon="10.373649">
        <ele>429.178559</ele>
        <time>2026-04-26T16:47:11.632Z</time>
      </trkpt>
      <trkpt lat="49.336526" lon="10.373847">
        <ele>429.247879</ele>
        <time>2026-04-26T16:47:18.574Z</time>
      </trkpt>
      <trkpt lat="49.336565" lon="10.374194">
        <ele>429.373545</ele>
        <time>2026-04-26T16:47:23.630Z</time>
      </trkpt>
      <trkpt lat="49.336576" lon="10.374261">
        <ele>429.398203</ele>
        <time>2026-04-26T16:47:24.684Z</time>
      </trkpt>
      <trkpt lat="49.336677" lon="10.374747">
        <ele>429.580254</ele>
        <time>2026-04-26T16:47:32.301Z</time>
      </trkpt>
      <trkpt lat="49.336695" lon="10.374810">
        <ele>429.604804</ele>
        <time>2026-04-26T16:47:33.396Z</time>
      </trkpt>
      <trkpt lat="49.336998" lon="10.375369">
        <ele>429.864298</ele>
        <time>2026-04-26T16:47:45.433Z</time>
      </trkpt>
      <trkpt lat="49.337227" lon="10.375355">
        <ele>429.989818</ele>
        <time>2026-04-26T16:47:51.505Z</time>
      </trkpt>
      <trkpt lat="49.337382" lon="10.375423">
        <ele>430.078110</ele>
        <time>2026-04-26T16:47:56.134Z</time>
      </trkpt>
      <trkpt lat="49.337602" lon="10.375868">
        <ele>430.219770</ele>
        <time>2026-04-26T16:48:06.578Z</time>
      </trkpt>
      <trkpt lat="49.337856" lon="10.375822">
        <ele>430.293964</ele>
        <time>2026-04-26T16:48:13.496Z</time>
      </trkpt>
      <trkpt lat="49.338350" lon="10.375518">
        <ele>430.448359</ele>
        <time>2026-04-26T16:48:26.815Z</time>
      </trkpt>
      <trkpt lat="49.338897" lon="10.375231">
        <ele>430.616056</ele>
        <time>2026-04-26T16:48:39.163Z</time>
      </trkpt>
      <trkpt lat="49.339371" lon="10.375113">
        <ele>430.652561</ele>
        <time>2026-04-26T16:48:49.757Z</time>
      </trkpt>
      <trkpt lat="49.339624" lon="10.375066">
        <ele>430.630023</ele>
        <time>2026-04-26T16:48:55.543Z</time>
      </trkpt>
      <trkpt lat="49.340582" lon="10.375140">
        <ele>430.545194</ele>
        <time>2026-04-26T16:49:17.631Z</time>
      </trkpt>
      <trkpt lat="49.340925" lon="10.375226">
        <ele>430.487074</ele>
        <time>2026-04-26T16:49:25.122Z</time>
      </trkpt>
      <trkpt lat="49.341124" lon="10.375312">
        <ele>430.304827</ele>
        <time>2026-04-26T16:49:29.375Z</time>
      </trkpt>
      <trkpt lat="49.341326" lon="10.375463">
        <ele>430.106760</ele>
        <time>2026-04-26T16:49:33.850Z</time>
      </trkpt>
      <trkpt lat="49.341535" lon="10.375710">
        <ele>429.874228</ele>
        <time>2026-04-26T16:49:38.901Z</time>
      </trkpt>
      <trkpt lat="49.342415" lon="10.377339">
        <ele>428.823098</ele>
        <time>2026-04-26T16:50:05.011Z</time>
      </trkpt>
      <trkpt lat="49.342515" lon="10.377670">
        <ele>428.739579</ele>
        <time>2026-04-26T16:50:09.822Z</time>
      </trkpt>
      <trkpt lat="49.342575" lon="10.377989">
        <ele>428.663574</ele>
        <time>2026-04-26T16:50:14.276Z</time>
      </trkpt>
      <trkpt lat="49.342687" lon="10.380875">
        <ele>428.300012</ele>
        <time>2026-04-26T16:50:56.347Z</time>
      </trkpt>
      <trkpt lat="49.342730" lon="10.382222">
        <ele>428.300012</ele>
        <time>2026-04-26T16:51:15.716Z</time>
      </trkpt>
      <trkpt lat="49.342706" lon="10.382554">
        <ele>428.303710</ele>
        <time>2026-04-26T16:51:20.564Z</time>
      </trkpt>
      <trkpt lat="49.342624" lon="10.382928">
        <ele>428.310198</ele>
        <time>2026-04-26T16:51:26.307Z</time>
      </trkpt>
      <trkpt lat="49.342550" lon="10.383172">
        <ele>428.314622</ele>
        <time>2026-04-26T16:51:30.242Z</time>
      </trkpt>
      <trkpt lat="49.342284" lon="10.384051">
        <ele>428.330557</ele>
        <time>2026-04-26T16:51:44.487Z</time>
      </trkpt>
      <trkpt lat="49.341989" lon="10.385186">
        <ele>428.291504</ele>
        <time>2026-04-26T16:52:02.513Z</time>
      </trkpt>
      <trkpt lat="49.341728" lon="10.386468">
        <ele>428.064734</ele>
        <time>2026-04-26T16:52:21.415Z</time>
      </trkpt>
      <trkpt lat="49.341470" lon="10.388020">
        <ele>427.668169</ele>
        <time>2026-04-26T16:52:42.886Z</time>
      </trkpt>
      <trkpt lat="49.341433" lon="10.388455">
        <ele>427.484198</ele>
        <time>2026-04-26T16:52:48.622Z</time>
      </trkpt>
      <trkpt lat="49.341435" lon="10.388829">
        <ele>427.327350</ele>
        <time>2026-04-26T16:52:53.431Z</time>
      </trkpt>
      <trkpt lat="49.341514" lon="10.390266">
        <ele>426.722583</ele>
        <time>2026-04-26T16:53:11.978Z</time>
      </trkpt>
      <trkpt lat="49.341531" lon="10.390543">
        <ele>426.746484</ele>
        <time>2026-04-26T16:53:15.682Z</time>
      </trkpt>
      <trkpt lat="49.341536" lon="10.390629">
        <ele>426.754261</ele>
        <time>2026-04-26T16:53:16.844Z</time>
      </trkpt>
      <trkpt lat="49.341703" lon="10.391068">
        <ele>426.800049</ele>
        <time>2026-04-26T16:53:24.141Z</time>
      </trkpt>
      <trkpt lat="49.341893" lon="10.392367">
        <ele>426.919964</ele>
        <time>2026-04-26T16:53:44.864Z</time>
      </trkpt>
      <trkpt lat="49.342148" lon="10.393614">
        <ele>427.549821</ele>
        <time>2026-04-26T16:54:08.008Z</time>
      </trkpt>
      <trkpt lat="49.342268" lon="10.394432">
        <ele>428.199146</ele>
        <time>2026-04-26T16:54:23.694Z</time>
      </trkpt>
      <trkpt lat="49.342314" lon="10.395362">
        <ele>428.921418</ele>
        <time>2026-04-26T16:54:41.275Z</time>
      </trkpt>
      <trkpt lat="49.342312" lon="10.395488">
        <ele>429.019022</ele>
        <time>2026-04-26T16:54:43.652Z</time>
      </trkpt>
      <trkpt lat="49.342326" lon="10.396261">
        <ele>429.248004</ele>
        <time>2026-04-26T16:54:57.503Z</time>
      </trkpt>
      <trkpt lat="49.342307" lon="10.396627">
        <ele>429.326032</ele>
        <time>2026-04-26T16:55:03.834Z</time>
      </trkpt>
      <trkpt lat="49.342034" lon="10.399324">
        <ele>429.319328</ele>
        <time>2026-04-26T16:55:44.070Z</time>
      </trkpt>
      <trkpt lat="49.342331" lon="10.399410">
        <ele>429.144134</ele>
        <time>2026-04-26T16:55:49.914Z</time>
      </trkpt>
      <trkpt lat="49.342756" lon="10.399422">
        <ele>428.897739</ele>
        <time>2026-04-26T16:55:58.151Z</time>
      </trkpt>
      <trkpt lat="49.343292" lon="10.399350">
        <ele>428.646286</ele>
        <time>2026-04-26T16:56:08.747Z</time>
      </trkpt>
      <trkpt lat="49.343388" lon="10.399280">
        <ele>428.640792</ele>
        <time>2026-04-26T16:56:10.900Z</time>
      </trkpt>
      <trkpt lat="49.343594" lon="10.399263">
        <ele>428.630130</ele>
        <time>2026-04-26T16:56:15.183Z</time>
      </trkpt>
      <trkpt lat="49.343825" lon="10.399437">
        <ele>428.616830</ele>
        <time>2026-04-26T16:56:20.710Z</time>
      </trkpt>
      <trkpt lat="49.343976" lon="10.399741">
        <ele>428.603958</ele>
        <time>2026-04-26T16:56:26.276Z</time>
      </trkpt>
      <trkpt lat="49.346965" lon="10.400218">
        <ele>429.073782</ele>
        <time>2026-04-26T16:57:36.633Z</time>
      </trkpt>
      <trkpt lat="49.347139" lon="10.400219">
        <ele>429.075003</ele>
        <time>2026-04-26T16:57:40.557Z</time>
      </trkpt>
      <trkpt lat="49.347392" lon="10.400141">
        <ele>429.076815</ele>
        <time>2026-04-26T16:57:46.320Z</time>
      </trkpt>
      <trkpt lat="49.349896" lon="10.398801">
        <ele>429.077946</ele>
        <time>2026-04-26T16:58:44.262Z</time>
      </trkpt>
      <trkpt lat="49.349984" lon="10.399050">
        <ele>429.085686</ele>
        <time>2026-04-26T16:58:48.614Z</time>
      </trkpt>
      <trkpt lat="49.350058" lon="10.399413">
        <ele>429.253925</ele>
        <time>2026-04-26T16:58:54.586Z</time>
      </trkpt>
      <trkpt lat="49.350076" lon="10.399790">
        <ele>429.421126</ele>
        <time>2026-04-26T16:59:00.655Z</time>
      </trkpt>
      <trkpt lat="49.350030" lon="10.401290">
        <ele>430.085338</ele>
        <time>2026-04-26T16:59:25.674Z</time>
      </trkpt>
      <trkpt lat="49.349883" lon="10.403280">
        <ele>431.206030</ele>
        <time>2026-04-26T16:59:59.154Z</time>
      </trkpt>
      <trkpt lat="49.349850" lon="10.403913">
        <ele>431.584979</ele>
        <time>2026-04-26T17:00:09.823Z</time>
      </trkpt>
      <trkpt lat="49.349853" lon="10.404274">
        <ele>431.800422</ele>
        <time>2026-04-26T17:00:15.943Z</time>
      </trkpt>
      <trkpt lat="49.349881" lon="10.404694">
        <ele>432.067530</ele>
        <time>2026-04-26T17:00:23.188Z</time>
      </trkpt>
      <trkpt lat="49.350109" lon="10.406632">
        <ele>433.410604</ele>
        <time>2026-04-26T17:00:57.479Z</time>
      </trkpt>
      <trkpt lat="49.350120" lon="10.406978">
        <ele>433.646852</ele>
        <time>2026-04-26T17:01:03.449Z</time>
      </trkpt>
      <trkpt lat="49.350100" lon="10.407663">
        <ele>434.098529</ele>
        <time>2026-04-26T17:01:14.930Z</time>
      </trkpt>
      <trkpt lat="49.350464" lon="10.408166">
        <ele>434.582584</ele>
        <time>2026-04-26T17:01:27.454Z</time>
      </trkpt>
      <trkpt lat="49.350851" lon="10.407731">
        <ele>435.056651</ele>
        <time>2026-04-26T17:01:39.763Z</time>
      </trkpt>
      <trkpt lat="49.351555" lon="10.406939">
        <ele>436.245686</ele>
        <time>2026-04-26T17:02:02.983Z</time>
      </trkpt>
      <trkpt lat="49.351762" lon="10.406729">
        <ele>436.747126</ele>
        <time>2026-04-26T17:02:10.077Z</time>
      </trkpt>
      <trkpt lat="49.352197" lon="10.407609">
        <ele>438.201428</ele>
        <time>2026-04-26T17:02:32.052Z</time>
      </trkpt>
      <trkpt lat="49.352237" lon="10.407633">
        <ele>438.288222</ele>
        <time>2026-04-26T17:02:33.398Z</time>
      </trkpt>
      <trkpt lat="49.352348" lon="10.407563">
        <ele>438.530741</ele>
        <time>2026-04-26T17:02:37.272Z</time>
      </trkpt>
      <trkpt lat="49.352410" lon="10.407566">
        <ele>438.656104</ele>
        <time>2026-04-26T17:02:39.252Z</time>
      </trkpt>
      <trkpt lat="49.352461" lon="10.407622">
        <ele>438.782826</ele>
        <time>2026-04-26T17:02:41.313Z</time>
      </trkpt>
      <trkpt lat="49.352977" lon="10.408557">
        <ele>440.985301</ele>
        <time>2026-04-26T17:03:08.376Z</time>
      </trkpt>
      <trkpt lat="49.353096" lon="10.408656">
        <ele>441.398488</ele>
        <time>2026-04-26T17:03:13.369Z</time>
      </trkpt>
      <trkpt lat="49.353278" lon="10.408976">
        <ele>442.243237</ele>
        <time>2026-04-26T17:03:23.607Z</time>
      </trkpt>
      <trkpt lat="49.353168" lon="10.409105">
        <ele>442.665804</ele>
        <time>2026-04-26T17:03:28.877Z</time>
      </trkpt>
      <trkpt lat="49.353485" lon="10.409753">
        <ele>444.277281</ele>
        <time>2026-04-26T17:03:51.349Z</time>
      </trkpt>
      <trkpt lat="49.353601" lon="10.409784">
        <ele>444.636722</ele>
        <time>2026-04-26T17:03:56.183Z</time>
      </trkpt>
      <trkpt lat="49.353832" lon="10.410324">
        <ele>445.007154</ele>
        <time>2026-04-26T17:04:12.704Z</time>
      </trkpt>
      <trkpt lat="49.354636" lon="10.409655">
        <ele>445.651803</ele>
        <time>2026-04-26T17:04:36.212Z</time>
      </trkpt>
      <trkpt lat="49.354853" lon="10.409422">
        <ele>445.838470</ele>
        <time>2026-04-26T17:04:41.350Z</time>
      </trkpt>
      <trkpt lat="49.355271" lon="10.408927">
        <ele>445.621128</ele>
        <time>2026-04-26T17:04:51.072Z</time>
      </trkpt>
      <trkpt lat="49.355853" lon="10.408095">
        <ele>444.608436</ele>
        <time>2026-04-26T17:05:05.391Z</time>
      </trkpt>
      <trkpt lat="49.356002" lon="10.407766">
        <ele>444.276063</ele>
        <time>2026-04-26T17:05:10.163Z</time>
      </trkpt>
      <trkpt lat="49.356078" lon="10.407441">
        <ele>443.989643</ele>
        <time>2026-04-26T17:05:14.373Z</time>
      </trkpt>
      <trkpt lat="49.356111" lon="10.407107">
        <ele>443.710398</ele>
        <time>2026-04-26T17:05:18.661Z</time>
      </trkpt>
      <trkpt lat="49.356125" lon="10.406970">
        <ele>443.758818</ele>
        <time>2026-04-26T17:05:20.495Z</time>
      </trkpt>
      <trkpt lat="49.356242" lon="10.406131">
        <ele>444.058405</ele>
        <time>2026-04-26T17:05:32.552Z</time>
      </trkpt>
      <trkpt lat="49.356404" lon="10.405118">
        <ele>444.422611</ele>
        <time>2026-04-26T17:05:49.775Z</time>
      </trkpt>
      <trkpt lat="49.356505" lon="10.404470">
        <ele>444.655256</ele>
        <time>2026-04-26T17:06:01.444Z</time>
      </trkpt>
      <trkpt lat="49.356621" lon="10.404514">
        <ele>444.888156</ele>
        <time>2026-04-26T17:06:04.945Z</time>
      </trkpt>
      <trkpt lat="49.356999" lon="10.403772">
        <ele>446.450631</ele>
        <time>2026-04-26T17:06:23.860Z</time>
      </trkpt>
      <trkpt lat="49.357101" lon="10.403575">
        <ele>446.868053</ele>
        <time>2026-04-26T17:06:29.418Z</time>
      </trkpt>
      <trkpt lat="49.357292" lon="10.403251">
        <ele>447.592888</ele>
        <time>2026-04-26T17:06:39.629Z</time>
      </trkpt>
      <trkpt lat="49.357616" lon="10.402845">
        <ele>448.657902</ele>
        <time>2026-04-26T17:06:54.686Z</time>
      </trkpt>
      <trkpt lat="49.357917" lon="10.402848">
        <ele>449.263014</ele>
        <time>2026-04-26T17:07:05.274Z</time>
      </trkpt>
      <trkpt lat="49.358694" lon="10.402654">
        <ele>449.362034</ele>
        <time>2026-04-26T17:07:28.452Z</time>
      </trkpt>
      <trkpt lat="49.358778" lon="10.402618">
        <ele>449.373004</ele>
        <time>2026-04-26T17:07:30.431Z</time>
      </trkpt>
      <trkpt lat="49.358973" lon="10.402409">
        <ele>449.402917</ele>
        <time>2026-04-26T17:07:35.197Z</time>
      </trkpt>
      <trkpt lat="49.359048" lon="10.402330">
        <ele>449.414358</ele>
        <time>2026-04-26T17:07:36.879Z</time>
      </trkpt>
      <trkpt lat="49.359248" lon="10.402001">
        <ele>449.451228</ele>
        <time>2026-04-26T17:07:42.018Z</time>
      </trkpt>
      <trkpt lat="49.359602" lon="10.401349">
        <ele>449.246525</ele>
        <time>2026-04-26T17:07:51.129Z</time>
      </trkpt>
      <trkpt lat="49.359774" lon="10.401112">
        <ele>449.075779</ele>
        <time>2026-04-26T17:07:55.015Z</time>
      </trkpt>
      <trkpt lat="49.359917" lon="10.400984">
        <ele>448.953486</ele>
        <time>2026-04-26T17:07:57.927Z</time>
      </trkpt>
      <trkpt lat="49.360015" lon="10.400938">
        <ele>448.877774</ele>
        <time>2026-04-26T17:07:59.791Z</time>
      </trkpt>
      <trkpt lat="49.360497" lon="10.400895">
        <ele>448.521065</ele>
        <time>2026-04-26T17:08:09.824Z</time>
      </trkpt>
      <trkpt lat="49.361024" lon="10.400658">
        <ele>448.208038</ele>
        <time>2026-04-26T17:08:24.731Z</time>
      </trkpt>
      <trkpt lat="49.361358" lon="10.400532">
        <ele>448.596434</ele>
        <time>2026-04-26T17:08:35.142Z</time>
      </trkpt>
      <trkpt lat="49.361623" lon="10.400512">
        <ele>448.896054</ele>
        <time>2026-04-26T17:08:43.230Z</time>
      </trkpt>
      <trkpt lat="49.361841" lon="10.400597">
        <ele>449.150050</ele>
        <time>2026-04-26T17:08:49.847Z</time>
      </trkpt>
      <trkpt lat="49.362091" lon="10.400822">
        <ele>449.477293</ele>
        <time>2026-04-26T17:08:57.627Z</time>
      </trkpt>
      <trkpt lat="49.362529" lon="10.401373">
        <ele>450.116726</ele>
        <time>2026-04-26T17:09:10.671Z</time>
      </trkpt>
      <trkpt lat="49.362669" lon="10.401502">
        <ele>450.273280</ele>
        <time>2026-04-26T17:09:14.569Z</time>
      </trkpt>
      <trkpt lat="49.362834" lon="10.401551">
        <ele>450.418281</ele>
        <time>2026-04-26T17:09:18.846Z</time>
      </trkpt>
      <trkpt lat="49.363034" lon="10.401431">
        <ele>450.603549</ele>
        <time>2026-04-26T17:09:24.134Z</time>
      </trkpt>
      <trkpt lat="49.363358" lon="10.401166">
        <ele>450.920284</ele>
        <time>2026-04-26T17:09:33.199Z</time>
      </trkpt>
      <trkpt lat="49.363805" lon="10.400865">
        <ele>451.341415</ele>
        <time>2026-04-26T17:09:45.566Z</time>
      </trkpt>
      <trkpt lat="49.364168" lon="10.400761">
        <ele>451.660019</ele>
        <time>2026-04-26T17:09:55.749Z</time>
      </trkpt>
      <trkpt lat="49.365040" lon="10.400706">
        <ele>451.767830</ele>
        <time>2026-04-26T17:10:21.060Z</time>
      </trkpt>
      <trkpt lat="49.365863" lon="10.400625">
        <ele>451.802226</ele>
        <time>2026-04-26T17:10:36.734Z</time>
      </trkpt>
      <trkpt lat="49.365964" lon="10.400545">
        <ele>451.806966</ele>
        <time>2026-04-26T17:10:38.867Z</time>
      </trkpt>
      <trkpt lat="49.366002" lon="10.400422">
        <ele>451.803402</ele>
        <time>2026-04-26T17:10:40.496Z</time>
      </trkpt>
      <trkpt lat="49.366015" lon="10.399506">
        <ele>451.521283</ele>
        <time>2026-04-26T17:10:51.927Z</time>
      </trkpt>
      <trkpt lat="49.366048" lon="10.399316">
        <ele>451.460734</ele>
        <time>2026-04-26T17:10:54.336Z</time>
      </trkpt>
      <trkpt lat="49.366340" lon="10.399583">
        <ele>451.300044</ele>
        <time>2026-04-26T17:11:00.666Z</time>
      </trkpt>
      <trkpt lat="49.366532" lon="10.399685">
        <ele>451.203982</ele>
        <time>2026-04-26T17:11:04.729Z</time>
      </trkpt>
      <trkpt lat="49.366767" lon="10.399741">
        <ele>451.091538</ele>
        <time>2026-04-26T17:11:10.180Z</time>
      </trkpt>
      <trkpt lat="49.368366" lon="10.399676">
        <ele>452.454651</ele>
        <time>2026-04-26T17:11:54.637Z</time>
      </trkpt>
      <trkpt lat="49.368799" lon="10.399714">
        <ele>452.945650</ele>
        <time>2026-04-26T17:12:05.752Z</time>
      </trkpt>
      <trkpt lat="49.369245" lon="10.399849">
        <ele>452.939459</ele>
        <time>2026-04-26T17:12:17.399Z</time>
      </trkpt>
      <trkpt lat="49.369633" lon="10.400038">
        <ele>452.883485</ele>
        <time>2026-04-26T17:12:27.675Z</time>
      </trkpt>
      <trkpt lat="49.370522" lon="10.400674">
        <ele>452.748624</ele>
        <time>2026-04-26T17:12:47.340Z</time>
      </trkpt>
      <trkpt lat="49.371202" lon="10.401207">
        <ele>451.554584</ele>
        <time>2026-04-26T17:13:00.946Z</time>
      </trkpt>
      <trkpt lat="49.372822" lon="10.402616">
        <ele>449.540632</ele>
        <time>2026-04-26T17:13:34.685Z</time>
      </trkpt>
      <trkpt lat="49.373201" lon="10.403063">
        <ele>449.313437</ele>
        <time>2026-04-26T17:13:45.183Z</time>
      </trkpt>
      <trkpt lat="49.373509" lon="10.403623">
        <ele>449.086508</ele>
        <time>2026-04-26T17:13:57.183Z</time>
      </trkpt>
      <trkpt lat="49.373689" lon="10.404143">
        <ele>449.357674</ele>
        <time>2026-04-26T17:14:07.653Z</time>
      </trkpt>
      <trkpt lat="49.373976" lon="10.405215">
        <ele>449.934167</ele>
        <time>2026-04-26T17:14:27.860Z</time>
      </trkpt>
      <trkpt lat="49.374106" lon="10.405523">
        <ele>450.116727</ele>
        <time>2026-04-26T17:14:33.846Z</time>
      </trkpt>
      <trkpt lat="49.374312" lon="10.405749">
        <ele>450.310108</ele>
        <time>2026-04-26T17:14:39.958Z</time>
      </trkpt>
      <trkpt lat="49.374693" lon="10.405870">
        <ele>450.459023</ele>
        <time>2026-04-26T17:14:48.976Z</time>
      </trkpt>
      <trkpt lat="49.374991" lon="10.406017">
        <ele>450.469698</ele>
        <time>2026-04-26T17:14:55.856Z</time>
      </trkpt>
      <trkpt lat="49.375262" lon="10.406270">
        <ele>450.480515</ele>
        <time>2026-04-26T17:15:02.680Z</time>
      </trkpt>
      <trkpt lat="49.375563" lon="10.406622">
        <ele>450.493419</ele>
        <time>2026-04-26T17:15:10.998Z</time>
      </trkpt>
      <trkpt lat="49.375782" lon="10.406949">
        <ele>450.503836</ele>
        <time>2026-04-26T17:15:17.953Z</time>
      </trkpt>
      <trkpt lat="49.376566" lon="10.408497">
        <ele>449.365040</ele>
        <time>2026-04-26T17:15:45.828Z</time>
      </trkpt>
      <trkpt lat="49.376717" lon="10.408661">
        <ele>449.151661</ele>
        <time>2026-04-26T17:15:49.212Z</time>
      </trkpt>
      <trkpt lat="49.376913" lon="10.408771">
        <ele>448.910896</ele>
        <time>2026-04-26T17:15:52.884Z</time>
      </trkpt>
      <trkpt lat="49.377075" lon="10.408797">
        <ele>448.722966</ele>
        <time>2026-04-26T17:15:55.646Z</time>
      </trkpt>
      <trkpt lat="49.377288" lon="10.408757">
        <ele>448.475381</ele>
        <time>2026-04-26T17:15:59.198Z</time>
      </trkpt>
      <trkpt lat="49.378432" lon="10.408347">
        <ele>445.460200</ele>
        <time>2026-04-26T17:16:18.417Z</time>
      </trkpt>
      <trkpt lat="49.378530" lon="10.408306">
        <ele>445.195452</ele>
        <time>2026-04-26T17:16:20.169Z</time>
      </trkpt>
      <trkpt lat="49.379584" lon="10.408004">
        <ele>442.893052</ele>
        <time>2026-04-26T17:16:39.059Z</time>
      </trkpt>
      <trkpt lat="49.380389" lon="10.407656">
        <ele>441.508626</ele>
        <time>2026-04-26T17:16:54.300Z</time>
      </trkpt>
      <trkpt lat="49.380453" lon="10.407614">
        <ele>441.393411</ele>
        <time>2026-04-26T17:16:55.562Z</time>
      </trkpt>
      <trkpt lat="49.380795" lon="10.407371">
        <ele>440.771266</ele>
        <time>2026-04-26T17:17:02.398Z</time>
      </trkpt>
      <trkpt lat="49.380888" lon="10.407401">
        <ele>440.709116</ele>
        <time>2026-04-26T17:17:04.152Z</time>
      </trkpt>
      <trkpt lat="49.381079" lon="10.406948">
        <ele>440.479320</ele>
        <time>2026-04-26T17:17:10.865Z</time>
      </trkpt>
      <trkpt lat="49.381566" lon="10.406054">
        <ele>439.982999</ele>
        <time>2026-04-26T17:17:26.683Z</time>
      </trkpt>
      <trkpt lat="49.381682" lon="10.405744">
        <ele>439.830759</ele>
        <time>2026-04-26T17:17:31.706Z</time>
      </trkpt>
      <trkpt lat="49.381749" lon="10.405362">
        <ele>439.662314</ele>
        <time>2026-04-26T17:17:37.191Z</time>
      </trkpt>
      <trkpt lat="49.381736" lon="10.404783">
        <ele>439.383118</ele>
        <time>2026-04-26T17:17:45.039Z</time>
      </trkpt>
      <trkpt lat="49.381670" lon="10.404430">
        <ele>439.198545</ele>
        <time>2026-04-26T17:17:49.863Z</time>
      </trkpt>
      <trkpt lat="49.381380" lon="10.403816">
        <ele>438.817322</ele>
        <time>2026-04-26T17:17:59.553Z</time>
      </trkpt>
      <trkpt lat="49.380762" lon="10.402672">
        <ele>438.062157</ele>
        <time>2026-04-26T17:18:18.131Z</time>
      </trkpt>
      <trkpt lat="49.379885" lon="10.401018">
        <ele>436.927021</ele>
        <time>2026-04-26T17:18:45.448Z</time>
      </trkpt>
      <trkpt lat="49.379780" lon="10.400662">
        <ele>436.726984</ele>
        <time>2026-04-26T17:18:50.674Z</time>
      </trkpt>
      <trkpt lat="49.379714" lon="10.400127">
        <ele>436.562655</ele>
        <time>2026-04-26T17:18:57.985Z</time>
      </trkpt>
      <trkpt lat="49.379660" lon="10.398834">
        <ele>436.171643</ele>
        <time>2026-04-26T17:19:15.506Z</time>
      </trkpt>
      <trkpt lat="49.379828" lon="10.396183">
        <ele>435.611018</ele>
        <time>2026-04-26T17:19:51.828Z</time>
      </trkpt>
      <trkpt lat="49.379836" lon="10.395589">
        <ele>435.513098</ele>
        <time>2026-04-26T17:20:00.191Z</time>
      </trkpt>
      <trkpt lat="49.379846" lon="10.394951">
        <ele>435.466614</ele>
        <time>2026-04-26T17:20:09.324Z</time>
      </trkpt>
      <trkpt lat="49.379836" lon="10.393572">
        <ele>435.569640</ele>
        <time>2026-04-26T17:20:29.774Z</time>
      </trkpt>
      <trkpt lat="49.379831" lon="10.390615">
        <ele>435.683640</ele>
        <time>2026-04-26T17:21:14.112Z</time>
      </trkpt>
      <trkpt lat="49.379795" lon="10.390233">
        <ele>435.689784</ele>
        <time>2026-04-26T17:21:19.544Z</time>
      </trkpt>
      <trkpt lat="49.379101" lon="10.386939">
        <ele>435.170414</ele>
        <time>2026-04-26T17:22:06.215Z</time>
      </trkpt>
      <trkpt lat="49.380936" lon="10.386770">
        <ele>435.968777</ele>
        <time>2026-04-26T17:22:51.788Z</time>
      </trkpt>
      <trkpt lat="49.381871" lon="10.386600">
        <ele>436.263073</ele>
        <time>2026-04-26T17:23:14.959Z</time>
      </trkpt>
      <trkpt lat="49.382094" lon="10.384913">
        <ele>436.269823</ele>
        <time>2026-04-26T17:23:40.544Z</time>
      </trkpt>
      <trkpt lat="49.382134" lon="10.384437">
        <ele>436.095832</ele>
        <time>2026-04-26T17:23:47.168Z</time>
      </trkpt>
      <trkpt lat="49.382137" lon="10.383984">
        <ele>435.931602</ele>
        <time>2026-04-26T17:23:53.367Z</time>
      </trkpt>
      <trkpt lat="49.382032" lon="10.382775">
        <ele>435.489433</ele>
        <time>2026-04-26T17:24:09.824Z</time>
      </trkpt>
      <trkpt lat="49.382020" lon="10.382228">
        <ele>435.225151</ele>
        <time>2026-04-26T17:24:17.193Z</time>
      </trkpt>
      <trkpt lat="49.382268" lon="10.379291">
        <ele>433.972692</ele>
        <time>2026-04-26T17:24:57.338Z</time>
      </trkpt>
      <trkpt lat="49.382258" lon="10.378880">
        <ele>433.873302</ele>
        <time>2026-04-26T17:25:02.972Z</time>
      </trkpt>
      <trkpt lat="49.382210" lon="10.378515">
        <ele>433.783316</ele>
        <time>2026-04-26T17:25:08.095Z</time>
      </trkpt>
      <trkpt lat="49.382118" lon="10.378075">
        <ele>433.671637</ele>
        <time>2026-04-26T17:25:14.521Z</time>
      </trkpt>
      <trkpt lat="49.381739" lon="10.376702">
        <ele>433.739548</ele>
        <time>2026-04-26T17:25:37.708Z</time>
      </trkpt>
      <trkpt lat="49.381706" lon="10.376354">
        <ele>433.864596</ele>
        <time>2026-04-26T17:25:44.003Z</time>
      </trkpt>
      <trkpt lat="49.381751" lon="10.376083">
        <ele>433.964043</ele>
        <time>2026-04-26T17:25:49.154Z</time>
      </trkpt>
      <trkpt lat="49.382329" lon="10.375034">
        <ele>434.452712</ele>
        <time>2026-04-26T17:26:12.933Z</time>
      </trkpt>
      <trkpt lat="49.382475" lon="10.374667">
        <ele>434.360636</ele>
        <time>2026-04-26T17:26:19.277Z</time>
      </trkpt>
      <trkpt lat="49.382654" lon="10.373896">
        <ele>434.137509</ele>
        <time>2026-04-26T17:26:30.525Z</time>
      </trkpt>
      <trkpt lat="49.382809" lon="10.373410">
        <ele>433.989990</ele>
        <time>2026-04-26T17:26:37.671Z</time>
      </trkpt>
      <trkpt lat="49.382846" lon="10.373299">
        <ele>433.955997</ele>
        <time>2026-04-26T17:26:39.268Z</time>
      </trkpt>
      <trkpt lat="49.382986" lon="10.372881">
        <ele>433.827863</ele>
        <time>2026-04-26T17:26:45.079Z</time>
      </trkpt>
      <trkpt lat="49.383406" lon="10.371782">
        <ele>434.091623</ele>
        <time>2026-04-26T17:27:03.079Z</time>
      </trkpt>
      <trkpt lat="49.383534" lon="10.371237">
        <ele>434.347303</ele>
        <time>2026-04-26T17:27:13.740Z</time>
      </trkpt>
      <trkpt lat="49.383554" lon="10.370871">
        <ele>434.509386</ele>
        <time>2026-04-26T17:27:20.428Z</time>
      </trkpt>
      <trkpt lat="49.384077" lon="10.370810">
        <ele>434.864939</ele>
        <time>2026-04-26T17:27:34.443Z</time>
      </trkpt>
      <trkpt lat="49.384136" lon="10.370809">
        <ele>434.904936</ele>
        <time>2026-04-26T17:27:35.921Z</time>
      </trkpt>
      <trkpt lat="49.384384" lon="10.370807">
        <ele>434.864007</ele>
        <time>2026-04-26T17:27:42.295Z</time>
      </trkpt>
      <trkpt lat="49.384684" lon="10.370866">
        <ele>434.762769</ele>
        <time>2026-04-26T17:27:49.779Z</time>
      </trkpt>
      <trkpt lat="49.384763" lon="10.370871">
        <ele>434.736303</ele>
        <time>2026-04-26T17:27:51.595Z</time>
      </trkpt>
      <trkpt lat="49.384932" lon="10.370837">
        <ele>434.679251</ele>
        <time>2026-04-26T17:27:55.337Z</time>
      </trkpt>
      <trkpt lat="49.385294" lon="10.370574">
        <ele>434.545212</ele>
        <time>2026-04-26T17:28:03.310Z</time>
      </trkpt>
      <trkpt lat="49.385539" lon="10.370541">
        <ele>434.462889</ele>
        <time>2026-04-26T17:28:07.924Z</time>
      </trkpt>
      <trkpt lat="49.385731" lon="10.370589">
        <ele>434.397776</ele>
        <time>2026-04-26T17:28:11.544Z</time>
      </trkpt>
      <trkpt lat="49.385861" lon="10.370688">
        <ele>434.349208</ele>
        <time>2026-04-26T17:28:14.265Z</time>
      </trkpt>
      <trkpt lat="49.385957" lon="10.370895">
        <ele>434.257689</ele>
        <time>2026-04-26T17:28:17.405Z</time>
      </trkpt>
      <trkpt lat="49.386004" lon="10.371157">
        <ele>434.140987</ele>
        <time>2026-04-26T17:28:20.777Z</time>
      </trkpt>
      <trkpt lat="49.386054" lon="10.372258">
        <ele>433.667044</ele>
        <time>2026-04-26T17:28:34.652Z</time>
      </trkpt>
      <trkpt lat="49.386111" lon="10.373091">
        <ele>433.307366</ele>
        <time>2026-04-26T17:28:46.082Z</time>
      </trkpt>
      <trkpt lat="49.386151" lon="10.373320">
        <ele>433.205550</ele>
        <time>2026-04-26T17:28:49.486Z</time>
      </trkpt>
      <trkpt lat="49.386223" lon="10.373626">
        <ele>433.175118</ele>
        <time>2026-04-26T17:28:54.457Z</time>
      </trkpt>
      <trkpt lat="49.386394" lon="10.373975">
        <ele>433.248005</ele>
        <time>2026-04-26T17:29:01.279Z</time>
      </trkpt>
      <trkpt lat="49.386746" lon="10.374409">
        <ele>433.363699</ele>
        <time>2026-04-26T17:29:12.325Z</time>
      </trkpt>
      <trkpt lat="49.386930" lon="10.374507">
        <ele>433.413617</ele>
        <time>2026-04-26T17:29:17.130Z</time>
      </trkpt>
      <trkpt lat="49.387153" lon="10.374574">
        <ele>433.471861</ele>
        <time>2026-04-26T17:29:22.793Z</time>
      </trkpt>
      <trkpt lat="49.387742" lon="10.374518">
        <ele>433.616994</ele>
        <time>2026-04-26T17:29:37.424Z</time>
      </trkpt>
      <trkpt lat="49.388228" lon="10.374379">
        <ele>433.699425</ele>
        <time>2026-04-26T17:29:49.240Z</time>
      </trkpt>
      <trkpt lat="49.388610" lon="10.374216">
        <ele>433.765533</ele>
        <time>2026-04-26T17:29:58.417Z</time>
      </trkpt>
      <trkpt lat="49.389501" lon="10.373685">
        <ele>434.023457</ele>
        <time>2026-04-26T17:30:20.748Z</time>
      </trkpt>
      <trkpt lat="49.389884" lon="10.373573">
        <ele>434.418822</ele>
        <time>2026-04-26T17:30:30.569Z</time>
      </trkpt>
      <trkpt lat="49.390108" lon="10.373564">
        <ele>434.646053</ele>
        <time>2026-04-26T17:30:36.436Z</time>
      </trkpt>
      <trkpt lat="49.390464" lon="10.373641">
        <ele>435.010625</ele>
        <time>2026-04-26T17:30:46.220Z</time>
      </trkpt>
      <trkpt lat="49.390727" lon="10.373777">
        <ele>435.292029</ele>
        <time>2026-04-26T17:30:54.138Z</time>
      </trkpt>
      <trkpt lat="49.391131" lon="10.374147">
        <ele>435.796299</ele>
        <time>2026-04-26T17:31:08.213Z</time>
      </trkpt>
      <trkpt lat="49.391377" lon="10.374501">
        <ele>436.374282</ele>
        <time>2026-04-26T17:31:18.753Z</time>
      </trkpt>
      <trkpt lat="49.392506" lon="10.376447">
        <ele>438.946410</ele>
        <time>2026-04-26T17:32:10.465Z</time>
      </trkpt>
      <trkpt lat="49.394703" lon="10.374664">
        <ele>440.542522</ele>
        <time>2026-04-26T17:33:06.732Z</time>
      </trkpt>
      <trkpt lat="49.395056" lon="10.374470">
        <ele>440.877708</ele>
        <time>2026-04-26T17:33:16.940Z</time>
      </trkpt>
      <trkpt lat="49.395327" lon="10.374422">
        <ele>441.121604</ele>
        <time>2026-04-26T17:33:24.965Z</time>
      </trkpt>
      <trkpt lat="49.395694" lon="10.374405">
        <ele>441.625519</ele>
        <time>2026-04-26T17:33:36.637Z</time>
      </trkpt>
      <trkpt lat="49.396974" lon="10.374883">
        <ele>444.115035</ele>
        <time>2026-04-26T17:34:18.693Z</time>
      </trkpt>
      <trkpt lat="49.398180" lon="10.375331">
        <ele>444.781143</ele>
        <time>2026-04-26T17:34:47.865Z</time>
      </trkpt>
      <trkpt lat="49.399093" lon="10.375658">
        <ele>444.815167</ele>
        <time>2026-04-26T17:35:07.557Z</time>
      </trkpt>
      <trkpt lat="49.399337" lon="10.375711">
        <ele>444.654328</ele>
        <time>2026-04-26T17:35:12.732Z</time>
      </trkpt>
      <trkpt lat="49.399718" lon="10.375652">
        <ele>444.404395</ele>
        <time>2026-04-26T17:35:20.662Z</time>
      </trkpt>
      <trkpt lat="49.400083" lon="10.375422">
        <ele>444.146912</ele>
        <time>2026-04-26T17:35:28.677Z</time>
      </trkpt>
      <trkpt lat="49.400408" lon="10.375016">
        <ele>443.873536</ele>
        <time>2026-04-26T17:35:36.973Z</time>
      </trkpt>
      <trkpt lat="49.401426" lon="10.373271">
        <ele>442.905221</ele>
        <time>2026-04-26T17:36:06.211Z</time>
      </trkpt>
      <trkpt lat="49.402050" lon="10.372404">
        <ele>442.825492</ele>
        <time>2026-04-26T17:36:24.878Z</time>
      </trkpt>
      <trkpt lat="49.402385" lon="10.371983">
        <ele>443.234182</ele>
        <time>2026-04-26T17:36:36.350Z</time>
      </trkpt>
      <trkpt lat="49.402642" lon="10.371612">
        <ele>443.567182</ele>
        <time>2026-04-26T17:36:46.106Z</time>
      </trkpt>
      <trkpt lat="49.402816" lon="10.371629">
        <ele>443.731837</ele>
        <time>2026-04-26T17:36:51.012Z</time>
      </trkpt>
      <trkpt lat="49.402974" lon="10.371758">
        <ele>443.900801</ele>
        <time>2026-04-26T17:36:56.110Z</time>
      </trkpt>
      <trkpt lat="49.403161" lon="10.371999">
        <ele>444.131284</ele>
        <time>2026-04-26T17:37:03.026Z</time>
      </trkpt>
      <trkpt lat="49.403335" lon="10.372279">
        <ele>444.284749</ele>
        <time>2026-04-26T17:37:09.998Z</time>
      </trkpt>
      <trkpt lat="49.403762" lon="10.373091">
        <ele>444.457157</ele>
        <time>2026-04-26T17:37:26.514Z</time>
      </trkpt>
      <trkpt lat="49.404223" lon="10.373758">
        <ele>444.617844</ele>
        <time>2026-04-26T17:37:40.002Z</time>
      </trkpt>
      <trkpt lat="49.404366" lon="10.374007">
        <ele>444.672688</ele>
        <time>2026-04-26T17:37:44.526Z</time>
      </trkpt>
      <trkpt lat="49.404443" lon="10.374293">
        <ele>444.742957</ele>
        <time>2026-04-26T17:37:48.723Z</time>
      </trkpt>
      <trkpt lat="49.404559" lon="10.374337">
        <ele>444.815902</ele>
        <time>2026-04-26T17:37:51.228Z</time>
      </trkpt>
      <trkpt lat="49.405248" lon="10.375488">
        <ele>445.437209</ele>
        <time>2026-04-26T17:38:14.275Z</time>
      </trkpt>
      <trkpt lat="49.405721" lon="10.376370">
        <ele>446.173861</ele>
        <time>2026-04-26T17:38:34.685Z</time>
      </trkpt>
      <trkpt lat="49.407133" lon="10.379156">
        <ele>453.044001</ele>
        <time>2026-04-26T17:39:53.240Z</time>
      </trkpt>
      <trkpt lat="49.407319" lon="10.379431">
        <ele>454.018581</ele>
        <time>2026-04-26T17:40:03.397Z</time>
      </trkpt>
      <trkpt lat="49.407775" lon="10.379888">
        <ele>456.074195</ele>
        <time>2026-04-26T17:40:24.810Z</time>
      </trkpt>
      <trkpt lat="49.407990" lon="10.380270">
        <ele>457.315148</ele>
        <time>2026-04-26T17:40:37.840Z</time>
      </trkpt>
      <trkpt lat="49.408234" lon="10.380822">
        <ele>458.613526</ele>
        <time>2026-04-26T17:40:55.025Z</time>
      </trkpt>
      <trkpt lat="49.408321" lon="10.381040">
        <ele>459.100556</ele>
        <time>2026-04-26T17:41:01.364Z</time>
      </trkpt>
      <trkpt lat="49.408697" lon="10.382130">
        <ele>461.450032</ele>
        <time>2026-04-26T17:41:40.162Z</time>
      </trkpt>
      <trkpt lat="49.408792" lon="10.382546">
        <ele>462.289637</ele>
        <time>2026-04-26T17:41:52.763Z</time>
      </trkpt>
      <trkpt lat="49.408850" lon="10.382959">
        <ele>462.896728</ele>
        <time>2026-04-26T17:42:04.652Z</time>
      </trkpt>
      <trkpt lat="49.408898" lon="10.383714">
        <ele>463.614176</ele>
        <time>2026-04-26T17:42:25.250Z</time>
      </trkpt>
      <trkpt lat="49.408952" lon="10.384163">
        <ele>464.046015</ele>
        <time>2026-04-26T17:42:37.242Z</time>
      </trkpt>
      <trkpt lat="49.409084" lon="10.384792">
        <ele>464.671072</ele>
        <time>2026-04-26T17:42:54.952Z</time>
      </trkpt>
      <trkpt lat="49.409240" lon="10.385309">
        <ele>465.210047</ele>
        <time>2026-04-26T17:43:11.137Z</time>
      </trkpt>
      <trkpt lat="49.409397" lon="10.385830">
        <ele>465.649962</ele>
        <time>2026-04-26T17:43:28.560Z</time>
      </trkpt>
      <trkpt lat="49.409498" lon="10.386029">
        <ele>465.832313</ele>
        <time>2026-04-26T17:43:36.540Z</time>
      </trkpt>
      <trkpt lat="49.409889" lon="10.386245">
        <ele>466.293698</ele>
        <time>2026-04-26T17:43:55.901Z</time>
      </trkpt>
      <trkpt lat="49.410294" lon="10.386266">
        <ele>466.743690</ele>
        <time>2026-04-26T17:44:13.022Z</time>
      </trkpt>
      <trkpt lat="49.410551" lon="10.386146">
        <ele>467.041957</ele>
        <time>2026-04-26T17:44:23.382Z</time>
      </trkpt>
      <trkpt lat="49.410612" lon="10.386243">
        <ele>467.139425</ele>
        <time>2026-04-26T17:44:26.521Z</time>
      </trkpt>
      <trkpt lat="49.410620" lon="10.386411">
        <ele>467.261130</ele>
        <time>2026-04-26T17:44:30.377Z</time>
      </trkpt>
      <trkpt lat="49.410692" lon="10.388021">
        <ele>465.595874</ele>
        <time>2026-04-26T17:45:03.694Z</time>
      </trkpt>
      <trkpt lat="49.410795" lon="10.388158">
        <ele>465.362543</ele>
        <time>2026-04-26T17:45:07.794Z</time>
      </trkpt>
      <trkpt lat="49.412253" lon="10.388662">
        <ele>462.706997</ele>
        <time>2026-04-26T17:45:54.979Z</time>
      </trkpt>
      <trkpt lat="49.412326" lon="10.388785">
        <ele>462.509038</ele>
        <time>2026-04-26T17:45:58.459Z</time>
      </trkpt>
      <trkpt lat="49.412310" lon="10.388973">
        <ele>462.283596</ele>
        <time>2026-04-26T17:46:02.440Z</time>
      </trkpt>
      <trkpt lat="49.413381" lon="10.390989">
        <ele>459.432311</ele>
        <time>2026-04-26T17:46:56.852Z</time>
      </trkpt>
      <trkpt lat="49.414737" lon="10.393199">
        <ele>456.928795</ele>
        <time>2026-04-26T17:48:01.503Z</time>
      </trkpt>
      <trkpt lat="49.416030" lon="10.395398">
        <ele>455.410851</ele>
        <time>2026-04-26T17:49:09.943Z</time>
      </trkpt>
      <trkpt lat="49.416964" lon="10.396987">
        <ele>454.364074</ele>
        <time>2026-04-26T17:49:37.639Z</time>
      </trkpt>
      <trkpt lat="49.417054" lon="10.397218">
        <ele>454.222139</ele>
        <time>2026-04-26T17:49:41.109Z</time>
      </trkpt>
      <trkpt lat="49.417119" lon="10.397555">
        <ele>454.036853</ele>
        <time>2026-04-26T17:49:45.719Z</time>
      </trkpt>
      <trkpt lat="49.417197" lon="10.398383">
        <ele>453.613711</ele>
        <time>2026-04-26T17:49:57.360Z</time>
      </trkpt>
      <trkpt lat="49.417237" lon="10.398557">
        <ele>453.687667</ele>
        <time>2026-04-26T17:50:00.104Z</time>
      </trkpt>
      <trkpt lat="49.417742" lon="10.398104">
        <ele>454.047851</ele>
        <time>2026-04-26T17:50:14.667Z</time>
      </trkpt>
      <trkpt lat="49.418546" lon="10.397248">
        <ele>454.650324</ele>
        <time>2026-04-26T17:50:42.389Z</time>
      </trkpt>
      <trkpt lat="49.419448" lon="10.396121">
        <ele>453.653492</ele>
        <time>2026-04-26T17:51:10.344Z</time>
      </trkpt>
      <trkpt lat="49.419672" lon="10.396014">
        <ele>453.418599</ele>
        <time>2026-04-26T17:51:14.775Z</time>
      </trkpt>
      <trkpt lat="49.420638" lon="10.396084">
        <ele>451.640423</ele>
        <time>2026-04-26T17:51:31.176Z</time>
      </trkpt>
      <trkpt lat="49.420804" lon="10.396134">
        <ele>451.174557</ele>
        <time>2026-04-26T17:51:33.957Z</time>
      </trkpt>
      <trkpt lat="49.420985" lon="10.396329">
        <ele>450.565846</ele>
        <time>2026-04-26T17:51:37.624Z</time>
      </trkpt>
      <trkpt lat="49.421315" lon="10.396963">
        <ele>449.111179</ele>
        <time>2026-04-26T17:51:46.726Z</time>
      </trkpt>
      <trkpt lat="49.421433" lon="10.397135">
        <ele>448.663340</ele>
        <time>2026-04-26T17:51:49.656Z</time>
      </trkpt>
      <trkpt lat="49.421493" lon="10.396935">
        <ele>448.268774</ele>
        <time>2026-04-26T17:51:52.304Z</time>
      </trkpt>
      <trkpt lat="49.421582" lon="10.396781">
        <ele>447.959354</ele>
        <time>2026-04-26T17:51:54.847Z</time>
      </trkpt>
      <trkpt lat="49.421901" lon="10.395561">
        <ele>447.963005</ele>
        <time>2026-04-26T17:52:13.561Z</time>
      </trkpt>
      <trkpt lat="49.422449" lon="10.393307">
        <ele>448.533371</ele>
        <time>2026-04-26T17:52:55.155Z</time>
      </trkpt>
      <trkpt lat="49.423136" lon="10.390628">
        <ele>450.324120</ele>
        <time>2026-04-26T17:53:45.400Z</time>
      </trkpt>
      <trkpt lat="49.423572" lon="10.388938">
        <ele>451.662953</ele>
        <time>2026-04-26T17:54:17.757Z</time>
      </trkpt>
      <trkpt lat="49.424085" lon="10.386680">
        <ele>454.316878</ele>
        <time>2026-04-26T17:55:04.387Z</time>
      </trkpt>
      <trkpt lat="49.424172" lon="10.386295">
        <ele>454.792962</ele>
        <time>2026-04-26T17:55:12.818Z</time>
      </trkpt>
      <trkpt lat="49.424150" lon="10.385925">
        <ele>455.251622</ele>
        <time>2026-04-26T17:55:20.861Z</time>
      </trkpt>
      <trkpt lat="49.424204" lon="10.385714">
        <ele>455.531532</ele>
        <time>2026-04-26T17:55:25.882Z</time>
      </trkpt>
      <trkpt lat="49.424423" lon="10.385841">
        <ele>455.975750</ele>
        <time>2026-04-26T17:55:36.875Z</time>
      </trkpt>
      <trkpt lat="49.424859" lon="10.385997">
        <ele>456.825332</ele>
        <time>2026-04-26T17:55:50.068Z</time>
      </trkpt>
      <trkpt lat="49.424978" lon="10.386040">
        <ele>457.057332</ele>
        <time>2026-04-26T17:55:53.513Z</time>
      </trkpt>
      <trkpt lat="49.425280" lon="10.386191">
        <ele>457.660037</ele>
        <time>2026-04-26T17:56:02.622Z</time>
      </trkpt>
      <trkpt lat="49.425381" lon="10.386363">
        <ele>457.946087</ele>
        <time>2026-04-26T17:56:06.949Z</time>
      </trkpt>
      <trkpt lat="49.425442" lon="10.386845">
        <ele>458.163189</ele>
        <time>2026-04-26T17:56:16.000Z</time>
      </trkpt>
      <trkpt lat="49.425586" lon="10.387227">
        <ele>458.343497</ele>
        <time>2026-04-26T17:56:23.708Z</time>
      </trkpt>
      <trkpt lat="49.425760" lon="10.387503">
        <ele>458.500466</ele>
        <time>2026-04-26T17:56:29.974Z</time>
      </trkpt>
      <trkpt lat="49.427084" lon="10.388402">
        <ele>458.472584</ele>
        <time>2026-04-26T17:57:03.197Z</time>
      </trkpt>
      <trkpt lat="49.428477" lon="10.389310">
        <ele>456.582489</ele>
        <time>2026-04-26T17:57:30.033Z</time>
      </trkpt>
      <trkpt lat="49.428559" lon="10.389364">
        <ele>456.485512</ele>
        <time>2026-04-26T17:57:31.561Z</time>
      </trkpt>
      <trkpt lat="49.428724" lon="10.389362">
        <ele>456.306131</ele>
        <time>2026-04-26T17:57:34.456Z</time>
      </trkpt>
      <trkpt lat="49.428909" lon="10.389191">
        <ele>456.071467</ele>
        <time>2026-04-26T17:57:38.401Z</time>
      </trkpt>
      <trkpt lat="49.429215" lon="10.389422">
        <ele>455.700873</ele>
        <time>2026-04-26T17:57:44.938Z</time>
      </trkpt>
      <trkpt lat="49.429189" lon="10.389680">
        <ele>455.516277</ele>
        <time>2026-04-26T17:57:48.745Z</time>
      </trkpt>
      <trkpt lat="49.429106" lon="10.389917">
        <ele>455.325956</ele>
        <time>2026-04-26T17:57:52.756Z</time>
      </trkpt>
      <trkpt lat="49.428922" lon="10.390612">
        <ele>454.832330</ele>
        <time>2026-04-26T17:58:10.313Z</time>
      </trkpt>
      <trkpt lat="49.428777" lon="10.391039">
        <ele>454.714863</ele>
        <time>2026-04-26T17:58:22.035Z</time>
      </trkpt>
      <trkpt lat="49.427865" lon="10.395422">
        <ele>453.590147</ele>
        <time>2026-04-26T18:00:08.263Z</time>
      </trkpt>
      <trkpt lat="49.427783" lon="10.395567">
        <ele>453.543089</ele>
        <time>2026-04-26T18:00:12.627Z</time>
      </trkpt>
      <trkpt lat="49.427783" lon="10.395778">
        <ele>453.503092</ele>
        <time>2026-04-26T18:00:17.509Z</time>
      </trkpt>
      <trkpt lat="49.427639" lon="10.396510">
        <ele>453.567312</ele>
        <time>2026-04-26T18:00:35.754Z</time>
      </trkpt>
      <trkpt lat="49.427783" lon="10.395778">
        <ele>453.631532</ele>
        <time>2026-04-26T18:00:54.410Z</time>
      </trkpt>
      <trkpt lat="49.427783" lon="10.395567">
        <ele>453.649251</ele>
        <time>2026-04-26T18:00:59.697Z</time>
      </trkpt>
      <trkpt lat="49.427865" lon="10.395422">
        <ele>453.665386</ele>
        <time>2026-04-26T18:01:04.632Z</time>
      </trkpt>
      <trkpt lat="49.428777" lon="10.391039">
        <ele>454.806962</ele>
        <time>2026-04-26T18:03:00.714Z</time>
      </trkpt>
      <trkpt lat="49.428922" lon="10.390612">
        <ele>454.949056</ele>
        <time>2026-04-26T18:03:12.234Z</time>
      </trkpt>
      <trkpt lat="49.429106" lon="10.389917">
        <ele>455.170403</ele>
        <time>2026-04-26T18:03:30.842Z</time>
      </trkpt>
      <trkpt lat="49.429189" lon="10.389680">
        <ele>455.249805</ele>
        <time>2026-04-26T18:03:35.547Z</time>
      </trkpt>
      <trkpt lat="49.429215" lon="10.389422">
        <ele>455.353269</ele>
        <time>2026-04-26T18:03:40.228Z</time>
      </trkpt>
      <trkpt lat="49.428909" lon="10.389191">
        <ele>455.893218</ele>
        <time>2026-04-26T18:03:49.290Z</time>
      </trkpt>
      <trkpt lat="49.428724" lon="10.389362">
        <ele>456.235120</ele>
        <time>2026-04-26T18:03:55.425Z</time>
      </trkpt>
      <trkpt lat="49.428559" lon="10.389364">
        <ele>456.496476</ele>
        <time>2026-04-26T18:04:00.406Z</time>
      </trkpt>
      <trkpt lat="49.427084" lon="10.388402">
        <ele>458.415462</ele>
        <time>2026-04-26T18:04:48.342Z</time>
      </trkpt>
      <trkpt lat="49.425760" lon="10.387503">
        <ele>459.026739</ele>
        <time>2026-04-26T18:05:19.578Z</time>
      </trkpt>
      <trkpt lat="49.425586" lon="10.387227">
        <ele>459.078721</ele>
        <time>2026-04-26T18:05:24.580Z</time>
      </trkpt>
      <trkpt lat="49.425442" lon="10.386845">
        <ele>459.138432</ele>
        <time>2026-04-26T18:05:30.464Z</time>
      </trkpt>
      <trkpt lat="49.425381" lon="10.386363">
        <ele>459.204841</ele>
        <time>2026-04-26T18:05:37.402Z</time>
      </trkpt>
      <trkpt lat="49.425280" lon="10.386191">
        <ele>459.236180</ele>
        <time>2026-04-26T18:05:40.844Z</time>
      </trkpt>
      <trkpt lat="49.424978" lon="10.386040">
        <ele>459.302210</ele>
        <time>2026-04-26T18:05:48.496Z</time>
      </trkpt>
      <trkpt lat="49.425445" lon="10.384193">
        <ele>461.202970</ele>
        <time>2026-04-26T18:06:26.298Z</time>
      </trkpt>
      <trkpt lat="49.425504" lon="10.384107">
        <ele>461.350966</ele>
        <time>2026-04-26T18:06:28.982Z</time>
      </trkpt>
      <trkpt lat="49.425596" lon="10.384081">
        <ele>461.521242</ele>
        <time>2026-04-26T18:06:32.043Z</time>
      </trkpt>
      <trkpt lat="49.425745" lon="10.384161">
        <ele>461.808535</ele>
        <time>2026-04-26T18:06:37.246Z</time>
      </trkpt>
      <trkpt lat="49.425894" lon="10.384241">
        <ele>462.095827</ele>
        <time>2026-04-26T18:06:42.448Z</time>
      </trkpt>
      <trkpt lat="49.425995" lon="10.384241">
        <ele>462.279680</ele>
        <time>2026-04-26T18:06:45.803Z</time>
      </trkpt>
      <trkpt lat="49.426085" lon="10.384158">
        <ele>462.470723</ele>
        <time>2026-04-26T18:06:49.320Z</time>
      </trkpt>
      <trkpt lat="49.426623" lon="10.382724">
        <ele>464.160843</ele>
        <time>2026-04-26T18:07:23.284Z</time>
      </trkpt>
      <trkpt lat="49.426190" lon="10.380190">
        <ele>465.768683</ele>
        <time>2026-04-26T18:08:08.204Z</time>
      </trkpt>
      <trkpt lat="49.426172" lon="10.379987">
        <ele>465.821318</ele>
        <time>2026-04-26T18:08:11.425Z</time>
      </trkpt>
      <trkpt lat="49.426178" lon="10.379559">
        <ele>465.931300</ele>
        <time>2026-04-26T18:08:18.120Z</time>
      </trkpt>
      <trkpt lat="49.426163" lon="10.379130">
        <ele>466.041673</ele>
        <time>2026-04-26T18:08:24.522Z</time>
      </trkpt>
      <trkpt lat="49.426115" lon="10.378909">
        <ele>466.101532</ele>
        <time>2026-04-26T18:08:27.861Z</time>
      </trkpt>
      <trkpt lat="49.426346" lon="10.377952">
        <ele>466.073107</ele>
        <time>2026-04-26T18:08:42.190Z</time>
      </trkpt>
      <trkpt lat="49.426228" lon="10.377880">
        <ele>466.061812</ele>
        <time>2026-04-26T18:08:45.048Z</time>
      </trkpt>
      <trkpt lat="49.426024" lon="10.377778">
        <ele>466.042727</ele>
        <time>2026-04-26T18:08:49.799Z</time>
      </trkpt>
      <trkpt lat="49.425862" lon="10.377609">
        <ele>466.025310</ele>
        <time>2026-04-26T18:08:54.163Z</time>
      </trkpt>
      <trkpt lat="49.425678" lon="10.377337">
        <ele>466.002600</ele>
        <time>2026-04-26T18:08:59.771Z</time>
      </trkpt>
      <trkpt lat="49.425545" lon="10.377014">
        <ele>465.980478</ele>
        <time>2026-04-26T18:09:05.370Z</time>
      </trkpt>
      <trkpt lat="49.425380" lon="10.376264">
        <ele>466.378708</ele>
        <time>2026-04-26T18:09:17.987Z</time>
      </trkpt>
      <trkpt lat="49.425224" lon="10.375765">
        <ele>466.793210</ele>
        <time>2026-04-26T18:09:27.224Z</time>
      </trkpt>
      <trkpt lat="49.424869" lon="10.375051">
        <ele>467.466055</ele>
        <time>2026-04-26T18:09:43.209Z</time>
      </trkpt>
      <trkpt lat="49.424506" lon="10.374378">
        <ele>468.289140</ele>
        <time>2026-04-26T18:10:01.038Z</time>
      </trkpt>
      <trkpt lat="49.424119" lon="10.373468">
        <ele>470.740034</ele>
        <time>2026-04-26T18:10:25.503Z</time>
      </trkpt>
      <trkpt lat="49.423426" lon="10.371535">
        <ele>476.305944</ele>
        <time>2026-04-26T18:11:22.579Z</time>
      </trkpt>
      <trkpt lat="49.423278" lon="10.370862">
        <ele>478.561636</ele>
        <time>2026-04-26T18:11:43.124Z</time>
      </trkpt>
      <trkpt lat="49.423206" lon="10.370356">
        <ele>480.206256</ele>
        <time>2026-04-26T18:11:58.382Z</time>
      </trkpt>
      <trkpt lat="49.423084" lon="10.369904">
        <ele>481.760079</ele>
        <time>2026-04-26T18:12:12.726Z</time>
      </trkpt>
      <trkpt lat="49.422795" lon="10.369014">
        <ele>483.668717</ele>
        <time>2026-04-26T18:12:40.138Z</time>
      </trkpt>
      <trkpt lat="49.422786" lon="10.368589">
        <ele>484.115749</ele>
        <time>2026-04-26T18:12:50.638Z</time>
      </trkpt>
      <trkpt lat="49.422990" lon="10.367335">
        <ele>485.474657</ele>
        <time>2026-04-26T18:13:13.936Z</time>
      </trkpt>
      <trkpt lat="49.423071" lon="10.366670">
        <ele>485.402326</ele>
        <time>2026-04-26T18:13:22.283Z</time>
      </trkpt>
      <trkpt lat="49.423040" lon="10.366138">
        <ele>484.041493</ele>
        <time>2026-04-26T18:13:28.262Z</time>
      </trkpt>
      <trkpt lat="49.422958" lon="10.365533">
        <ele>482.466993</ele>
        <time>2026-04-26T18:13:34.778Z</time>
      </trkpt>
      <trkpt lat="49.422926" lon="10.364990">
        <ele>481.077893</ele>
        <time>2026-04-26T18:13:40.400Z</time>
      </trkpt>
      <trkpt lat="49.422934" lon="10.364569">
        <ele>480.004827</ele>
        <time>2026-04-26T18:13:44.716Z</time>
      </trkpt>
      <trkpt lat="49.422862" lon="10.364100">
        <ele>478.798874</ele>
        <time>2026-04-26T18:13:49.651Z</time>
      </trkpt>
      <trkpt lat="49.422710" lon="10.363617">
        <ele>477.652349</ele>
        <time>2026-04-26T18:13:55.178Z</time>
      </trkpt>
      <trkpt lat="49.422489" lon="10.363212">
        <ele>476.522745</ele>
        <time>2026-04-26T18:14:00.691Z</time>
      </trkpt>
      <trkpt lat="49.422082" lon="10.362844">
        <ele>474.971635</ele>
        <time>2026-04-26T18:14:08.664Z</time>
      </trkpt>
      <trkpt lat="49.421611" lon="10.362473">
        <ele>473.233111</ele>
        <time>2026-04-26T18:14:18.469Z</time>
      </trkpt>
      <trkpt lat="49.420591" lon="10.361862">
        <ele>472.348766</ele>
        <time>2026-04-26T18:14:42.630Z</time>
      </trkpt>
      <trkpt lat="49.420158" lon="10.361500">
        <ele>472.033861</ele>
        <time>2026-04-26T18:14:53.973Z</time>
      </trkpt>
      <trkpt lat="49.419493" lon="10.360767">
        <ele>470.844595</ele>
        <time>2026-04-26T18:15:10.339Z</time>
      </trkpt>
      <trkpt lat="49.419179" lon="10.360509">
        <ele>470.175520</ele>
        <time>2026-04-26T18:15:16.999Z</time>
      </trkpt>
      <trkpt lat="49.418115" lon="10.359991">
        <ele>467.784894</ele>
        <time>2026-04-26T18:15:36.947Z</time>
      </trkpt>
      <trkpt lat="49.417698" lon="10.359583">
        <ele>466.168380</ele>
        <time>2026-04-26T18:15:45.346Z</time>
      </trkpt>
      <trkpt lat="49.417544" lon="10.359222">
        <ele>465.249971</ele>
        <time>2026-04-26T18:15:50.039Z</time>
      </trkpt>
      <trkpt lat="49.417615" lon="10.359158">
        <ele>464.980804</ele>
        <time>2026-04-26T18:15:51.409Z</time>
      </trkpt>
      <trkpt lat="49.418354" lon="10.357495">
        <ele>461.740803</ele>
        <time>2026-04-26T18:16:13.496Z</time>
      </trkpt>
      <trkpt lat="49.418440" lon="10.357125">
        <ele>461.365432</ele>
        <time>2026-04-26T18:16:18.355Z</time>
      </trkpt>
      <trkpt lat="49.418476" lon="10.356716">
        <ele>460.971126</ele>
        <time>2026-04-26T18:16:23.760Z</time>
      </trkpt>
      <trkpt lat="49.418464" lon="10.356305">
        <ele>460.578075</ele>
        <time>2026-04-26T18:16:29.517Z</time>
      </trkpt>
      <trkpt lat="49.418394" lon="10.355910">
        <ele>460.186953</ele>
        <time>2026-04-26T18:16:35.758Z</time>
      </trkpt>
      <trkpt lat="49.417937" lon="10.354302">
        <ele>460.008786</ele>
        <time>2026-04-26T18:17:05.463Z</time>
      </trkpt>
      <trkpt lat="49.417798" lon="10.353578">
        <ele>460.037834</ele>
        <time>2026-04-26T18:17:16.574Z</time>
      </trkpt>
      <trkpt lat="49.417788" lon="10.352375">
        <ele>459.930734</ele>
        <time>2026-04-26T18:17:32.324Z</time>
      </trkpt>
      <trkpt lat="49.417791" lon="10.351918">
        <ele>459.848262</ele>
        <time>2026-04-26T18:17:38.268Z</time>
      </trkpt>
      <trkpt lat="49.417672" lon="10.351358">
        <ele>459.741953</ele>
        <time>2026-04-26T18:17:46.062Z</time>
      </trkpt>
      <trkpt lat="49.417029" lon="10.349720">
        <ele>460.834710</ele>
        <time>2026-04-26T18:18:18.558Z</time>
      </trkpt>
      <trkpt lat="49.416744" lon="10.348994">
        <ele>462.043994</ele>
        <time>2026-04-26T18:18:37.255Z</time>
      </trkpt>
      <trkpt lat="49.416633" lon="10.348590">
        <ele>462.669437</ele>
        <time>2026-04-26T18:18:47.391Z</time>
      </trkpt>
      <trkpt lat="49.416558" lon="10.348028">
        <ele>463.487626</ele>
        <time>2026-04-26T18:19:01.155Z</time>
      </trkpt>
      <trkpt lat="49.416505" lon="10.346435">
        <ele>465.976313</ele>
        <time>2026-04-26T18:19:37.954Z</time>
      </trkpt>
      <trkpt lat="49.416406" lon="10.345889">
        <ele>466.861124</ele>
        <time>2026-04-26T18:19:49.471Z</time>
      </trkpt>
      <trkpt lat="49.416192" lon="10.345326">
        <ele>467.831133</ele>
        <time>2026-04-26T18:20:01.843Z</time>
      </trkpt>
      <trkpt lat="49.415482" lon="10.343937">
        <ele>468.453860</ele>
        <time>2026-04-26T18:20:31.040Z</time>
      </trkpt>
      <trkpt lat="49.415237" lon="10.343188">
        <ele>468.749403</ele>
        <time>2026-04-26T18:20:43.813Z</time>
      </trkpt>
      <trkpt lat="49.415147" lon="10.342753">
        <ele>468.780957</ele>
        <time>2026-04-26T18:20:50.829Z</time>
      </trkpt>
      <trkpt lat="49.415123" lon="10.342177">
        <ele>468.762310</ele>
        <time>2026-04-26T18:20:59.733Z</time>
      </trkpt>
      <trkpt lat="49.415170" lon="10.340834">
        <ele>468.718861</ele>
        <time>2026-04-26T18:21:21.022Z</time>
      </trkpt>
      <trkpt lat="49.415253" lon="10.339221">
        <ele>466.304102</ele>
        <time>2026-04-26T18:21:42.656Z</time>
      </trkpt>
      <trkpt lat="49.414926" lon="10.339079">
        <ele>465.177177</ele>
        <time>2026-04-26T18:21:48.496Z</time>
      </trkpt>
      <trkpt lat="49.414821" lon="10.339010">
        <ele>464.798461</ele>
        <time>2026-04-26T18:21:50.373Z</time>
      </trkpt>
      <trkpt lat="49.414703" lon="10.338795">
        <ele>464.191553</ele>
        <time>2026-04-26T18:21:53.321Z</time>
      </trkpt>
      <trkpt lat="49.414571" lon="10.338698">
        <ele>463.706326</ele>
        <time>2026-04-26T18:21:55.625Z</time>
      </trkpt>
      <trkpt lat="49.414192" lon="10.338668">
        <ele>462.123786</ele>
        <time>2026-04-26T18:22:01.352Z</time>
      </trkpt>
      <trkpt lat="49.414035" lon="10.338580">
        <ele>460.949772</ele>
        <time>2026-04-26T18:22:03.838Z</time>
      </trkpt>
      <trkpt lat="49.414002" lon="10.338535">
        <ele>460.639853</ele>
        <time>2026-04-26T18:22:04.490Z</time>
      </trkpt>
      <trkpt lat="49.413791" lon="10.337840">
        <ele>457.134462</ele>
        <time>2026-04-26T18:22:11.797Z</time>
      </trkpt>
      <trkpt lat="49.413693" lon="10.337634">
        <ele>455.968057</ele>
        <time>2026-04-26T18:22:14.234Z</time>
      </trkpt>
      <trkpt lat="49.413590" lon="10.337334">
        <ele>454.417659</ele>
        <time>2026-04-26T18:22:17.486Z</time>
      </trkpt>
      <trkpt lat="49.413424" lon="10.336465">
        <ele>450.278133</ele>
        <time>2026-04-26T18:22:26.339Z</time>
      </trkpt>
      <trkpt lat="49.413322" lon="10.335699">
        <ele>448.584508</ele>
        <time>2026-04-26T18:22:34.402Z</time>
      </trkpt>
      <trkpt lat="49.413223" lon="10.335131">
        <ele>447.384324</ele>
        <time>2026-04-26T18:22:40.915Z</time>
      </trkpt>
      <trkpt lat="49.413089" lon="10.334599">
        <ele>446.219962</ele>
        <time>2026-04-26T18:22:47.630Z</time>
      </trkpt>
      <trkpt lat="49.412830" lon="10.333775">
        <ele>444.433052</ele>
        <time>2026-04-26T18:22:59.192Z</time>
      </trkpt>
      <trkpt lat="49.412304" lon="10.332515">
        <ele>443.694846</ele>
        <time>2026-04-26T18:23:19.094Z</time>
      </trkpt>
      <trkpt lat="49.412127" lon="10.331648">
        <ele>443.246773</ele>
        <time>2026-04-26T18:23:31.731Z</time>
      </trkpt>
      <trkpt lat="49.412086" lon="10.330931">
        <ele>443.121302</ele>
        <time>2026-04-26T18:23:42.128Z</time>
      </trkpt>
      <trkpt lat="49.412074" lon="10.328537">
        <ele>443.285612</ele>
        <time>2026-04-26T18:24:19.095Z</time>
      </trkpt>
      <trkpt lat="49.411999" lon="10.328093">
        <ele>443.480572</ele>
        <time>2026-04-26T18:24:26.636Z</time>
      </trkpt>
      <trkpt lat="49.411904" lon="10.327690">
        <ele>443.662748</ele>
        <time>2026-04-26T18:24:33.922Z</time>
      </trkpt>
      <trkpt lat="49.411953" lon="10.327561">
        <ele>443.726234</ele>
        <time>2026-04-26T18:24:37.077Z</time>
      </trkpt>
      <trkpt lat="49.412075" lon="10.327168">
        <ele>443.911301</ele>
        <time>2026-04-26T18:24:46.525Z</time>
      </trkpt>
      <trkpt lat="49.412205" lon="10.326987">
        <ele>444.025885</ele>
        <time>2026-04-26T18:24:52.253Z</time>
      </trkpt>
      <trkpt lat="49.412675" lon="10.326517">
        <ele>444.392170</ele>
        <time>2026-04-26T18:25:09.968Z</time>
      </trkpt>
      <trkpt lat="49.412793" lon="10.326338">
        <ele>444.500982</ele>
        <time>2026-04-26T18:25:15.192Z</time>
      </trkpt>
      <trkpt lat="49.412863" lon="10.326140">
        <ele>444.597594</ele>
        <time>2026-04-26T18:25:19.836Z</time>
      </trkpt>
      <trkpt lat="49.412623" lon="10.325605">
        <ele>444.876206</ele>
        <time>2026-04-26T18:25:30.460Z</time>
      </trkpt>
      <trkpt lat="49.412444" lon="10.325105">
        <ele>445.120884</ele>
        <time>2026-04-26T18:25:39.820Z</time>
      </trkpt>
      <trkpt lat="49.412315" lon="10.324507">
        <ele>445.390994</ele>
        <time>2026-04-26T18:25:49.789Z</time>
      </trkpt>
      <trkpt lat="49.412302" lon="10.324295">
        <ele>445.482289</ele>
        <time>2026-04-26T18:25:53.167Z</time>
      </trkpt>
      <trkpt lat="49.412320" lon="10.324125">
        <ele>445.556134</ele>
        <time>2026-04-26T18:25:55.995Z</time>
      </trkpt>
      <trkpt lat="49.412345" lon="10.324054">
        <ele>445.590746</ele>
        <time>2026-04-26T18:25:57.307Z</time>
      </trkpt>
      <trkpt lat="49.412404" lon="10.323920">
        <ele>445.666939</ele>
        <time>2026-04-26T18:26:00.055Z</time>
      </trkpt>
      <trkpt lat="49.412682" lon="10.323505">
        <ele>445.975984</ele>
        <time>2026-04-26T18:26:10.111Z</time>
      </trkpt>
      <trkpt lat="49.413029" lon="10.322917">
        <ele>446.387861</ele>
        <time>2026-04-26T18:26:23.290Z</time>
      </trkpt>
      <trkpt lat="49.413788" lon="10.321098">
        <ele>447.463154</ele>
        <time>2026-04-26T18:26:58.705Z</time>
      </trkpt>
      <trkpt lat="49.414044" lon="10.320438">
        <ele>447.820908</ele>
        <time>2026-04-26T18:27:12.175Z</time>
      </trkpt>
      <trkpt lat="49.414107" lon="10.320275">
        <ele>447.909180</ele>
        <time>2026-04-26T18:27:15.382Z</time>
      </trkpt>
      <trkpt lat="49.414259" lon="10.320003">
        <ele>448.076122</ele>
        <time>2026-04-26T18:27:21.463Z</time>
      </trkpt>
      <trkpt lat="49.414653" lon="10.319451">
        <ele>448.389847</ele>
        <time>2026-04-26T18:27:35.025Z</time>
      </trkpt>
      <trkpt lat="49.414676" lon="10.319393">
        <ele>448.401708</ele>
        <time>2026-04-26T18:27:36.153Z</time>
      </trkpt>
      <trkpt lat="49.414685" lon="10.319169">
        <ele>448.440896</ele>
        <time>2026-04-26T18:27:39.725Z</time>
      </trkpt>
      <trkpt lat="49.414772" lon="10.319146">
        <ele>448.464590</ele>
        <time>2026-04-26T18:27:41.709Z</time>
      </trkpt>
      <trkpt lat="49.414851" lon="10.319068">
        <ele>448.489790</ele>
        <time>2026-04-26T18:27:43.889Z</time>
      </trkpt>
      <trkpt lat="49.414901" lon="10.318945">
        <ele>448.515116</ele>
        <time>2026-04-26T18:27:46.021Z</time>
      </trkpt>
      <trkpt lat="49.415000" lon="10.317637">
        <ele>448.745051</ele>
        <time>2026-04-26T18:28:06.295Z</time>
      </trkpt>
      <trkpt lat="49.415019" lon="10.317500">
        <ele>448.769510</ele>
        <time>2026-04-26T18:28:08.462Z</time>
      </trkpt>
      <trkpt lat="49.415228" lon="10.316360">
        <ele>448.683813</ele>
        <time>2026-04-26T18:28:25.282Z</time>
      </trkpt>
      <trkpt lat="49.415303" lon="10.316111">
        <ele>448.634672</ele>
        <time>2026-04-26T18:28:28.730Z</time>
      </trkpt>
      <trkpt lat="49.415431" lon="10.315948">
        <ele>448.588914</ele>
        <time>2026-04-26T18:28:32.056Z</time>
      </trkpt>
      <trkpt lat="49.415617" lon="10.315881">
        <ele>448.536325</ele>
        <time>2026-04-26T18:28:36.009Z</time>
      </trkpt>
      <trkpt lat="49.416331" lon="10.315810">
        <ele>448.339362</ele>
        <time>2026-04-26T18:28:50.977Z</time>
      </trkpt>
      <trkpt lat="49.416404" lon="10.315796">
        <ele>448.406632</ele>
        <time>2026-04-26T18:28:52.542Z</time>
      </trkpt>
      <trkpt lat="49.416693" lon="10.315584">
        <ele>448.755028</ele>
        <time>2026-04-26T18:28:59.545Z</time>
      </trkpt>
      <trkpt lat="49.416905" lon="10.315319">
        <ele>449.052317</ele>
        <time>2026-04-26T18:29:06.277Z</time>
      </trkpt>
      <trkpt lat="49.417149" lon="10.314912">
        <ele>449.444052</ele>
        <time>2026-04-26T18:29:16.321Z</time>
      </trkpt>
      <trkpt lat="49.419014" lon="10.311646">
        <ele>454.549094</ele>
        <time>2026-04-26T18:30:40.499Z</time>
      </trkpt>
      <trkpt lat="49.419102" lon="10.311507">
        <ele>454.914318</ele>
        <time>2026-04-26T18:30:44.719Z</time>
      </trkpt>
      <trkpt lat="49.419134" lon="10.311463">
        <ele>455.038591</ele>
        <time>2026-04-26T18:30:46.173Z</time>
      </trkpt>
      <trkpt lat="49.419233" lon="10.311331">
        <ele>455.417929</ele>
        <time>2026-04-26T18:30:50.693Z</time>
      </trkpt>
      <trkpt lat="49.419385" lon="10.311167">
        <ele>455.955461</ele>
        <time>2026-04-26T18:30:57.241Z</time>
      </trkpt>
      <trkpt lat="49.420744" lon="10.310019">
        <ele>459.617380</ele>
        <time>2026-04-26T18:31:52.253Z</time>
      </trkpt>
      <trkpt lat="49.421852" lon="10.309087">
        <ele>461.122453</ele>
        <time>2026-04-26T18:32:23.439Z</time>
      </trkpt>
      <trkpt lat="49.422497" lon="10.308539">
        <ele>460.642248</ele>
        <time>2026-04-26T18:32:37.968Z</time>
      </trkpt>
      <trkpt lat="49.425081" lon="10.306363">
        <ele>457.810539</ele>
        <time>2026-04-26T18:33:34.697Z</time>
      </trkpt>
      <trkpt lat="49.425874" lon="10.305717">
        <ele>456.890418</ele>
        <time>2026-04-26T18:33:51.244Z</time>
      </trkpt>
      <trkpt lat="49.426051" lon="10.305825">
        <ele>456.695176</ele>
        <time>2026-04-26T18:33:55.208Z</time>
      </trkpt>
      <trkpt lat="49.426253" lon="10.305865">
        <ele>456.486361</ele>
        <time>2026-04-26T18:33:59.492Z</time>
      </trkpt>
      <trkpt lat="49.426697" lon="10.305912">
        <ele>456.030063</ele>
        <time>2026-04-26T18:34:09.707Z</time>
      </trkpt>
      <trkpt lat="49.427343" lon="10.306219">
        <ele>455.937336</ele>
        <time>2026-04-26T18:34:26.131Z</time>
      </trkpt>
      <trkpt lat="49.427614" lon="10.306406">
        <ele>455.907303</ele>
        <time>2026-04-26T18:34:33.198Z</time>
      </trkpt>
      <trkpt lat="49.427662" lon="10.306439">
        <ele>455.901987</ele>
        <time>2026-04-26T18:34:34.452Z</time>
      </trkpt>
      <trkpt lat="49.427783" lon="10.306515">
        <ele>455.888772</ele>
        <time>2026-04-26T18:34:37.668Z</time>
      </trkpt>
      <trkpt lat="49.427662" lon="10.306439">
        <ele>455.875556</ele>
        <time>2026-04-26T18:34:40.923Z</time>
      </trkpt>
      <trkpt lat="49.427614" lon="10.306406">
        <ele>455.870240</ele>
        <time>2026-04-26T18:34:42.238Z</time>
      </trkpt>
      <trkpt lat="49.427343" lon="10.306219">
        <ele>455.840207</ele>
        <time>2026-04-26T18:34:49.873Z</time>
      </trkpt>
      <trkpt lat="49.426697" lon="10.305912">
        <ele>456.184350</ele>
        <time>2026-04-26T18:35:06.806Z</time>
      </trkpt>
      <trkpt lat="49.426253" lon="10.305865">
        <ele>456.515581</ele>
        <time>2026-04-26T18:35:18.284Z</time>
      </trkpt>
      <trkpt lat="49.426051" lon="10.305825">
        <ele>456.667162</ele>
        <time>2026-04-26T18:35:24.068Z</time>
      </trkpt>
      <trkpt lat="49.425874" lon="10.305717">
        <ele>456.808890</ele>
        <time>2026-04-26T18:35:29.566Z</time>
      </trkpt>
      <trkpt lat="49.427917" lon="10.304039">
        <ele>460.049638</ele>
        <time>2026-04-26T18:36:35.554Z</time>
      </trkpt>
      <trkpt lat="49.429118" lon="10.303070">
        <ele>462.336102</ele>
        <time>2026-04-26T18:37:15.232Z</time>
      </trkpt>
      <trkpt lat="49.429577" lon="10.302876">
        <ele>463.160230</ele>
        <time>2026-04-26T18:37:28.922Z</time>
      </trkpt>
      <trkpt lat="49.429581" lon="10.302604">
        <ele>463.506544</ele>
        <time>2026-04-26T18:37:34.165Z</time>
      </trkpt>
      <trkpt lat="49.429528" lon="10.302275">
        <ele>463.937981</ele>
        <time>2026-04-26T18:37:40.697Z</time>
      </trkpt>
      <trkpt lat="49.429435" lon="10.301897">
        <ele>464.452410</ele>
        <time>2026-04-26T18:37:48.473Z</time>
      </trkpt>
      <trkpt lat="49.429273" lon="10.301520">
        <ele>465.027573</ele>
        <time>2026-04-26T18:37:57.310Z</time>
      </trkpt>
      <trkpt lat="49.428542" lon="10.300105">
        <ele>468.437193</ele>
        <time>2026-04-26T18:38:35.145Z</time>
      </trkpt>
      <trkpt lat="49.428494" lon="10.300023">
        <ele>468.771513</ele>
        <time>2026-04-26T18:38:37.656Z</time>
      </trkpt>
      <trkpt lat="49.428301" lon="10.299667">
        <ele>470.175997</ele>
        <time>2026-04-26T18:38:48.823Z</time>
      </trkpt>
      <trkpt lat="49.424519" lon="10.292233">
        <ele>497.451717</ele>
        <time>2026-04-26T18:43:08.477Z</time>
      </trkpt>
      <trkpt lat="49.424252" lon="10.291681">
        <ele>498.195320</ele>
        <time>2026-04-26T18:43:18.368Z</time>
      </trkpt>
      <trkpt lat="49.424078" lon="10.291322">
        <ele>497.716755</ele>
        <time>2026-04-26T18:43:23.728Z</time>
      </trkpt>
      <trkpt lat="49.423387" lon="10.289782">
        <ele>495.716915</ele>
        <time>2026-04-26T18:43:44.075Z</time>
      </trkpt>
      <trkpt lat="49.423231" lon="10.289379">
        <ele>495.415343</ele>
        <time>2026-04-26T18:43:49.444Z</time>
      </trkpt>
      <trkpt lat="49.423109" lon="10.288959">
        <ele>495.238498</ele>
        <time>2026-04-26T18:43:54.830Z</time>
      </trkpt>
      <trkpt lat="49.423037" lon="10.288522">
        <ele>495.065180</ele>
        <time>2026-04-26T18:44:00.252Z</time>
      </trkpt>
      <trkpt lat="49.423003" lon="10.288126">
        <ele>494.911611</ele>
        <time>2026-04-26T18:44:05.261Z</time>
      </trkpt>
      <trkpt lat="49.423138" lon="10.286724">
        <ele>494.648556</ele>
        <time>2026-04-26T18:44:27.942Z</time>
      </trkpt>
      <trkpt lat="49.423132" lon="10.286172">
        <ele>495.048584</ele>
        <time>2026-04-26T18:44:39.026Z</time>
      </trkpt>
      <trkpt lat="49.423071" lon="10.285588">
        <ele>495.477164</ele>
        <time>2026-04-26T18:44:50.878Z</time>
      </trkpt>
      <trkpt lat="49.422949" lon="10.285038">
        <ele>495.898222</ele>
        <time>2026-04-26T18:45:02.646Z</time>
      </trkpt>
      <trkpt lat="49.422834" lon="10.284669">
        <ele>496.194701</ele>
        <time>2026-04-26T18:45:10.201Z</time>
      </trkpt>
      <trkpt lat="49.422690" lon="10.284389">
        <ele>496.453338</ele>
        <time>2026-04-26T18:45:15.766Z</time>
      </trkpt>
      <trkpt lat="49.422465" lon="10.284522">
        <ele>495.536412</ele>
        <time>2026-04-26T18:45:21.004Z</time>
      </trkpt>
      <trkpt lat="49.422690" lon="10.284389">
        <ele>494.550961</ele>
        <time>2026-04-26T18:45:25.761Z</time>
      </trkpt>
      <trkpt lat="49.422064" lon="10.283146">
        <ele>490.370750</ele>
        <time>2026-04-26T18:45:41.206Z</time>
      </trkpt>
      <trkpt lat="49.421906" lon="10.282701">
        <ele>488.985421</ele>
        <time>2026-04-26T18:45:45.912Z</time>
      </trkpt>
      <trkpt lat="49.421308" lon="10.280354">
        <ele>479.588521</ele>
        <time>2026-04-26T18:46:09.669Z</time>
      </trkpt>
      <trkpt lat="49.421192" lon="10.279737">
        <ele>478.802791</ele>
        <time>2026-04-26T18:46:16.601Z</time>
      </trkpt>
      <trkpt lat="49.421164" lon="10.279475">
        <ele>478.800234</ele>
        <time>2026-04-26T18:46:19.743Z</time>
      </trkpt>
      <trkpt lat="49.421071" lon="10.278955">
        <ele>478.795040</ele>
        <time>2026-04-26T18:46:26.948Z</time>
      </trkpt>
      <trkpt lat="49.420997" lon="10.278740">
        <ele>478.792698</ele>
        <time>2026-04-26T18:46:30.762Z</time>
      </trkpt>
      <trkpt lat="49.420862" lon="10.278463">
        <ele>478.789365</ele>
        <time>2026-04-26T18:46:36.840Z</time>
      </trkpt>
      <trkpt lat="49.420620" lon="10.278217">
        <ele>478.785070</ele>
        <time>2026-04-26T18:46:45.644Z</time>
      </trkpt>
      <trkpt lat="49.419538" lon="10.277705">
        <ele>482.209026</ele>
        <time>2026-04-26T18:47:24.442Z</time>
      </trkpt>
      <trkpt lat="49.419225" lon="10.277522">
        <ele>483.623236</ele>
        <time>2026-04-26T18:47:38.053Z</time>
      </trkpt>
      <trkpt lat="49.418997" lon="10.277254">
        <ele>484.835337</ele>
        <time>2026-04-26T18:47:50.445Z</time>
      </trkpt>
      <trkpt lat="49.418937" lon="10.277163">
        <ele>485.191291</ele>
        <time>2026-04-26T18:47:54.209Z</time>
      </trkpt>
      <trkpt lat="49.418839" lon="10.276938">
        <ele>485.935177</ele>
        <time>2026-04-26T18:48:02.224Z</time>
      </trkpt>
      <trkpt lat="49.418753" lon="10.276576">
        <ele>487.222170</ele>
        <time>2026-04-26T18:48:14.072Z</time>
      </trkpt>
      <trkpt lat="49.418459" lon="10.273442">
        <ele>497.952247</ele>
        <time>2026-04-26T18:49:48.678Z</time>
      </trkpt>
      <trkpt lat="49.418215" lon="10.272423">
        <ele>499.986560</ele>
        <time>2026-04-26T18:50:12.664Z</time>
      </trkpt>
      <trkpt lat="49.417595" lon="10.269893">
        <ele>502.235046</ele>
        <time>2026-04-26T18:50:57.623Z</time>
      </trkpt>
      <trkpt lat="49.417445" lon="10.269461">
        <ele>502.317002</ele>
        <time>2026-04-26T18:51:04.645Z</time>
      </trkpt>
      <trkpt lat="49.417235" lon="10.269189">
        <ele>502.387651</ele>
        <time>2026-04-26T18:51:10.417Z</time>
      </trkpt>
      <trkpt lat="49.417011" lon="10.269002">
        <ele>502.208737</ele>
        <time>2026-04-26T18:51:15.591Z</time>
      </trkpt>
      <trkpt lat="49.415140" lon="10.268375">
        <ele>498.537247</ele>
        <time>2026-04-26T18:51:49.704Z</time>
      </trkpt>
      <trkpt lat="49.412583" lon="10.267508">
        <ele>490.705230</ele>
        <time>2026-04-26T18:52:31.496Z</time>
      </trkpt>
      <trkpt lat="49.411351" lon="10.267087">
        <ele>487.886742</ele>
        <time>2026-04-26T18:52:55.474Z</time>
      </trkpt>
      <trkpt lat="49.411217" lon="10.267288">
        <ele>487.561679</ele>
        <time>2026-04-26T18:52:59.070Z</time>
      </trkpt>
      <trkpt lat="49.410948" lon="10.267546">
        <ele>487.011202</ele>
        <time>2026-04-26T18:53:04.896Z</time>
      </trkpt>
      <trkpt lat="49.410418" lon="10.267746">
        <ele>486.063747</ele>
        <time>2026-04-26T18:53:14.277Z</time>
      </trkpt>
      <trkpt lat="49.409308" lon="10.268074">
        <ele>484.670351</ele>
        <time>2026-04-26T18:53:33.448Z</time>
      </trkpt>
      <trkpt lat="49.409167" lon="10.268116">
        <ele>484.511330</ele>
        <time>2026-04-26T18:53:36.161Z</time>
      </trkpt>
      <trkpt lat="49.408867" lon="10.268159">
        <ele>484.177727</ele>
        <time>2026-04-26T18:53:42.342Z</time>
      </trkpt>
      <trkpt lat="49.408219" lon="10.268140">
        <ele>484.139276</ele>
        <time>2026-04-26T18:53:58.437Z</time>
      </trkpt>
      <trkpt lat="49.407773" lon="10.268046">
        <ele>485.176336</ele>
        <time>2026-04-26T18:54:12.253Z</time>
      </trkpt>
      <trkpt lat="49.407071" lon="10.267832">
        <ele>486.825030</ele>
        <time>2026-04-26T18:54:36.528Z</time>
      </trkpt>
      <trkpt lat="49.406654" lon="10.267702">
        <ele>487.805231</ele>
        <time>2026-04-26T18:54:50.824Z</time>
      </trkpt>
      <trkpt lat="49.405854" lon="10.267568">
        <ele>489.853297</ele>
        <time>2026-04-26T18:55:18.128Z</time>
      </trkpt>
      <trkpt lat="49.404850" lon="10.267634">
        <ele>492.405983</ele>
        <time>2026-04-26T18:55:50.972Z</time>
      </trkpt>
      <trkpt lat="49.404278" lon="10.267628">
        <ele>492.378561</ele>
        <time>2026-04-26T18:56:06.764Z</time>
      </trkpt>
      <trkpt lat="49.404013" lon="10.267629">
        <ele>492.365856</ele>
        <time>2026-04-26T18:56:13.268Z</time>
      </trkpt>
      <trkpt lat="49.401512" lon="10.267620">
        <ele>489.786203</ele>
        <time>2026-04-26T18:56:59.512Z</time>
      </trkpt>
      <trkpt lat="49.400899" lon="10.267619">
        <ele>488.991023</ele>
        <time>2026-04-26T18:57:09.817Z</time>
      </trkpt>
      <trkpt lat="49.400052" lon="10.267629">
        <ele>488.102868</ele>
        <time>2026-04-26T18:57:25.022Z</time>
      </trkpt>
      <trkpt lat="49.399998" lon="10.267652">
        <ele>488.044111</ele>
        <time>2026-04-26T18:57:26.123Z</time>
      </trkpt>
      <trkpt lat="49.399926" lon="10.267511">
        <ele>487.921812</ele>
        <time>2026-04-26T18:57:28.615Z</time>
      </trkpt>
      <trkpt lat="49.399877" lon="10.267032">
        <ele>487.590941</ele>
        <time>2026-04-26T18:57:36.098Z</time>
      </trkpt>
      <trkpt lat="49.399866" lon="10.266130">
        <ele>488.178045</ele>
        <time>2026-04-26T18:57:52.219Z</time>
      </trkpt>
      <trkpt lat="49.399906" lon="10.265838">
        <ele>488.460732</ele>
        <time>2026-04-26T18:57:58.110Z</time>
      </trkpt>
      <trkpt lat="49.399919" lon="10.265776">
        <ele>488.522441</ele>
        <time>2026-04-26T18:57:59.426Z</time>
      </trkpt>
      <trkpt lat="49.400006" lon="10.265379">
        <ele>488.919287</ele>
        <time>2026-04-26T18:58:07.678Z</time>
      </trkpt>
      <trkpt lat="49.400109" lon="10.264907">
        <ele>489.390902</ele>
        <time>2026-04-26T18:58:17.476Z</time>
      </trkpt>
      <trkpt lat="49.400127" lon="10.264821">
        <ele>489.476483</ele>
        <time>2026-04-26T18:58:19.252Z</time>
      </trkpt>
      <trkpt lat="49.400282" lon="10.264109">
        <ele>490.143768</ele>
        <time>2026-04-26T18:58:33.189Z</time>
      </trkpt>
      <trkpt lat="49.400320" lon="10.263878">
        <ele>490.259842</ele>
        <time>2026-04-26T18:58:37.218Z</time>
      </trkpt>
      <trkpt lat="49.400416" lon="10.263215">
        <ele>490.590729</ele>
        <time>2026-04-26T18:58:48.265Z</time>
      </trkpt>
      <trkpt lat="49.400480" lon="10.262770">
        <ele>490.812746</ele>
        <time>2026-04-26T18:58:55.590Z</time>
      </trkpt>
      <trkpt lat="49.400518" lon="10.262501">
        <ele>490.946844</ele>
        <time>2026-04-26T18:59:00.006Z</time>
      </trkpt>
      <trkpt lat="49.400566" lon="10.261815">
        <ele>491.282961</ele>
        <time>2026-04-26T18:59:11.021Z</time>
      </trkpt>
      <trkpt lat="49.400548" lon="10.261481">
        <ele>491.444803</ele>
        <time>2026-04-26T18:59:16.206Z</time>
      </trkpt>
      <trkpt lat="49.400500" lon="10.261077">
        <ele>491.532827</ele>
        <time>2026-04-26T18:59:22.505Z</time>
      </trkpt>
      <trkpt lat="49.400112" lon="10.259549">
        <ele>491.884386</ele>
        <time>2026-04-26T18:59:47.478Z</time>
      </trkpt>
      <trkpt lat="49.399896" lon="10.258911">
        <ele>492.037442</ele>
        <time>2026-04-26T18:59:58.857Z</time>
      </trkpt>
      <trkpt lat="49.399612" lon="10.258266">
        <ele>492.129893</ele>
        <time>2026-04-26T19:00:11.280Z</time>
      </trkpt>
      <trkpt lat="49.398929" lon="10.256794">
        <ele>492.344510</ele>
        <time>2026-04-26T19:00:40.590Z</time>
      </trkpt>
      <trkpt lat="49.398809" lon="10.256465">
        <ele>492.073427</ele>
        <time>2026-04-26T19:00:46.011Z</time>
      </trkpt>
      <trkpt lat="49.398696" lon="10.256013">
        <ele>491.407239</ele>
        <time>2026-04-26T19:00:52.453Z</time>
      </trkpt>
      <trkpt lat="49.398531" lon="10.254977">
        <ele>489.939801</ele>
        <time>2026-04-26T19:01:05.218Z</time>
      </trkpt>
      <trkpt lat="49.398460" lon="10.254953">
        <ele>489.786110</ele>
        <time>2026-04-26T19:01:07.379Z</time>
      </trkpt>
      <trkpt lat="49.398281" lon="10.254200">
        <ele>488.683144</ele>
        <time>2026-04-26T19:01:22.369Z</time>
      </trkpt>
      <trkpt lat="49.397354" lon="10.254241">
        <ele>486.512236</ele>
        <time>2026-04-26T19:01:49.559Z</time>
      </trkpt>
      <trkpt lat="49.397250" lon="10.254178">
        <ele>486.248873</ele>
        <time>2026-04-26T19:01:53.012Z</time>
      </trkpt>
      <trkpt lat="49.397169" lon="10.254041">
        <ele>485.965083</ele>
        <time>2026-04-26T19:01:56.733Z</time>
      </trkpt>
      <trkpt lat="49.397067" lon="10.252940">
        <ele>484.322418</ele>
        <time>2026-04-26T19:02:20.394Z</time>
      </trkpt>
      <trkpt lat="49.397018" lon="10.252801">
        <ele>484.315336</ele>
        <time>2026-04-26T19:02:23.973Z</time>
      </trkpt>
      <trkpt lat="49.396906" lon="10.252774">
        <ele>484.307533</ele>
        <time>2026-04-26T19:02:27.995Z</time>
      </trkpt>
      <trkpt lat="49.395556" lon="10.253230">
        <ele>484.212391</ele>
        <time>2026-04-26T19:03:18.675Z</time>
      </trkpt>
      <trkpt lat="49.394670" lon="10.253528">
        <ele>485.340874</ele>
        <time>2026-04-26T19:03:56.539Z</time>
      </trkpt>
      <trkpt lat="49.394608" lon="10.253458">
        <ele>485.460390</ele>
        <time>2026-04-26T19:03:59.972Z</time>
      </trkpt>
      <trkpt lat="49.394472" lon="10.253148">
        <ele>485.838359</ele>
        <time>2026-04-26T19:04:10.810Z</time>
      </trkpt>
      <trkpt lat="49.394216" lon="10.252498">
        <ele>486.606476</ele>
        <time>2026-04-26T19:04:32.870Z</time>
      </trkpt>
      <trkpt lat="49.394142" lon="10.252203">
        <ele>486.926113</ele>
        <time>2026-04-26T19:04:42.321Z</time>
      </trkpt>
      <trkpt lat="49.394106" lon="10.251723">
        <ele>487.530760</ele>
        <time>2026-04-26T19:04:56.937Z</time>
      </trkpt>
      <trkpt lat="49.394112" lon="10.251125">
        <ele>488.302582</ele>
        <time>2026-04-26T19:05:14.692Z</time>
      </trkpt>
      <trkpt lat="49.394090" lon="10.251009">
        <ele>488.458508</ele>
        <time>2026-04-26T19:05:18.234Z</time>
      </trkpt>
      <trkpt lat="49.393984" lon="10.250470">
        <ele>489.185158</ele>
        <time>2026-04-26T19:05:34.530Z</time>
      </trkpt>
      <trkpt lat="49.394014" lon="10.249398">
        <ele>490.569720</ele>
        <time>2026-04-26T19:06:05.357Z</time>
      </trkpt>
      <trkpt lat="49.393988" lon="10.249177">
        <ele>490.854585</ele>
        <time>2026-04-26T19:06:12.166Z</time>
      </trkpt>
      <trkpt lat="49.393880" lon="10.248832">
        <ele>491.340179</ele>
        <time>2026-04-26T19:06:23.595Z</time>
      </trkpt>
      <trkpt lat="49.393690" lon="10.248575">
        <ele>491.833513</ele>
        <time>2026-04-26T19:06:35.000Z</time>
      </trkpt>
      <trkpt lat="49.393272" lon="10.248510">
        <ele>492.652301</ele>
        <time>2026-04-26T19:06:54.071Z</time>
      </trkpt>
      <trkpt lat="49.391626" lon="10.248519">
        <ele>495.139588</ele>
        <time>2026-04-26T19:08:07.213Z</time>
      </trkpt>
      <trkpt lat="49.391055" lon="10.248530">
        <ele>495.805478</ele>
        <time>2026-04-26T19:08:29.734Z</time>
      </trkpt>
      <trkpt lat="49.390893" lon="10.248488">
        <ele>495.997055</ele>
        <time>2026-04-26T19:08:35.962Z</time>
      </trkpt>
      <trkpt lat="49.387136" lon="10.246245">
        <ele>497.395708</ele>
        <time>2026-04-26T19:11:08.188Z</time>
      </trkpt>
      <trkpt lat="49.386953" lon="10.246242">
        <ele>497.653380</ele>
        <time>2026-04-26T19:11:16.081Z</time>
      </trkpt>
      <trkpt lat="49.385773" lon="10.246482">
        <ele>499.329276</ele>
        <time>2026-04-26T19:12:09.417Z</time>
      </trkpt>
      <trkpt lat="49.385449" lon="10.246467">
        <ele>499.600955</ele>
        <time>2026-04-26T19:12:23.837Z</time>
      </trkpt>
      <trkpt lat="49.384647" lon="10.245884">
        <ele>499.985190</ele>
        <time>2026-04-26T19:13:00.304Z</time>
      </trkpt>
      <trkpt lat="49.384356" lon="10.245753">
        <ele>500.116509</ele>
        <time>2026-04-26T19:13:11.376Z</time>
      </trkpt>
      <trkpt lat="49.383805" lon="10.245699">
        <ele>500.115535</ele>
        <time>2026-04-26T19:13:30.115Z</time>
      </trkpt>
      <trkpt lat="49.382979" lon="10.245336">
        <ele>498.941924</ele>
        <time>2026-04-26T19:13:57.372Z</time>
      </trkpt>
      <trkpt lat="49.381979" lon="10.244851">
        <ele>497.745757</ele>
        <time>2026-04-26T19:14:16.979Z</time>
      </trkpt>
      <trkpt lat="49.381234" lon="10.244363">
        <ele>497.428408</ele>
        <time>2026-04-26T19:14:34.091Z</time>
      </trkpt>
      <trkpt lat="49.380952" lon="10.244144">
        <ele>497.304592</ele>
        <time>2026-04-26T19:14:41.159Z</time>
      </trkpt>
      <trkpt lat="49.381224" lon="10.243499">
        <ele>497.007208</ele>
        <time>2026-04-26T19:14:52.666Z</time>
      </trkpt>
      <trkpt lat="49.381516" lon="10.242770">
        <ele>495.984038</ele>
        <time>2026-04-26T19:15:04.501Z</time>
      </trkpt>
      <trkpt lat="49.381630" lon="10.242109">
        <ele>495.166632</ele>
        <time>2026-04-26T19:15:13.180Z</time>
      </trkpt>
      <trkpt lat="49.381612" lon="10.241494">
        <ele>494.430729</ele>
        <time>2026-04-26T19:15:20.500Z</time>
      </trkpt>
      <trkpt lat="49.381511" lon="10.240805">
        <ele>492.309712</ele>
        <time>2026-04-26T19:15:27.727Z</time>
      </trkpt>
      <trkpt lat="49.381466" lon="10.240630">
        <ele>490.921850</ele>
        <time>2026-04-26T19:15:29.496Z</time>
      </trkpt>
      <trkpt lat="49.381340" lon="10.240373">
        <ele>488.548761</ele>
        <time>2026-04-26T19:15:32.427Z</time>
      </trkpt>
      <trkpt lat="49.381222" lon="10.240229">
        <ele>486.841241</ele>
        <time>2026-04-26T19:15:34.481Z</time>
      </trkpt>
      <trkpt lat="49.381136" lon="10.240168">
        <ele>485.767984</ele>
        <time>2026-04-26T19:15:35.764Z</time>
      </trkpt>
      <trkpt lat="49.380988" lon="10.240210">
        <ele>484.062754</ele>
        <time>2026-04-26T19:15:37.773Z</time>
      </trkpt>
      <trkpt lat="49.379906" lon="10.240706">
        <ele>471.257113</ele>
        <time>2026-04-26T19:15:52.415Z</time>
      </trkpt>
      <trkpt lat="49.379723" lon="10.240666">
        <ele>469.151132</ele>
        <time>2026-04-26T19:15:54.799Z</time>
      </trkpt>
      <trkpt lat="49.379433" lon="10.240534">
        <ele>465.705050</ele>
        <time>2026-04-26T19:15:58.745Z</time>
      </trkpt>
      <trkpt lat="49.378556" lon="10.240098">
        <ele>455.202761</ele>
        <time>2026-04-26T19:16:11.164Z</time>
      </trkpt>
      <trkpt lat="49.377499" lon="10.239583">
        <ele>448.482047</ele>
        <time>2026-04-26T19:16:27.604Z</time>
      </trkpt>
      <trkpt lat="49.377261" lon="10.238909">
        <ele>446.030395</ele>
        <time>2026-04-26T19:16:35.506Z</time>
      </trkpt>
      <trkpt lat="49.376166" lon="10.235768">
        <ele>438.357656</ele>
        <time>2026-04-26T19:17:13.834Z</time>
      </trkpt>
      <trkpt lat="49.375863" lon="10.234445">
        <ele>435.542086</ele>
        <time>2026-04-26T19:17:28.832Z</time>
      </trkpt>
      <trkpt lat="49.375807" lon="10.234084">
        <ele>434.797057</ele>
        <time>2026-04-26T19:17:32.801Z</time>
      </trkpt>
      <trkpt lat="49.375809" lon="10.233926">
        <ele>434.479797</ele>
        <time>2026-04-26T19:17:34.484Z</time>
      </trkpt>
      <trkpt lat="49.375798" lon="10.233820">
        <ele>434.264305</ele>
        <time>2026-04-26T19:17:35.627Z</time>
      </trkpt>
      <trkpt lat="49.375636" lon="10.233434">
        <ele>433.342330</ele>
        <time>2026-04-26T19:17:40.529Z</time>
      </trkpt>
      <trkpt lat="49.375503" lon="10.232761">
        <ele>431.554943</ele>
        <time>2026-04-26T19:17:47.973Z</time>
      </trkpt>
      <trkpt lat="49.375407" lon="10.231990">
        <ele>429.521934</ele>
        <time>2026-04-26T19:17:56.126Z</time>
      </trkpt>
      <trkpt lat="49.375328" lon="10.230992">
        <ele>426.918163</ele>
        <time>2026-04-26T19:18:06.259Z</time>
      </trkpt>
      <trkpt lat="49.375310" lon="10.229455">
        <ele>421.731149</ele>
        <time>2026-04-26T19:18:21.289Z</time>
      </trkpt>
      <trkpt lat="49.375366" lon="10.227723">
        <ele>415.417568</ele>
        <time>2026-04-26T19:18:37.961Z</time>
      </trkpt>
      <trkpt lat="49.375521" lon="10.225354">
        <ele>405.643775</ele>
        <time>2026-04-26T19:19:00.448Z</time>
      </trkpt>
      <trkpt lat="49.375574" lon="10.224489">
        <ele>402.504268</ele>
        <time>2026-04-26T19:19:08.665Z</time>
      </trkpt>
      <trkpt lat="49.375686" lon="10.223433">
        <ele>398.795432</ele>
        <time>2026-04-26T19:19:18.955Z</time>
      </trkpt>
      <trkpt lat="49.375566" lon="10.223398">
        <ele>398.145130</ele>
        <time>2026-04-26T19:19:20.788Z</time>
      </trkpt>
      <trkpt lat="49.375742" lon="10.221323">
        <ele>392.551523</ele>
        <time>2026-04-26T19:19:42.103Z</time>
      </trkpt>
      <trkpt lat="49.375790" lon="10.220695">
        <ele>391.195173</ele>
        <time>2026-04-26T19:19:48.803Z</time>
      </trkpt>
      <trkpt lat="49.375862" lon="10.219722">
        <ele>389.238881</ele>
        <time>2026-04-26T19:19:59.727Z</time>
      </trkpt>
      <trkpt lat="49.375637" lon="10.219679">
        <ele>388.968617</ele>
        <time>2026-04-26T19:20:03.748Z</time>
      </trkpt>
      <trkpt lat="49.375149" lon="10.219585">
        <ele>388.382372</ele>
        <time>2026-04-26T19:20:12.636Z</time>
      </trkpt>
      <trkpt lat="49.374944" lon="10.219549">
        <ele>388.136423</ele>
        <time>2026-04-26T19:20:16.484Z</time>
      </trkpt>
      <trkpt lat="49.375092" lon="10.218918">
        <ele>387.615894</ele>
        <time>2026-04-26T19:20:25.014Z</time>
      </trkpt>
      <trkpt lat="49.375201" lon="10.218339">
        <ele>387.207275</ele>
        <time>2026-04-26T19:20:33.176Z</time>
      </trkpt>
      <trkpt lat="49.375236" lon="10.217966">
        <ele>387.519612</ele>
        <time>2026-04-26T19:20:38.404Z</time>
      </trkpt>
      <trkpt lat="49.375269" lon="10.216725">
        <ele>388.549014</ele>
        <time>2026-04-26T19:21:00.101Z</time>
      </trkpt>
      <trkpt lat="49.375145" lon="10.216454">
        <ele>388.823535</ele>
        <time>2026-04-26T19:21:06.752Z</time>
      </trkpt>
      <trkpt lat="49.375091" lon="10.216260">
        <ele>388.998400</ele>
        <time>2026-04-26T19:21:11.056Z</time>
      </trkpt>
      <trkpt lat="49.375129" lon="10.216058">
        <ele>389.172666</ele>
        <time>2026-04-26T19:21:15.435Z</time>
      </trkpt>
      <trkpt lat="49.375249" lon="10.215823">
        <ele>389.420189</ele>
        <time>2026-04-26T19:21:21.709Z</time>
      </trkpt>
      <trkpt lat="49.375410" lon="10.215629">
        <ele>389.680162</ele>
        <time>2026-04-26T19:21:28.208Z</time>
      </trkpt>
      <trkpt lat="49.375984" lon="10.215310">
        <ele>390.455320</ele>
        <time>2026-04-26T19:21:47.012Z</time>
      </trkpt>
      <trkpt lat="49.376086" lon="10.215216">
        <ele>390.606374</ele>
        <time>2026-04-26T19:21:50.430Z</time>
      </trkpt>
      <trkpt lat="49.376131" lon="10.215047">
        <ele>390.757337</ele>
        <time>2026-04-26T19:21:53.628Z</time>
      </trkpt>
      <trkpt lat="49.376152" lon="10.214536">
        <ele>391.180673</ele>
        <time>2026-04-26T19:22:01.819Z</time>
      </trkpt>
      <trkpt lat="49.376123" lon="10.214196">
        <ele>391.464188</ele>
        <time>2026-04-26T19:22:07.073Z</time>
      </trkpt>
      <trkpt lat="49.376139" lon="10.213623">
        <ele>391.858159</ele>
        <time>2026-04-26T19:22:15.389Z</time>
      </trkpt>
      <trkpt lat="49.376121" lon="10.213248">
        <ele>392.036442</ele>
        <time>2026-04-26T19:22:20.750Z</time>
      </trkpt>
      <trkpt lat="49.376078" lon="10.213194">
        <ele>392.076890</ele>
        <time>2026-04-26T19:22:22.082Z</time>
      </trkpt>
      <trkpt lat="49.376055" lon="10.213013">
        <ele>392.164328</ele>
        <time>2026-04-26T19:22:25.000Z</time>
      </trkpt>
      <trkpt lat="49.376139" lon="10.212736">
        <ele>392.309209</ele>
        <time>2026-04-26T19:22:29.709Z</time>
      </trkpt>
      <trkpt lat="49.376230" lon="10.211902">
        <ele>392.710151</ele>
        <time>2026-04-26T19:22:43.476Z</time>
      </trkpt>
      <trkpt lat="49.376277" lon="10.211386">
        <ele>392.957187</ele>
        <time>2026-04-26T19:22:52.661Z</time>
      </trkpt>
      <trkpt lat="49.376327" lon="10.210537">
        <ele>394.056301</ele>
        <time>2026-04-26T19:23:08.654Z</time>
      </trkpt>
      <trkpt lat="49.376341" lon="10.209905">
        <ele>395.047746</ele>
        <time>2026-04-26T19:23:21.672Z</time>
      </trkpt>
      <trkpt lat="49.376435" lon="10.207223">
        <ele>399.423124</ele>
        <time>2026-04-26T19:24:21.333Z</time>
      </trkpt>
      <trkpt lat="49.376525" lon="10.204088">
        <ele>404.313235</ele>
        <time>2026-04-26T19:25:25.832Z</time>
      </trkpt>
      <trkpt lat="49.376515" lon="10.203900">
        <ele>404.579272</ele>
        <time>2026-04-26T19:25:29.529Z</time>
      </trkpt>
      <trkpt lat="49.376396" lon="10.203568">
        <ele>405.113790</ele>
        <time>2026-04-26T19:25:36.924Z</time>
      </trkpt>
      <trkpt lat="49.376399" lon="10.203469">
        <ele>405.253570</ele>
        <time>2026-04-26T19:25:38.860Z</time>
      </trkpt>
      <trkpt lat="49.376414" lon="10.203375">
        <ele>405.390071</ele>
        <time>2026-04-26T19:25:40.742Z</time>
      </trkpt>
      <trkpt lat="49.376546" lon="10.203111">
        <ele>405.859541</ele>
        <time>2026-04-26T19:25:47.247Z</time>
      </trkpt>
      <trkpt lat="49.376549" lon="10.203056">
        <ele>405.937384</ele>
        <time>2026-04-26T19:25:48.321Z</time>
      </trkpt>
      <trkpt lat="49.376585" lon="10.201019">
        <ele>408.736874</ele>
        <time>2026-04-26T19:26:28.402Z</time>
      </trkpt>
      <trkpt lat="49.376577" lon="10.199807">
        <ele>410.685442</ele>
        <time>2026-04-26T19:26:53.068Z</time>
      </trkpt>
      <trkpt lat="49.376541" lon="10.199564">
        <ele>411.187622</ele>
        <time>2026-04-26T19:26:58.428Z</time>
      </trkpt>
      <trkpt lat="49.376419" lon="10.199270">
        <ele>411.890151</ele>
        <time>2026-04-26T19:27:06.035Z</time>
      </trkpt>
      <trkpt lat="49.376413" lon="10.199134">
        <ele>412.164830</ele>
        <time>2026-04-26T19:27:09.150Z</time>
      </trkpt>
      <trkpt lat="49.376555" lon="10.199120">
        <ele>412.605218</ele>
        <time>2026-04-26T19:27:14.085Z</time>
      </trkpt>
      <trkpt lat="49.376622" lon="10.199112">
        <ele>412.813205</ele>
        <time>2026-04-26T19:27:16.398Z</time>
      </trkpt>
      <trkpt lat="49.376619" lon="10.198995">
        <ele>413.049152</ele>
        <time>2026-04-26T19:27:19.170Z</time>
      </trkpt>
      <trkpt lat="49.376649" lon="10.198934">
        <ele>413.203197</ele>
        <time>2026-04-26T19:27:20.907Z</time>
      </trkpt>
      <trkpt lat="49.376644" lon="10.198779">
        <ele>413.515916</ele>
        <time>2026-04-26T19:27:24.573Z</time>
      </trkpt>
      <trkpt lat="49.376641" lon="10.198673">
        <ele>413.729716</ele>
        <time>2026-04-26T19:27:27.025Z</time>
      </trkpt>
      <trkpt lat="49.376552" lon="10.196850">
        <ele>417.406046</ele>
        <time>2026-04-26T19:28:11.336Z</time>
      </trkpt>
      <trkpt lat="49.376534" lon="10.196655">
        <ele>417.801474</ele>
        <time>2026-04-26T19:28:15.979Z</time>
      </trkpt>
      <trkpt lat="49.376447" lon="10.195979">
        <ele>419.184979</ele>
        <time>2026-04-26T19:28:31.893Z</time>
      </trkpt>
      <trkpt lat="49.376349" lon="10.195576">
        <ele>420.048700</ele>
        <time>2026-04-26T19:28:41.302Z</time>
      </trkpt>
      <trkpt lat="49.376163" lon="10.194884">
        <ele>421.075228</ele>
        <time>2026-04-26T19:28:56.017Z</time>
      </trkpt>
      <trkpt lat="49.375939" lon="10.194347">
        <ele>421.410662</ele>
        <time>2026-04-26T19:29:07.306Z</time>
      </trkpt>
      <trkpt lat="49.375811" lon="10.194063">
        <ele>421.592331</ele>
        <time>2026-04-26T19:29:13.239Z</time>
      </trkpt>
      <trkpt lat="49.375779" lon="10.193993">
        <ele>421.637317</ele>
        <time>2026-04-26T19:29:14.692Z</time>
      </trkpt>
      <trkpt lat="49.375515" lon="10.193366">
        <ele>422.030045</ele>
        <time>2026-04-26T19:29:26.597Z</time>
      </trkpt>
      <trkpt lat="49.375382" lon="10.192937">
        <ele>422.279958</ele>
        <time>2026-04-26T19:29:33.081Z</time>
      </trkpt>
      <trkpt lat="49.375274" lon="10.192422">
        <ele>422.251345</ele>
        <time>2026-04-26T19:29:40.265Z</time>
      </trkpt>
      <trkpt lat="49.375242" lon="10.191661">
        <ele>422.041156</ele>
        <time>2026-04-26T19:29:50.735Z</time>
      </trkpt>
      <trkpt lat="49.375189" lon="10.191423">
        <ele>421.971826</ele>
        <time>2026-04-26T19:29:54.151Z</time>
      </trkpt>
      <trkpt lat="49.375215" lon="10.191407">
        <ele>421.959968</ele>
        <time>2026-04-26T19:29:54.706Z</time>
      </trkpt>
      <trkpt lat="49.375249" lon="10.191392">
        <ele>421.944993</ele>
        <time>2026-04-26T19:29:55.472Z</time>
      </trkpt>
      <trkpt lat="49.375343" lon="10.191424">
        <ele>421.904235</ele>
        <time>2026-04-26T19:29:57.331Z</time>
      </trkpt>
      <trkpt lat="49.375327" lon="10.191544">
        <ele>421.870473</ele>
        <time>2026-04-26T19:29:58.982Z</time>
      </trkpt>
      <trkpt lat="49.375343" lon="10.191424">
        <ele>421.836712</ele>
        <time>2026-04-26T19:30:00.445Z</time>
      </trkpt>
      <trkpt lat="49.375358" lon="10.191325">
        <ele>421.808696</ele>
        <time>2026-04-26T19:30:01.785Z</time>
      </trkpt>
      <trkpt lat="49.375384" lon="10.191168">
        <ele>421.764044</ele>
        <time>2026-04-26T19:30:03.740Z</time>
      </trkpt>
      <trkpt lat="49.375481" lon="10.190634">
        <ele>421.611239</ele>
        <time>2026-04-26T19:30:11.040Z</time>
      </trkpt>
      <trkpt lat="49.375504" lon="10.190427">
        <ele>421.719486</ele>
        <time>2026-04-26T19:30:13.957Z</time>
      </trkpt>
      <trkpt lat="49.375511" lon="10.190082">
        <ele>421.981395</ele>
        <time>2026-04-26T19:30:18.989Z</time>
      </trkpt>
      <trkpt lat="49.375512" lon="10.189632">
        <ele>422.322853</ele>
        <time>2026-04-26T19:30:26.111Z</time>
      </trkpt>
      <trkpt lat="49.375541" lon="10.189338">
        <ele>422.548483</ele>
        <time>2026-04-26T19:30:31.148Z</time>
      </trkpt>
      <trkpt lat="49.375624" lon="10.189097">
        <ele>422.755358</ele>
        <time>2026-04-26T19:30:35.887Z</time>
      </trkpt>
      <trkpt lat="49.375625" lon="10.189093">
        <ele>422.758609</ele>
        <time>2026-04-26T19:30:35.972Z</time>
      </trkpt>
      <trkpt lat="49.375698" lon="10.189009">
        <ele>422.864912</ele>
        <time>2026-04-26T19:30:38.395Z</time>
      </trkpt>
      <trkpt lat="49.375773" lon="10.188979">
        <ele>422.955232</ele>
        <time>2026-04-26T19:30:40.570Z</time>
      </trkpt>
      <trkpt lat="49.375774" lon="10.188828">
        <ele>423.069815</ele>
        <time>2026-04-26T19:30:43.311Z</time>
      </trkpt>
      <trkpt lat="49.375799" lon="10.188567">
        <ele>423.269990</ele>
        <time>2026-04-26T19:30:48.460Z</time>
      </trkpt>
      <trkpt lat="49.375829" lon="10.188367">
        <ele>423.425722</ele>
        <time>2026-04-26T19:30:52.713Z</time>
      </trkpt>
      <trkpt lat="49.375834" lon="10.188329">
        <ele>423.455139</ele>
        <time>2026-04-26T19:30:53.549Z</time>
      </trkpt>
      <trkpt lat="49.375870" lon="10.188058">
        <ele>423.665006</ele>
        <time>2026-04-26T19:30:59.561Z</time>
      </trkpt>
      <trkpt lat="49.375875" lon="10.188023">
        <ele>423.692196</ele>
        <time>2026-04-26T19:31:00.363Z</time>
      </trkpt>
      <trkpt lat="49.375897" lon="10.187855">
        <ele>423.961469</ele>
        <time>2026-04-26T19:31:04.197Z</time>
      </trkpt>
      <trkpt lat="49.375932" lon="10.187589">
        <ele>424.390592</ele>
        <time>2026-04-26T19:31:10.240Z</time>
      </trkpt>
      <trkpt lat="49.375974" lon="10.187276">
        <ele>424.895932</ele>
        <time>2026-04-26T19:31:17.207Z</time>
      </trkpt>
      <trkpt lat="49.375996" lon="10.187116">
        <ele>425.154516</ele>
        <time>2026-04-26T19:31:20.722Z</time>
      </trkpt>
      <trkpt lat="49.376030" lon="10.186864">
        <ele>425.561463</ele>
        <time>2026-04-26T19:31:26.380Z</time>
      </trkpt>
      <trkpt lat="49.376103" lon="10.186329">
        <ele>426.425821</ele>
        <time>2026-04-26T19:31:38.506Z</time>
      </trkpt>
      <trkpt lat="49.376119" lon="10.186214">
        <ele>426.611772</ele>
        <time>2026-04-26T19:31:41.019Z</time>
      </trkpt>
      <trkpt lat="49.376136" lon="10.186096">
        <ele>426.802875</ele>
        <time>2026-04-26T19:31:43.554Z</time>
      </trkpt>
      <trkpt lat="49.376189" lon="10.185753">
        <ele>427.360315</ele>
        <time>2026-04-26T19:31:50.694Z</time>
      </trkpt>
      <trkpt lat="49.376198" lon="10.185711">
        <ele>427.430233</ele>
        <time>2026-04-26T19:31:51.577Z</time>
      </trkpt>
      <trkpt lat="49.376207" lon="10.185665">
        <ele>427.506184</ele>
        <time>2026-04-26T19:31:52.532Z</time>
      </trkpt>
      <trkpt lat="49.376224" lon="10.185595">
        <ele>427.624322</ele>
        <time>2026-04-26T19:31:53.982Z</time>
      </trkpt>
      <trkpt lat="49.376395" lon="10.184946">
        <ele>428.560245</ele>
        <time>2026-04-26T19:32:06.949Z</time>
      </trkpt>
      <trkpt lat="49.376421" lon="10.184877">
        <ele>428.654072</ele>
        <time>2026-04-26T19:32:08.366Z</time>
      </trkpt>
      <trkpt lat="49.376438" lon="10.184838">
        <ele>428.709309</ele>
        <time>2026-04-26T19:32:09.202Z</time>
      </trkpt>
      <trkpt lat="49.376492" lon="10.184839">
        <ele>428.806927</ele>
        <time>2026-04-26T19:32:10.710Z</time>
      </trkpt>
      <trkpt lat="49.376725" lon="10.184788">
        <ele>429.232359</ele>
        <time>2026-04-26T19:32:17.014Z</time>
      </trkpt>
      <trkpt lat="49.377254" lon="10.184931">
        <ele>430.203289</ele>
        <time>2026-04-26T19:32:31.619Z</time>
      </trkpt>
      <trkpt lat="49.377804" lon="10.185002">
        <ele>431.200986</ele>
        <time>2026-04-26T19:32:48.170Z</time>
      </trkpt>
      <trkpt lat="49.378017" lon="10.185023">
        <ele>431.810402</ele>
        <time>2026-04-26T19:32:55.309Z</time>
      </trkpt>
      <trkpt lat="49.378541" lon="10.185064">
        <ele>433.534210</ele>
        <time>2026-04-26T19:33:14.465Z</time>
      </trkpt>
      <trkpt lat="49.378829" lon="10.184974">
        <ele>434.499805</ele>
        <time>2026-04-26T19:33:25.728Z</time>
      </trkpt>
      <trkpt lat="49.379663" lon="10.184553">
        <ele>437.222655</ele>
        <time>2026-04-26T19:33:58.021Z</time>
      </trkpt>
      <trkpt lat="49.379703" lon="10.184505">
        <ele>437.222655</ele>
        <time>2026-04-26T19:33:59.716Z</time>
      </trkpt>
      <trkpt lat="49.379785" lon="10.184408">
        <ele>437.222655</ele>
        <time>2026-04-26T19:34:03.851Z</time>
      </trkpt>
      <trkpt lat="49.379825" lon="10.184531">
        <ele>437.222655</ele>
        <time>2026-04-26T19:34:07.340Z</time>
      </trkpt>
      <trkpt lat="49.379763" lon="10.184610">
        <ele>437.222655</ele>
        <time>2026-04-26T19:34:09.843Z</time>
      </trkpt>
      <trkpt lat="49.379886" lon="10.185097">
        <ele>437.222655</ele>
        <time>2026-04-26T19:34:19.860Z</time>
      </trkpt>
      <trkpt lat="49.379897" lon="10.185137">
        <ele>437.222655</ele>
        <time>2026-04-26T19:34:20.646Z</time>
      </trkpt>
      <trkpt lat="49.379942" lon="10.185334">
        <ele>437.222655</ele>
        <time>2026-04-26T19:34:24.352Z</time>
      </trkpt>
      <trkpt lat="49.379965" lon="10.185441">
        <ele>437.222655</ele>
        <time>2026-04-26T19:34:26.278Z</time>
      </trkpt>
    </trkseg>
  </trk>
</gpx>